     2              Observation         GPS                 RINEX VERSION / TYPE
ASRINEXO V2.2.0 UX USGS 11-MAR-94 14:09                     PGM / RUN BY / DATE
                                                            COMMENT
Original Marker Name: prtu Portugese_USGS                   COMMENT
Campaign Name: USGS-Coso                                    COMMENT
4-Character Station Name: PRTU                              COMMENT
6-Character Antenna Code: ASHP12                            COMMENT
Vertical Measurement Point: EGP                             COMMENT
Vertical Offset to Rinex Ref. Point: 0.0593                 COMMENT
Radial Measurement Point: EGP                               COMMENT
Radial Offset to Rinex Ref. Point: 0.1425                   COMMENT
Antenna Height from Field Measurement: 1.3600 m             COMMENT
Additional Antenna Identification Info.:                    COMMENT
Ashtech L1/L2 Revision B (700228DE)                         COMMENT
Revised Rinex header created by UCSD GPS archive for        COMMENT
SCEC DC on 19-Jan-2001 (2001.019) 19:10:25 GMT              COMMENT
For assistance contact dagnew@ucsd.edu                      COMMENT
or anderson@python.ucsd.edu                                 COMMENT
                                                            COMMENT
PORTUGESE (USGS)                                            MARKER NAME
                                                            MARKER NUMBER
CHS US GEOLOGICAL SURVEY                                    OBSERVER / AGENCY
99 ASHTECH L-XII 6A                                         REC # / TYPE / VERS
1036 ASHTECH GEODETIC P                                     ANT # / TYPE
 -2363874.7900 -3547654.4200  4728641.7300                  APPROX POSITION XYZ
        1.2932        0.0000        0.0000                  ANTENNA: DELTA H/E/N
     1     2     0                                          WAVELENGTH FACT L1/2
     3    C1    L1    L2                                    # / TYPES OF OBSERV
    30                                                      INTERVAL
  1992     2    26     6    23    0.000000                  TIME OF FIRST OBS
  1992     2    26    15     9   30.000000                  TIME OF LAST OBS
                                                            END OF HEADER
 92  2 26  6 23  0.0000000  0  2 24 13
  20927105.464        -316.230 8      -245.941 9
  23095952.211       66439.986 7     51771.870 3
 92  2 26  6 23 30.0000000  0  2 24 13
  20027620.466        -873.685 8      -680.303 9
  22209420.335      133936.139 7    104366.255 4
 92  2 26  6 24  0.0000000  0  2 24 13
  20926999.035        -866.570 8      -674.759 9
  23121651.321      201478.803 7    156996.895 2
 92  2 26  6 24 30.0000000  0  2 24 13
  20027793.154          22.689 8        18.180 9
  22235198.600      269419.536 7    209937.743 3
 92  2 26  6 25  0.0000000  0  5 16 24 12 20 13
  25656148.621      -92376.978 5    -71982.009 3
  21826920.235        1943.196 8      1514.803 9
  22621239.541       44073.111 8     34342.903 6
  24540356.763      -92803.615 6    -72314.142 2
  24046992.515       67370.875 7     52496.870 2
 92  2 26  6 25 30.0000000  0  5 16 24 12 20 13
  24439216.383     -185739.905 5   -144732.157 2
  20628340.391        5032.123 8      3921.776 9
  21430825.752       90091.285 8     70201.232 6
  23323369.067     -186475.327 6   -145304.988 4
  22860986.861      136538.495 7    106393.712 3
 92  2 26  6 26  0.0000000  0  5 16 24 12 20 13
  24421572.694     -278450.960 6   -216974.306 2
  20629138.738        9242.588 8      7202.660 9
  21439810.224      137300.150 8    106987.361 6
  23305686.116     -279399.022 6   -217712.980 4
  22874265.569      206337.776 7    160782.788 2
 92  2 26  6 26 30.0000000  0  5 16 24 12 20 13
  24404044.736     -370554.169 6   -288742.907 2
  20630144.254       14531.556 8     11323.942 9
  21449012.666      185664.398 8    144673.775 7
  23288131.755     -371624.598 6   -289576.966 3
  22887663.602      276737.433 7    215639.681 2
 92  2 26  6 27  0.0000000  0  5 16 24 12 20 13
  24386637.585     -462066.962 5   -360051.468 2
  20631357.202       20885.893 8     16275.377 9
  21458437.232      235176.026 8    183254.253 6
  23270713.227     -463160.298 7   -360903.372 2
  22901173.456      347730.116 7    270958.741 2
 92  2 26  6 27 30.0000000  0  5 16 24 12 20 13
  24369317.372     -553031.880 5   -430933.049 2
  20632764.440       28291.837 8     22046.263 9
  21468071.358      285814.687 8    222712.956 6
  23253423.586     -554019.308 6   -431702.506 4
  22914791.519      419296.496 7    326724.728 2
 92  2 26  6 28  0.0000000  0  5 16 24 12 20 13
  24352101.789     -643567.748 5   -501480.286 3
  20634356.039       36659.953 8     28566.873 9
  21477903.962      337484.572 8    262975.199 6
  23236243.690     -644289.702 6   -502043.000 4
  22928501.928      491341.845 7    382863.959 2
 92  2 26  6 28 30.0000000  0  5 16 24 12 20 13
  24334935.382     -733746.040 5   -571748.946 1
  20636117.307       45913.185 8     35777.191 9
  21487918.816      390112.147 8    303983.684 7
  23219170.501     -734031.917 7   -571971.884 1
  22942286.989      563793.281 7    439319.613 1
 92  2 26  6 29  0.0000000  0  5 16 24 12 20 13
  24317848.705     -823536.580 5   -641715.404 1
  20638051.873       56071.387 8     43692.681 9
  21498117.457      443708.438 8    345747.007 6
  23202192.050     -823236.464 7   -641481.828 2
  22956154.485      636662.643 7    496100.940 4
 92  2 26  6 29 30.0000000  0  5 16 24 12 20 13
  24300818.688     -913029.457 5   -711450.033 3
  20640135.726       67032.885 8     52234.125 9
  21508479.483      498154.980 8    388172.888 6
  23185299.350     -912019.608 7   -710663.460 3
  22970078.642      709832.213 7    553116.235 3
 92  2 26  6 30  0.0000000  0  5 16 24 12 20 13
  24283858.839    -1002154.064 5   -780897.556 2
  20642379.684       78830.271 8     61426.903 9
  21519010.602      553490.270 8    431291.292 6
  23168491.492    -1000341.867 7   -779485.928 3
  22984066.370      783341.652 7    610396.366 2
 92  2 26  6 30 30.0000000  0  5 16 24 12 20 13
  24266968.529    -1090897.791 5   -850048.343 2
  20644780.712       91441.008 8     71253.461 9
  21529705.387      609691.479 8    475084.435 6
  23151766.959    -1088230.457 7   -847970.427 2
  22998114.040      857169.132 7    667924.203 3
 92  2 26  6 31  0.0000000  0  5 16 24 12 20 13
  24250137.585    -1179330.893 5   -918957.147 2
  20647325.355      104822.139 8     81680.320 9
  21540553.385      666695.021 8    519502.764 6
  23135111.703    -1175743.875 6   -916162.602 3
  23012212.682      931251.950 7    725651.080 2
 92  2 26  6 31 30.0000000  0  5 16 24 12 20 13
  24233376.476    -1267444.370 5   -987616.815 2
  20650021.082      118993.890 8     92723.260 9
  21551551.576      724515.167 8    564557.408 6
  23118533.176    -1262860.395 6   -984045.535 4
  23026364.075     1005605.899 7    783589.242 2
 92  2 26  6 32  0.0000000  0  5 16 24 12 20 13
  24216661.261    -1355267.126 5  -1056050.052 3
  20652864.019      133919.659 8    104353.739 9
  21562708.042      783128.304 8    610229.988 6
  23102025.706    -1349601.140 6  -1051635.656 2
  23040558.362     1080207.689 7    841720.401 3
 92  2 26  6 32 30.0000000  0  5 16 24 12 20 13
  24200001.783    -1442824.745 6  -1124277.000 1
  20655844.255      149588.456 8    116563.205 9
  21574013.514      842524.440 8    656512.686 6
  23085593.779    -1435971.911 6  -1118937.469 2
  23054802.992     1155048.878 7    900038.190 3
 92  2 26  6 33  0.0000000  0  5 16 24 12 20 13
  24183377.693    -1530164.421 5  -1192333.796 2
  20658961.492      165954.786 8    129316.194 9
  21585453.301      902660.980 8    703372.315 6
  23069224.201    -1521995.350 7  -1185968.640 4
  23069083.901     1230088.097 7    958510.268 1
 92  2 26  6 33 30.0000000  0  5 16 24 12 20 13
  24166799.777    -1617299.997 5  -1260231.544 2
  20662198.053      182963.386 8    142569.671 9
  21597030.090      963502.875 8    750781.568 5
  23052910.708    -1607713.479 6  -1252761.940 4
  23083391.806     1305291.466 6   1017110.291 1
 92  2 26  6 34  0.0000000  0  5 16 24 12 20 13
  24150254.824    -1704244.548 6  -1327980.300 1
  20665551.828      200586.048 8    156301.624 9
  21608742.379     1025038.719 8    798731.560 5
  23036657.749    -1693128.159 6  -1319318.731 3
  23097730.580     1380648.818 7   1075830.358 2
 92  2 26  6 34 30.0000000  0  5 16 24 12 20 13
  24133752.747    -1790970.502 6  -1395558.719 2
  20669029.133      218854.994 8    170537.174 9
  21620588.686     1087288.535 8    847237.893 5
  23020466.861    -1778198.016 7  -1385606.860 2
  23112105.615     1456181.457 7   1134686.963 3
 92  2 26  6 35  0.0000000  0  5 16 24 12 20 13
  24117284.243    -1877478.040 6  -1462967.176 2
  20672629.933      237775.300 8    185280.281 9
  21632568.680     1150245.214 8    896295.030 5
  23004346.420    -1862919.252 6  -1451623.353 4
  23126510.945     1531883.768 6   1193675.771 2
 92  2 26  6 35 30.0000000  0  5 16 24 12 20 13
  24100862.524    -1963811.905 6  -1530240.207 3
  20676344.962      257310.088 9    200502.216 9
  21644677.298     1213866.496 8    945870.051 6
  22988278.155    -1947337.562 6  -1517403.822 5
  23140939.361     1607714.417 6   1252764.546 3
 92  2 26  6 36  0.0000000  0  5 16 24 12 20 13
  24084474.361    -2049931.367 6  -1597346.177 2
  20680191.898      277507.352 8    216240.345 9
  21656913.635     1278194.239 8    995995.561 5
  22972287.212    -2031396.641 6  -1582904.337 3
  23155404.352     1683716.460 6   1311986.919 2
 92  2 26  6 36 30.0000000  0  5 16 24 12 20 13
  24068120.087    -2135871.463 6  -1664312.681 2
  20684150.654      298326.607 9    232463.147 9
  21669283.362     1343179.617 8   1046633.494 6
  22956354.447    -2115151.448 7  -1648167.739 2
  23169890.022     1759842.481 6   1371305.850 2
 92  2 26  6 37  0.0010000  0  5 16 24 12 20 13
  24051791.293    -2221672.734 5  -1731170.705 2
  20688219.141      319708.952 9    249124.725 9
  21681765.820     1408779.181 8   1097750.034 5
  22940458.244    -2198670.798 6  -1713247.673 3
  23184391.872     1836051.074 6   1430689.169 3
 92  2 26  6 37 30.0010000  0  5 16 24 12 20 13
  24035502.667    -2307273.080 5  -1797872.142 2
  20692400.649      341681.090 9    266245.883 9
  21694371.491     1475022.896 8   1149368.510 5
  22924616.326    -2281912.164 7  -1778111.032 3
  23198916.822     1912373.283 6   1490160.983 2
 92  2 26  6 38  0.0010000  0  5 16 24 12 20 13
  24019240.128    -2392651.112 5  -1864400.351 3
  20696696.683      364266.247 8    283844.711 9
  21707104.286     1541930.524 8   1201504.309 6
  22908837.036    -2364853.441 7  -1842740.526 4
  23213466.046     1988830.444 6   1549738.038 2
 92  2 26  6 38 30.0010000  0  5 16 24 12 20 13
  24003053.428    -2477814.547 6  -1930761.315 1
  20701116.823      387477.725 8    301931.578 9
  21719960.281     1609503.984 8   1254158.934 6
  22893104.531    -2447490.657 6  -1907133.081 3
  23228041.654     2065425.891 6   1609422.737 4
 92  2 26  6 39  0.0010000  0  5 16 24 12 20 13
  23986871.231    -2562804.381 5  -1996986.981 2
  20705646.080      411283.203 8    320481.310 9
  21732941.899     1677702.624 8   1307300.721 6
  22877436.783    -2529851.865 7  -1971310.550 3
  23242633.457     2142120.506 6   1669184.736 2
 92  2 26  6 39 30.0010000  0  5 16 24 12 20 13
  23970739.394    -2647595.087 6  -2063057.536 1
  20710295.568      435725.406 8    339527.189 9
  21746042.824     1746553.186 8   1360950.499 5
  22861820.287    -2611892.400 7  -2035238.185 4
  23257251.033     2218942.586 6   1729046.106 1
 92  2 26  6 40  0.0010000  0  5 16 24 12 20 13
  23954629.161    -2732235.458 5  -2129010.839 2
  20715058.972      460754.541 8    359030.420 9
  21759262.184     1816009.161 8   1415072.030 6
  22846256.874    -2693671.003 7  -2098961.712 3
  23271886.914     2295847.208 6   1788971.714 3
 92  2 26  6 40 30.0010000  0  5 16 24 12 20 13
  23938549.187    -2816692.275 5  -2194821.594 2
  20719935.993      486379.832 8    378998.186 9
  21772591.847     1886088.572 8   1469679.342 5
  22830755.793    -2775174.792 7  -2162471.062 3
  23286543.160     2372854.384 6   1848977.324 2
 92  2 26  6 41  0.0010000  0  5 16 24 12 20 13
  23922533.377    -2900947.248 6  -2260474.738 2
  20724922.742      512588.915 8    399420.859 9
  21786048.635     1956794.609 8   1524774.946 6
  22815291.009    -2856405.038 7  -2225767.272 3
  23301221.900     2449968.881 6   1909066.543 2
 92  2 26  6 41 30.0010000  0  5 16 24 12 20 13
  23906528.962    -2985003.741 6  -2325973.226 3
  20730023.109      539380.350 8    420297.299 9
  21799620.245     2028121.167 8   1580354.062 5
  22799884.962    -2937374.478 7  -2288860.247 2
  23315912.924     2527186.264 6   1969235.907 3
 92  2 26  6 42  0.0010000  0  5 16 24 12 20 13
  23890556.604    -3068926.678 5  -2391367.657 1
  20735214.305      566683.322 9    441572.344 9
  21813295.266     2100003.149 7   1636365.983 6
  22784512.506    -3018148.932 7  -2351801.295 2
  23330612.359     2604443.296 6   2029436.151 2
 92  2 26  6 42 30.0010000  0  5 16 24 12 20 13
  23874633.437    -3152682.762 6  -2456631.919 3
  20740517.932      594537.270 9    463276.716 9
  21827091.425     2172474.598 8   1692837.209 5
  22769187.725    -3098670.971 7  -2414545.647 4
  23345326.767     2681775.405 6   2089694.877 2
 92  2 26  6 43  0.0010000  0  5 16 24 12 20 13
  23858713.551    -3236274.378 6  -2521768.141 2
  20745924.097      622948.632 9    485415.456 9
  21840996.387     2245528.350 7   1749762.215 5
  22753912.398    -3178934.182 7  -2477088.347 4
  23360059.165     2759177.882 6   2150008.475 2
 92  2 26  6 43 30.0010000  0  5 16 24 12 20 13
  23842844.637    -3319676.690 6  -2586756.922 2
  20751442.676      651934.477 9    508001.821 9
  21855003.589     2319169.943 7   1807145.257 5
  22738698.530    -3258916.360 7  -2539412.065 3
  23374801.458     2836657.393 6   2210382.162 2
 92  2 26  6 44  0.0010000  0  5 16 24 12 20 13
  23827010.798    -3402883.299 6  -2651593.133
  20757058.383      681470.798 9    531017.139 9
  21869135.212     2393395.486 7   1864983.314 5
  22723533.523    -3338595.769 7  -2601499.834 3
  23389555.443     2914211.646 6   2270814.032 2
 92  2 26  6 44 30.0010000  0  5 16 24 12 20 13
  23811207.846    -3485933.389 6  -2716307.421 1
  20762774.533      711508.052 9    554422.789 9
  21883356.459     2468154.923 7   1923237.398 5
  22708424.880    -3418002.787 7  -2663375.349 2
  23404319.322     2991792.829 6   2331266.865 3
 92  2 26  6 45  0.0010000  0  5 16 24 12 20 13
  23795444.157    -3568774.346 6  -2780858.785 3
  20768594.093      742090.987 9    578253.661 9
  21897695.233     2543495.849 7   1981944.612 5
  22693374.103    -3497089.349 7  -2725001.164 4
  23419099.691     3069450.887 6   2391779.646 2
 92  2 26  6 45 30.0010000  0  5 16 24 12 20 13
  23779714.042    -3651446.034 6  -2845278.252 2
  20774510.206      773169.864 8    602470.958 9
  21912130.856     2619382.407 7   2041076.975 6
  22678379.078    -3575880.511 7  -2786396.827 4
  23433885.452     3147151.675 6   2452325.722 2
 92  2 26  6 46  0.0010000  0  5 16 24 12 20 13
  23764016.315    -3733930.309 6  -2909551.665 2
  20780523.446      804767.619 9    627092.599 9
  21926677.671     2695841.288 7   2100655.319 5
  22663443.419    -3654350.225 7  -2847541.978 3
  23448684.110     3224923.560 6   2512927.181 3
 92  2 26  6 46 30.0010000  0  5 16 24 12 20 13
  23748346.159    -3816215.369 6  -2973669.834 2
  20786636.816      836905.067 9    652134.767 9
  21941345.016     2772878.912 7   2160684.608 5
  22648576.410    -3732508.007 7  -2908444.081 4
  23463500.461     3302775.226 6   2573590.814 2
 92  2 26  6 47  0.0010000  0  5 16 24 12 20 13
  23732729.976    -3898310.781 6  -3037640.166 3
  20792856.597      869571.668 9    677589.275 9
  21956109.505     2850472.629 7   2221147.230 5
  22633757.371    -3810386.064 7  -2969128.228 5
  23478328.487     3380686.188 6   2634300.689 2
 92  2 26  6 47 30.0010000  0  5 16 24 12 20 13
  23717153.057    -3980233.312 6  -3101475.830 1
  20799165.740      902743.740 9    703437.644 9
  21970981.000     2928594.669 7   2282021.516 5
  22618980.299    -3888010.735 7  -3029614.935 4
  23493161.626     3458630.068 6   2695036.228 1
 92  2 26  6 48  0.0010000  0  5 16 24 12 20 13
  23701591.127    -4061968.479 6  -3165165.408 2
  20805577.090      936430.546 9    729687.097 9
  21985939.448     3007245.985 7   2343308.228 5
  22604255.998    -3965394.327 7  -3089913.779 4
  23507994.451     3536610.306 6   2755799.894 2
 92  2 26  6 48 30.0010000  0  5 16 24 12 20 13
  23686072.666    -4143513.183 6  -3228706.678 1
  20812085.899      970628.120 9    756334.560 9
  22001008.514     3086422.935 7   2405004.547 5
  22589578.759    -4042532.299 7  -3150021.226 4
  23522847.378     3614625.464 6   2816590.940 1
 92  2 26  6 49  0.0010000  0  5 16 24 12 20 13
  23670601.582    -4224830.800 6  -3292071.054 4
  20818693.023     1005366.545 9    783403.474 9
  22016181.007     3166157.369 7   2467135.261 6
  22574956.384    -4119377.229 7  -3209900.339 4
  23537704.179     3692709.626 6   2877435.707 2
 92  2 26  6 49 30.0010000  0  5 16 24 12 20 13
  23655150.584    -4305977.942 6  -3355302.565 3
  20825392.772     1040570.612 9    810835.215 9
  22031453.647     3246394.447 7   2529657.627 4
  22560376.570    -4195982.229 7  -3269592.505 3
  23552560.108     3770809.369 6   2938292.651 2
 92  2 26  6 50  0.0010000  0  5 16 24 12 20 13
  23639753.541    -4386925.062 6  -3418378.156 2
  20832189.370     1076272.226 9    838654.656 9
  22046818.006     3327160.359 7   2592592.065 5
  22545853.434    -4272304.322 7  -3329064.211 2
  23567435.808     3848953.636 6   2999184.215 2
 92  2 26  6 50 30.0010000  0  5 16 24 12 20 13
  23624377.177    -4467682.817 6  -3481306.186 2
  20839075.907     1112468.342 9    866859.419 9
  22062299.891     3408444.813 7   2655930.597 4
  22531384.848    -4348332.538 7  -3388306.913 3
  23582313.305     3927134.364 6   3060104.270 1
 92  2 26  6 51  0.0010000  0  5 16 24 12 20 13
  23609050.895    -4548251.105 6  -3544086.607 2
  20846056.273     1149149.729 9    895442.333 9
  22077845.924     3490237.916 7   2719665.479 5
  22516973.830    -4424067.702 7  -3447321.280 2
  23597195.898     4005343.830 6   3121046.743 2
 92  2 26  6 51 30.0010000  0  5 16 24 12 20 13
  23593755.186    -4628642.286 6  -3606729.030 3
  20853128.986     1186310.515 9    924398.794 9
  22093512.782     3572528.510 7   2783787.987 5
  22502621.864    -4499513.356 7  -3506110.061 4
  23612080.602     4083573.320 6   3182004.787 2
 92  2 26  6 52  0.0010000  0  5 16 24 12 20 13
  23578501.445    -4708827.548 6  -3669211.005 2
  20860298.512     1223986.222 9    953756.486 9
  22109274.673     3655340.577 7   2848316.836 4
  22488325.354    -4574636.095 7  -3564647.220 5
  23626974.293     4161848.842 6   3242998.668 2
 92  2 26  6 52 30.0010000  0  5 16 24 12 20 13
  23563266.584    -4788829.870 6  -3731550.378 2
  20867558.885     1262141.363 9    983487.778 9
  22125121.705     3738648.549 7   2913232.131 4
  22474077.722    -4649481.419 7  -3622968.191 5
  23641879.676     4240147.259 6   3304010.442 1
 92  2 26  6 53  0.0010000  0  5 16 24 12 20 13
  23548080.306    -4868645.826 6  -3793744.565 2
  20874909.807     1300779.354 9   1013595.305 9
  22141074.851     3822454.034 7   2978535.089 4
  22459887.345    -4724062.688 7  -3681083.400 4
  23656782.354     4318472.813 6   3365043.343 1
 92  2 26  6 53 30.0010000  0  5 16 24 12 20 13
  23532935.384    -4948260.359 6  -3855781.813 3
  20882359.043     1339917.244 9   1044092.358 9
  22157122.751     3906765.269 7   3044232.129 5
  22445743.734    -4798386.084 7  -3738997.693 4
  23671696.130     4396835.787 6   3426105.377 3
 92  2 26  6 54  0.0010000  0  5 16 24 12 20 13
  23517837.246    -5027668.595 6  -3917658.296 1
  20889900.329     1379544.658 9   1074970.859 9
  22173251.569     3991571.951 7   3110315.234 4
  22431646.000    -4872461.550 7  -3796718.790 5
  23686612.907     4475228.082 6   3487190.220
 92  2 26  6 54 30.0010000  0  5 16 24 12 20 13
  23502765.475    -5106864.357 6  -3979369.235 2
  20897536.335     1419670.357 9   1106237.637 8
  22189486.833     4076875.937 7   3176785.864 4
  22417598.313    -4946273.195 7  -3854234.312 5
  23701535.374     4553654.150 6   3548301.419 2
 92  2 26  6 55  0.0010000  0  5 16 24 12 20 13
  23487735.079    -5185839.772 6  -4040908.426 2
  20905265.577     1460294.822 9   1137893.048 9
  22205817.724     4162674.702 7   3243642.027 5
  22403612.399    -5019796.078 7  -3911524.831 4
  23716463.529     4632113.794 6   3609438.775 3
 92  2 26  6 55 30.0010000  0  5 16 24 12 20 13
  23472745.464    -5264568.447 6  -4102255.406 3
  20913093.169     1501419.202 9   1169938.015 9
  22222239.460     4248977.391 7   3310890.840 5
  22389693.041    -5092988.138 7  -3968557.547 4
  23731403.097     4710618.350 6   3670611.090 3
 92  2 26  6 56  0.0010000  0  5 16 24 12 20 13
  23457796.910    -5343067.262 6  -4163423.276 4
  20921007.087     1543015.794 9   1202350.933 9
  22238755.935     4335764.859 7   3378517.417 5
  22375818.042    -5165847.845 7  -4025331.296 4
  23746348.650     4789151.464 6   3731805.696 2
 92  2 26  6 56 30.0010000  0  5 16 24 12 20 13
  23442894.215    -5421380.196 6  -4224446.275 3
  20929004.051     1585037.687 9   1235095.268 9
  22255349.434     4422990.777 7   3446485.659 4
  22362007.800    -5238419.626 7  -4081880.716 4
  23761286.996     4867669.435 6   3792988.543 2
 92  2 26  6 57  0.0010000  0  5 16 24 12 20 13
  23428031.114    -5499518.228 6  -4285332.972 2
  20937074.166     1627453.112 9   1268146.223 9
  22272026.589     4510628.437 7   3514774.714 5
  22348249.734    -5310734.597 7  -4138230.017 5
  23776223.562     4946148.119 6   3854140.729 2
 92  2 26  6 57 30.0010000  0  5 16 24 12 20 13
  23413205.182    -5577385.267 6  -4346008.513 3
  20945241.408     1670355.202 9   1301576.404 9
  22288792.794     4598767.262 7   3583454.283 4
  22334554.018    -5382700.896 8  -4194307.615 4
  23791168.225     5024679.545 6   3915334.007 2
 92  2 26  6 58  0.0010000  0  5 16 24 12 20 13
  23398437.098    -5655042.413 6  -4406520.532 3
  20953481.803     1713677.752 9   1335334.221 9
  22305655.218     4687343.250 7   3652474.502 5
  22320908.663    -5454396.718 7  -4250174.449 5
  23806110.777     5103202.417 6   3976520.640 1
 92  2 26  6 58 30.0010000  0  5 16 24 12 20 13
  23383702.308    -5732470.773 6  -4466854.240 3
  20961809.745     1757434.116 9   1369430.083 8
  22322595.890     4776367.142 7   3721843.766 4
  22307320.859    -5525805.275 8  -4305817.442 5
  23821056.033     5181729.697 6   4037710.748 2
 92  2 26  6 59  0.0010000  0  5 16 24 12 20 13
  23369011.563    -5809692.824 6  -4527027.184 2
  20970213.525     1801597.440 9   1403843.064 8
  22339625.295     4865806.472 7   3791536.744 5
  22293782.230    -5596940.773 7  -4361247.667 5
  23835995.584     5260231.376 6   4098880.904 2
 92  2 26  6 59 30.0010000  0  5 16 24 12 20 13
  23354353.817    -5886711.450 6  -4587041.656 2
  20978694.959     1846171.068 9   1438575.757 8
  22356716.475     4955658.647 7   3861551.387 4
  22280302.373    -5667799.671 8  -4416462.366 5
  23850923.442     5338707.554 6   4160031.082 3
 92  2 26  7  0  0.0010000  0  5 16 24 12 20 13
  23339741.336    -5963493.713 6  -4646871.960 3
  20987262.423     1891196.693 9   1473660.644 9
  22373900.873     5045957.524 7   3931914.137 4
  22266878.862    -5738352.322 8  -4471438.431 4
  23865864.511     5417194.765 6   4221189.873 1
 92  2 26  7  0 30.0010000  0  5 16 24 12 20 13
  23325182.218    -6039992.607 6  -4706481.412 2
  20995932.720     1936744.567 9   1509152.493 8
  22391185.401     5136757.401 7   4002667.283 4
  22253518.313    -5808526.785 8  -4526119.785 4
  23880812.158     5495750.455 6   4282402.084 2
 92  2 26  7  1  0.0010000  0  5 16 24 12 20 13
  23310666.865    -6116268.802 6  -4765917.354 2
  21004683.656     1982743.572 9   1544995.875 9
  22408535.891     5227993.850 7   4073760.591 4
  22240228.506    -5878387.282 8  -4580556.498 4
  23895763.103     5574312.576 6   4343619.371 2
 92  2 26  7  1 30.0010000  0  5 16 24 12 20 13
  23296195.574    -6192330.720 6  -4825186.292 2
  21013519.451     2029170.627 9   1581172.808 9
  22425987.103     5319656.842 7   4145186.268 4
  22226988.171    -5947961.229 8  -4634769.914 6
  23910712.862     5652873.851 6   4404835.880 2
 92  2 26  7  2  0.0010000  0  5 16 24 12 20 13
  23281777.070    -6268101.080 6  -4884228.082 3
  21022448.169     2076086.052 9   1617730.267 9
  22443513.579     5411822.535 7   4217003.681 5
  22213820.097    -6017167.383 8  -4688696.751 6
  23925669.199     5731513.238 6   4466113.288 2
 92  2 26  7  2 30.0010000  0  5 16 24 12 20 13
  23267392.122    -6343688.579 6  -4943127.406 3
  21031441.331     2123346.904 9   1654556.919 9
  22461129.975     5504359.894 7   4289110.696 4
  22200694.584    -6086127.229 8  -4742431.658 4
  23940625.850     5810102.536 6   4527351.620 2
 92  2 26  7  3  0.0010000  0  5 16 24 12 20 13
  23253049.143    -6419037.975 6  -5001841.126 2
  21040502.566     2170977.133 9   1691671.382 8
  22478811.443     5597295.599 7   4361528.095 5
  22187620.637    -6154822.077 8  -4795960.053 3
  23955584.002     5888671.413 6   4588574.108 1
 92  2 26  7  3 30.0010000  0  5 16 24 12 20 13
  23238774.236    -6494103.169 6  -5060333.408 3
  21049647.126     2219033.877 9   1729118.203 9
  22496586.130     5690665.282 7   4434283.672 4
  22174610.540    -6223204.744 8  -4849245.210 4
  23970539.432     5967258.245 6   4649810.645 2
 92  2 26  7  4  0.0010000  0  5 16 24 12 20 13
  23224540.094    -6568894.387 6  -5118612.216 3
  21058877.436     2267523.091 9   1766902.019 8
  22514432.782     5784449.414 7   4507362.197 4
  22161658.604    -6291265.853 8  -4902279.799 5
  23985491.582     6045845.861 6   4711047.709 2
 92  2 26  7  4 30.0010000  0  5 16 24 12 20 13
  23210357.499    -6643400.089 6  -5176668.568 3
  21068191.996     2316481.907 9   1805051.736 9
  22532352.271     5878654.031 7   4580768.363 4
  22148775.928    -6358985.175 8  -4955048.064 6
  24000446.732     6124443.156 6   4772292.409 1
 92  2 26  7  5  0.0010000  0  5 16 24 12 20 13
  23196236.381    -6717649.872 6  -5234525.478 2
  21077597.680     2365908.819 9   1843566.242 9
  22550350.617     5973268.713 7   4654494.064 5
  22135952.008    -6426362.192 8  -5007549.582 3
  24015404.884     6203043.058 6   4833539.061 2
 92  2 26  7  5 30.0010000  0  5 16 24 12 20 13
  23182149.135    -6791661.397 6  -5292196.732 2
  21087090.320     2415798.147 9   1882441.036 9
  22568445.498     6068290.891 7   4728537.289 3
  22123197.329    -6493382.000 8  -5059772.766 5
  24030355.830     6281645.746 6   4894787.868 2
 92  2 26  7  6  0.0010000  0  5 16 24 12 20 13
  23168104.153    -6865440.916 6  -5349687.215 4
  21096670.175     2466134.441 9   1921664.121 8
  22586605.416     6163719.617 7   4802897.322 3
  22110511.911    -6560036.881 8  -5111711.604 6
  24045316.076     6360252.789 6   4956040.035 1
 92  2 26  7  6 30.0010000  0  5 16 24 12 20 13
  23154109.846    -6938993.252 6  -5407000.696 2
  21106328.295     2516887.586 9   1961212.006 9
  22604831.296     6259545.695 7   4877566.974 3
  22097892.455    -6626342.750 8  -5163378.486 5
  24060279.323     6438858.145 5   5017290.981 2
 92  2 26  7  7  0.0010000  0  5 16 24 12 20 13
  23140163.806    -7012296.851 6  -5464120.337 4
  21116063.754     2568036.049 9   2001067.950 8
  22623162.419     6355774.156 7   4952550.143 4
  22085345.539    -6692307.029 8  -5214779.176 5
  24075240.756     6517469.619 5   5078546.670 2
 92  2 26  7  7 30.0010000  0  5 16 24 12 20 13
  23126264.813    -7085328.994 6  -5521028.432 3
  21125868.769     2619573.405 9   2041226.914 9
  22641536.992     6452404.783 7   5027846.688 4
  22072851.985    -6757931.365 8  -5265914.997 5
  24090204.004     6596090.387 5   5139809.569 4
 92  2 26  7  8  0.0010000  0  5 16 24 12 20 13
  23112416.512    -7158074.731 6  -5577713.365 2
  21135749.327     2671489.071 9   2081680.671 8
  22660002.114     6549429.983 7   5103450.730 4
  22060427.989    -6823227.447 8  -5316795.029 5
  24105162.749     6674715.531 5   5201075.898 1
 92  2 26  7  8 30.0010000  0  5 16 24 12 20 13
  23098632.044    -7230524.967 6  -5634168.079 3
  21145701.832     2723787.947 9   2122433.044 9
  22678542.464     6646847.010 7   5179360.080 4
  22048066.935    -6888206.579 8  -5367428.079 5
  24120126.276     6753345.799 5   5262346.319 1
 92  2 26  7  9  0.0010000  0  5 16 24 12 20 13
  23084900.363    -7302683.461 6  -5690395.413 3
  21155725.691     2776479.143 9   2163491.114 9
  22697149.387     6744653.746 7   5255573.051 4
  22035764.950    -6952848.359 8  -5417798.280 5
  24135086.226     6831981.349 6   5323620.675 2
 92  2 26  7  9 30.0010000  0  5 16 24 12 20 13
  23071223.231    -7374559.673 6  -5746402.791 4
  21165828.407     2829572.023 9   2204862.179 8
  22715836.058     6842842.730 7   5332083.924 4
  22023533.430    -7017131.344 8  -5467888.890 6
  24150054.272     6910617.941 6   5384895.875 2
 92  2 26  7 10  0.0010000  0  5 16 24 12 20 13
  23057600.649    -7446147.738 6  -5802185.623 3
  21176012.354     2883077.966 9   2246555.108 8
  22734594.361     6941412.058 7   5408891.181 4
  22011368.447    -7081049.996 8  -5517695.619 6
  24165013.611     6989256.597 6   5446172.689 2
 92  2 26  7 10 30.0010000  0  5 16 24 12 20 13
  23044027.852    -7517450.637 6  -5857746.272 4
  21186273.640     2936990.632 9   2288564.965 8
  22753427.334     7040354.591 7   5485989.227 4
  21999267.628    -7144599.566 8  -5567214.733 6
  24179980.453     7067893.920 6   5507448.449 1
 92  2 26  7 11  0.0010000  0  5 16 24 12 20 13
  23030520.406    -7588448.017 6  -5913068.874 5
  21196608.096     2991312.635 9   2330893.807 9
  22772326.845     7139674.814 7   5563381.576 3
  21987245.946    -7207772.998 8  -5616440.762 6
  24194950.280     7146537.038 6   5568728.960 2
 92  2 26  7 11 30.0010000  0  5 16 24 12 20 13
  23017073.809    -7659124.667 6  -5968141.527 3
  21207021.687     3046040.925 9   2373539.201 9
  22791294.411     7239369.495 7   5641065.684 3
  21975302.215    -7270592.928 8  -5665391.328 5
  24209909.025     7225185.738 5   5630013.626 1
 92  2 26  7 12  0.0010000  0  6 16 24 12 20  3 13
  23003685.985    -7729482.451 6  -6022965.721 3
  21217509.617     3101159.511 9   2416488.738 9
  22810329.440     7339431.056 7   5719035.744 3
  21963410.956    -7333081.770 8  -5714083.914 5
  24995163.501     -149310.522 5   -116346.104 2
  24224878.572     7303835.966 6   5691299.320 1
 92  2 26  7 12 30.0010000  0  6 16 24 12 20  3 13
  22990361.400    -7799526.146 7  -6077545.159 3
  21228073.717     3156658.338 9   2459734.547 9
  22829436.417     7439855.346 6   5797288.417 4
  21951583.233    -7395240.336 8  -5762519.149 6
  24984125.453     -207320.639 5   -161548.802 3
  24239840.912     7382486.481 6   5752585.252 2
 92  2 26  7 13  0.0010000  0  6 16 24 12 20  3 13
  22977082.098    -7869265.033 6  -6131887.116 3
  21238706.449     3212540.309 9   2503278.923 9
  22848627.625     7540635.440 7   5875818.313 4
  21939815.190    -7457069.946 8  -5810698.060 6
  24973097.893     -265244.713 5   -206684.417 1
  24254806.847     7461133.464 5   5813868.586 2
 92  2 26  7 13 30.0010000  0  6 16 24 12 20  3 13
  22963872.650    -7938705.251 6  -6185996.327 4
  21249415.630     3268804.243 9   2547120.923 9
  22867866.211     7641767.736 7   5954622.658 4
  21928113.685    -7518553.975 8  -5858607.664 5
  24962095.792     -323083.681 5   -251753.955 2
  24269779.378     7539776.110 5   5875148.757 2
 92  2 26  7 14  0.0010000  0  6 16 24 12 20  3 13
  22950712.952    -8007842.252 6  -6239869.271 3
  21260192.571     3325448.064 9   2591258.958 8
  22887172.539     7743249.265 6   6033699.141 3
  21916477.531    -7579675.665 8  -5906234.933 5
  24951104.807     -380837.509 5   -296756.883 2
  24284739.328     7618415.068 5   5936425.727 2
 92  2 26  7 14 30.0010000  0  6 16 24 12 20  3 13
  22937613.824    -8076671.991 6  -6293502.776 3
  21271046.257     3382479.257 9   2635698.817 8
  22906547.219     7845078.101 7   6113046.275 3
  21904923.532    -7640410.388 8  -5953560.678 5
  24940129.702     -438505.669 5   -341693.147 1
  24299701.668     7697051.425 5   5997700.725 2
 92  2 26  7 15  0.0010000  0  6 16 24 12 20  3 13
  22924577.639    -8145188.861 7  -6346892.486 2
  21281971.298     3439891.984 9   2680435.989 9
  22925995.958     7947250.831 7   6192661.338 5
  21893446.890    -7700747.990 8  -6000576.995 6
  24929169.901     -496088.539 4   -386563.085 3
  24314667.603     7775684.746 5   6058973.331 3
 92  2 26  7 15 30.0010000  0  6 16 24 12 20  3 13
  22911598.725    -8213393.618 6  -6400039.025 4
  21292968.878     3497676.821 9   2725463.110 9
  22945506.750     8049758.614 7   6272537.484 4
  21882034.081    -7760693.024 8  -6047287.384 6
  24918232.872     -553592.528 4   -431371.399 2
  24329632.945     7854309.729 5   6120239.505 1
 92  2 26  7 16  0.0010000  0  6 16 24 12 20  3 13
  22898677.083    -8281287.283 6  -6452943.151 4
  21304034.219     3555835.111 9   2770781.244 8
  22965075.703     8152600.591 6   6352674.079 3
  21870702.521    -7820249.334 8  -6093694.881 6
  24907294.046     -611015.442 4   -476116.704 2
  24344595.896     7932928.604 5   6181501.030 1
 92  2 26  7 16 30.0010000  0  6 16 24 12 20  3 13
  22885817.477    -8348879.316 6  -6505612.225 4
  21315170.616     3614364.341 9   2816388.418 9
  22984705.523     8255771.683 6   6433067.118 4
  21859441.127    -7879424.653 8  -6139805.511 6
  24896396.577     -668359.609 5   -520800.429 2
  24359549.528     8011539.740 5   6242756.471 2
 92  2 26  7 17  0.0010000  0  6 16 24 12 20  3 13
  22873010.640    -8416162.567 6  -6558040.667 2
  21326380.461     3673260.787 9   2862281.726 8
  23004399.193     8359269.919 6   6513715.054 3
  21848254.665    -7938231.377 8  -6185628.906 4
  24885492.233     -725624.178 4   -565422.176 1
  24374510.071     8090144.697 5   6304007.011 1
 92  2 26  7 17 30.0010000  0  6 16 24 12 20  3 13
  22860273.063    -8483133.772 7  -6610225.999 4
  21337658.345     3732529.435 9   2908465.073 9
  23024155.212     8463093.085 6   6594616.180 3
  21837128.476    -7996667.933 8  -6231163.861 5
  24874606.176     -782808.700 4   -609981.734 1
  24389470.317     8168744.382 5   6365253.501 2
 92  2 26  7 18  0.0010000  0  6 16 24 12 20  3 13
  22847583.753    -8549790.695 7  -6662166.423 4
  21349005.489     3792158.631 9   2954929.361 8
  23043965.502     8567236.770 6   6675767.100 2
  21826084.111    -8054728.992 8  -6276406.227 6
  24863737.797     -839914.951 3   -654480.102 2
  24404423.670     8247337.182 5   6426494.729 2
 92  2 26  7 18 30.0010000  0  6 16 24 12 20  3 13
  22834965.187    -8616123.348 7  -6713854.179 4
  21360417.984     3852128.498 9   3001659.134 8
  23063855.819     8671692.661 6   6757161.248 3
  21815105.412    -8112400.345 8  -6321344.914 6
  24852891.003     -896948.150 4   -698921.330 2
  24419377.024     8325917.862 5   6487726.356 2
 92  2 26  7 19  0.0010000  0  6 16 24 12 20  3 13
  22822403.874    -8682124.146 7  -6765283.321 2
  21371894.049     3912437.139 9   3048652.885 9
  23083785.137     8776456.037 6   6838794.987 4
  21804208.867    -8169675.700 8  -6365975.036 6
  24842052.010     -953910.311 4   -743307.321 3
  24434327.062     8404485.296 5   6548947.675 1
 92  2 26  7 19 30.0010000  0  6 16 24 12 20  3 13
  22809904.336    -8747787.567 7  -6816449.588 3
  21383435.763     3973084.591 9   3095910.640 9
  23103783.086     8881524.283 6   6920666.285 3
  21793385.754    -8226550.090 8  -6410292.720 6
  24831221.707    -1010801.226 3   -787637.867 2
  24449269.927     8483040.465 5   6610159.380 2
 92  2 26  7 20  0.0010000  0  6 16 24 12 20  3 13
  22797477.634    -8813105.758 7  -6867346.834 4
  21395041.013     4034070.731 9   3143432.289 8
  23123834.695     8986897.490 6   7002775.299 2
  21782642.091    -8283023.658 8  -6454298.048 6
  24820412.693    -1067617.925 4   -831910.383 2
  24464221.169     8561586.500 5   6671364.217 1
 92  2 26  7 20 30.0010000  0  6 16 24 12 20  3 13
  22785115.394    -8878073.229 7  -6917970.794 5
  21406712.539     4095413.227 9   3191231.631 8
  23143952.283     9092573.291 6   7085120.045 5
  21771964.076    -8339114.588 8  -6498005.243 6
  24809615.353    -1124359.688 4   -876124.712 2
  24479169.724     8640125.073 5   6732563.059 2
 92  2 26  7 21  0.0010000  0  6 16 24 12 20  3 13
  22772816.114    -8942695.178 7  -6968325.535 4
  21418455.715     4157124.128 9   3239318.043 8
  23164109.117     9198549.771 6   7167699.047 3
  21761363.121    -8394840.542 8  -6541428.053 6
  24798839.024    -1181025.990 3   -920280.213 1
  24494108.977     8718657.194 5   6793756.842 2
 92  2 26  7 21 30.0010000  0  6 16 24 12 20  3 13
  22760583.669    -9006969.458 7  -7018409.340 3
  21430266.633     4219189.765 9   3287680.859 8
  23184338.509     9304821.299 6   7250507.974 3
  21750831.705    -8450197.901 8  -6584563.631 6
  24788054.894    -1237619.496 3   -964378.801 2
  24509047.638     8797180.378 5   6854943.732 1
 92  2 26  7 22  0.0010000  0  6 16 24 12 20  3 13
  22748418.406    -9070895.435 7  -7068221.739 3
  21442142.606     4281603.974 9   3336315.312 7
  23204619.780     9411383.878 7   7333543.750 2
  21740364.157    -8505182.475 8  -6627408.743 6
  24777299.539    -1294141.488 4  -1008421.877 3
  24523993.191     8875694.266 5   6916123.464 1
 92  2 26  7 22 30.0010000  0  6 16 24 12 20  3 13
  22736328.075    -9134476.120 7  -7117765.100 4
  21454086.041     4344359.341 9   3385215.585 8
  23224946.300     9518233.590 6   7416803.252 4
  21729973.652    -8559777.911 8  -6669950.630 7
  24766560.675    -1350592.556 4  -1052409.651 2
  24538937.243     8954198.507 5   6977295.536 2
 92  2 26  7 23  0.0010000  0  6 16 24 12 20  3 13
  22724292.608    -9197706.492 7  -7167035.491 5
  21466086.137     4407427.318 9   3434359.451 8
  23245336.391     9625367.105 7   7500283.840 2
  21719666.489    -8613950.428 8  -6712162.960 6
  24755834.689    -1406973.595 4  -1096342.707 3
  24553864.805     9032692.646 5   7038459.703 2
 92  2 26  7 23 30.0010000  0  6 16 24 12 20  3 13
  22712327.290    -9260578.663 7  -7216026.770 4
  21478149.490     4470814.137 9   3483751.769 7
  23265752.552     9732782.830 6   7583984.343 2
  21709440.574    -8667685.549 8  -6754034.461 6
  24745120.413    -1463283.585 4  -1140220.543 2
  24568812.469     9111178.765 5   7099617.578 2
 92  2 26  7 24  0.0010000  0  6 16 24 12 20  3 13
  22700431.826    -9323098.452 7  -7264743.446 5
  21490273.692     4534526.267 9   3533397.594 7
  23286270.954     9840476.111 6   7667901.209 3
  21699296.797    -8720987.712 8  -6795568.595 6
  24734416.327    -1519523.933 5  -1184044.091 2
  24583738.531     9189655.851 5   7160768.565 1
 92  2 26  7 24 30.0010000  0  6 16 24 12 20  3 13
  22688596.913    -9385268.636 7  -7313187.707 4
  21502457.556     4598563.956 9   3583297.064 7
  23306822.320     9948445.725 6   7752033.328 4
  21689238.753    -8773856.846 8  -6836765.298 6
  24723725.416    -1575693.054 4  -1227812.094 4
  24598666.703     9268125.988 5   7221914.226 2
 92  2 26  7 25  0.0010000  0  6 16 24 12 20  3 13
  22676836.060    -9447078.030 7  -7361350.839 3
  21514707.678     4662935.015 9   3633456.354 7
  23327411.169    10056690.780 6   7836380.088 5
  21679254.768    -8826311.307 8  -6877638.889 6
  24713048.012    -1631789.082 4  -1271523.234 1
  24613593.672     9346592.149 5   7283056.562 3
 92  2 26  7 25 30.0010000  0  6 16 24 12 20  3 13
  22665145.042    -9508521.664 7  -7409228.966 5
  21527025.246     4727655.122 9   3683887.596 7
  23348056.382    10165208.994 6   7920939.667 4
  21669349.327    -8878366.407 8  -6918201.265 6
  24702390.693    -1687811.202 5  -1315176.610 1
  24628531.128     9425054.626 5   7344196.124 2
 92  2 26  7 26  0.0010000  0  6 16 24 12 20  3 13
  22653520.301    -9569591.230 7  -7456815.614 5
  21539403.384     4792706.379 9   3734576.875 8
  23368764.241    10273998.192 6   8005710.504 1
  21659522.725    -8930027.953 9  -6958456.995 6
  24691746.252    -1743758.917 5  -1358772.179 3
  24643462.285     9503515.430 5   7405334.511 2
 92  2 26  7 26 30.0010000  0  6 16 24 12 20  3 13
  22641976.493    -9630270.802 7  -7504098.372 4
  21551844.167     4858080.871 9   3785518.025 7
  23389512.882    10383053.802 6   8090688.847 2
  21649760.585    -8981287.505 8  -6998399.495 6
  24681114.114    -1799634.012 5  -1402311.187 3
  24658392.255     9581973.003 5   7466470.278 2
 92  2 26  7 27  0.0010000  0  6 16 24 12 20  3 13
  22630503.429    -9690540.482 7  -7551061.723 4
  21564346.114     4923782.236 9   3836713.882 8
  23410324.168    10492373.762 6   8175873.174 4
  21640090.774    -9032130.872 8  -7038017.680 6
  24670488.571    -1855435.653 5  -1445792.896 1
  24673324.319     9660429.192 5   7527604.799 3
 92  2 26  7 27 30.0010000  0  6 16 24 12 20  3 13
  22619114.020    -9750413.248 7  -7597715.775 4
  21576912.522     4989804.993 9   3888160.177 7
  23431172.345    10601952.640 6   8261259.256 4
  21630499.209    -9082535.970 9  -7077294.366 6
  24659883.411    -1911165.993 5  -1489218.963 2
  24688243.784     9738881.304 5   7588736.199 3
 92  2 26  7 28  0.0010000  0  6 16 24 12 20  3 13
  22607791.743    -9809904.232 7  -7644072.356 4
  21589535.277     5056141.506 9   3939850.973 7
  23452069.975    10711783.135 6   8346841.458 1
  21620990.393    -9132494.553 8  -7116223.117 7
  24649292.350    -1966829.680 5  -1532593.239 3
  24703169.845     9817326.296 4   7649862.079 2
 92  2 26  7 28 30.0010000  0  6 16 24 12 20  3 13
  22596541.134    -9869017.091 7  -7690134.306 5
  21602217.694     5122795.252 9   3991788.950 8
  23473020.061    10821859.868 6   8432615.512 4
  21611573.610    -9181991.028 8  -7154791.781 7
  24638715.965    -2022429.094 5  -1575917.277 1
  24718094.423     9895762.477 5   7710980.967 1
 92  2 26  7 29  0.0010000  0  6 16 24 12 20  3 13
  22585363.973    -9927774.190 7  -7735919.026 4
  21614960.069     5189760.228 9   4043969.433 7
  23494010.038    10932173.842 6   8518574.393 4
  21602242.578    -9231032.721 8  -7193006.065 6
  24628146.490    -2077970.497 5  -1619196.188 2
  24733018.094     9974183.945 5   7772088.458 2
 92  2 26  7 29 30.0010000  0  6 16 24 12 20  3 13
  22574249.476    -9986189.529 7  -7781437.424 3
  21627759.420     5257026.052 9   4096384.341 7
  23515047.375    11042718.672 6   8604713.174 2
  21592994.573    -9279632.878 9  -7230876.297 7
  24617592.599    -2133456.784 5  -1662432.228 2
  24747953.456    10052588.019 5   7833182.405 2
 92  2 26  7 30  0.0010000  0  6 16 24 12 20  3 13
  22563200.329   -10044235.975 7  -7826668.388 5
  21640618.712     5324593.060 8   4149033.935 7
  23536129.978    11153499.447 6   8691035.806 2
  21583823.628    -9327800.182 8  -7268409.253 7
  24607046.490    -2188880.734 5  -1705619.688 2
  24762870.827    10130983.194 5   7894269.477 2
 92  2 26  7 30 30.0010000  0  6 16 24 12 20  3 13
  22552226.411   -10101902.750 7  -7871603.499 5
  21653531.664     5392453.290 8   4201912.038 7
  23557253.361    11264511.748 6   8777538.898 2
  21574739.621    -9375540.455 8  -7305609.448 7
  24596503.697    -2244243.673 5  -1748759.415 1
  24777780.694    10209368.857 5   7955349.089 3
 92  2 26  7 31  0.0010000  0  6 16 24 12 20  3 13
  22541327.459   -10159187.647 7  -7916241.044 5
  21666500.090     5460608.832 9   4255020.240 7
  23578423.198    11375756.068 6   8864222.720 2
  21565736.844    -9422856.602 9  -7342479.153 7
  24585980.081    -2299542.022 5  -1791849.000 1
  24792689.986    10287748.743 5   8016424.145 2
 92  2 26  7 31 30.0010000  0  6 16 24 12 20  3 13
  22530504.659   -10216074.532 7  -7960568.464 4
  21679524.270     5529051.243 9   4308351.999 7
  23599634.112    11487227.384 6   8951083.431 2
  21556812.628    -9469754.773 9  -7379023.155 5
  24575462.765    -2354777.772 5  -1834890.023
  24807620.549    10366121.406 5   8077493.516 2
 92  2 26  7 32  0.0010000  0  6 16 24 12 20  3 13
  22519751.399   -10272544.950 7  -8004571.347 4
  21692605.721     5597786.327 9   4361911.788 7
  23620885.493    11598926.547 6   9038121.757 2
  21547970.254    -9516218.701 8  -7415228.779 6
  24564972.130    -2409947.409 5  -1877879.359 2
  24822519.929    10444490.864 4   8138560.489 2
 92  2 26  7 32 30.0010000  0  6 16 24 12 20  3 13
  22509088.391   -10328591.690 7  -8048244.092 5
  21705742.035     5666826.482 9   4415709.284 7
  23642187.253    11710852.874 6   9125337.050 2
  21539215.113    -9562228.781 9  -7451080.767 7
  24554485.684    -2465048.671 5  -1920815.454 3
  24837454.680    10522860.496 5   8199627.628 2
 92  2 26  7 33  0.0010000  0  6 16 24 12 20  3 13
  22498506.300   -10384203.105 7  -8091577.625 5
  21718937.698     5736170.149 9   4469743.282 6
  23663531.574    11823002.554 6   9212726.362 3
  21530540.610    -9607789.990 9  -7486582.994 7
  24544019.636    -2520082.586 5  -1963698.964 2
  24852349.279    10601230.015 4   8260694.708 1
 92  2 26  7 33 30.0010000  0  6 16 24 12 20  3 13
  22488007.271   -10439375.345 7  -8134568.952 3
  21732191.225     5805816.728 8   4524013.332 7
  23684910.674    11935371.877 6   9300286.802 1
  21521962.956    -9652899.378 9  -7521733.155 7
  24533549.384    -2575049.619 5  -2006530.192 2
  24867260.647    10679599.396 5   8321761.554 1
 92  2 26  7 34  0.0010000  0  6 16 24 12 20  3 13
  22477591.585   -10494111.115 7  -8177220.178 4
  21745503.508     5875771.942 9   4578523.872 7
  23706340.448    12047957.216 6   9388015.691 2
  21513462.937    -9697540.575 8  -7556518.497 6
  24523115.096    -2629950.528 5  -2049310.065 4
  24882179.222    10757968.484 5   8382828.612 2
 92  2 26  7 34 30.0010000  0  6 16 24 12 20  3 13
  22467255.350   -10548427.828 7  -8219544.853 2
  21758871.544     5946026.148 9   4633267.377 8
  23727796.294    12160752.545 6   9475908.132 2
  21505056.452    -9741721.785 9  -7590945.390 6
  24512672.135    -2684788.448 5  -2092040.739 1
  24897093.905    10836335.168 5   8443893.508 2
 92  2 26  7 35  0.0010000  0  6 16 24 12 20  3 13
  22456997.048   -10602333.630 7  -8261549.333 4
  21772298.649     6016580.200 9   4688244.562 7
  23749308.504    12273759.789 6   9563965.687 2
  21496744.721    -9785445.669 9  -7625015.928 6
  24502248.038    -2739558.639 4  -2134718.710 2
  24912004.680    10914704.822 5   8504960.687 3
 92  2 26  7 35 30.0010000  0  6 16 24 12 20  3 13
  22446819.994   -10655828.428 7  -8303233.562 5
  21785786.306     6087446.550 9   4743465.074 7
  23770850.675    12386978.377 6   9652187.945 1
  21488504.920    -9828697.833 9  -7658718.903 7
  24491842.857    -2794258.384 4  -2177341.884 2
  24926922.348    10993080.238 5   8566032.259 1
 92  2 26  7 36  0.0010000  0  6 16 24 12 20  3 13
  22436722.373   -10708893.218 7  -8344582.724 5
  21799329.437     6158625.183 9   4798928.919 6
  23792437.240    12500408.184 6   9740574.814 3
  21480365.249    -9871484.188 9  -7692058.906 7
  24481446.052    -2848885.117 5  -2219908.005 2
  24941822.042    11071464.630 5   8627110.776
 92  2 26  7 36 30.0010000  0  6 16 24 12 20  3 13
  22426706.907   -10761517.222 7  -8385588.421 5
  21812931.027     6230107.442 8   4854629.372 7
  23814060.974    12614043.450 6   9829121.709 3
  21472312.828    -9913821.260 9  -7725048.821 7
  24471063.626    -2903441.475 5  -2262419.346 2
  24956741.507    11149856.191 4   8688194.998 2
 92  2 26  7 37  0.0010000  0  6 16 24 12 20  3 13
  22416782.288   -10813679.403 7  -8426234.256 5
  21826591.965     6301885.221 8   4910560.109 6
  23835722.767    12727877.945 6   9917823.819 2
  21464338.340    -9955702.962 9  -7757683.894 6
  24460695.021    -2957931.095 5  -2304878.766 3
  24971669.679    11228252.666 4   8749283.079 2
 92  2 26  7 37 30.0010000  0  6 16 24 12 20  3 13
  22406946.089   -10865369.542 7  -8466512.245 4
  21840302.078     6373938.034 8   4966705.138 6
  23857418.745    12841905.498 6  10006676.449 3
  21456457.700    -9997117.660 9  -7789955.065 6
  24450337.183    -3012356.977 5  -2347288.420 1
  24986585.550    11306651.162 4   8810372.678 2
 92  2 26  7 38  0.0010000  0  6 16 24 12 20  3 13
  22397192.953   -10916597.390 7  -8506430.024 4
  21854060.457     6446247.767 8   5023050.389 6
  23879162.100    12956122.298 6  10095676.575 2
  21448670.296   -10038054.579 9  -7821853.944 7
  24439991.943    -3066719.820 5  -2389648.912 1
  25001495.731    11385051.823 4   8871463.956 2
 92  2 26  7 38 30.0010000  0  6 16 24 12 20  3 13
  22387531.832   -10967385.424 7  -8546005.092 5
  21867868.588     6518804.396 8   5079588.009 7
  23900934.231    13070522.108 6  10184819.221 2
  21440972.830   -10078486.824 9  -7853359.584 7
  24429666.196    -3121023.238 5  -2431963.260 1
  25016410.991    11463452.014 4   8932554.786 1
 92  2 26  7 39  0.0010000  0  6 16 24 12 20  3 13
  22377945.677   -11017751.657 7  -8585251.489 5
  21881723.206     6591606.619 8   5136317.003 6
  23922731.839    13185100.287 6  10274100.835 3
  21433379.682   -10118396.485 9  -7884458.022 7
  24419335.946    -3175268.572 5  -2474232.295 3
  25031360.453    11541850.793 4   8993644.603 2
 92  2 26  7 39 30.0010000  0  5 16 24 12 20  3
  22368441.346   -11067706.678 7  -8624177.464 5
  21895625.777     6664665.259 8   5193245.785 7
  23944565.429    13299852.954 6  10363518.484 3
  21425880.364   -10157787.170 9  -7915152.054 7
  24409020.983    -3229457.071 5  -2516456.904 3
 92  2 26  7 40  0.0010000  0  5 16 24 12 20  3
  22359013.185   -11117252.058 7  -8662784.218 4
  21909579.616     6737988.530 8   5250380.738 7
  23966432.279    13414777.805 6  10453070.312 2
  21418485.695   -10196659.476 9  -7945442.160 7
  24398728.513    -3283587.767 5  -2558636.619 3
 92  2 26  7 40 30.0010000  0  5 16 24 12 20  3
  22349663.847   -11166373.221 7  -8701060.420 4
  21923583.521     6811585.456 8   5307728.945 7
  23988336.019    13529875.753 6  10542756.956 2
  21411182.744   -10235029.840 9  -7975341.143 7
  24388432.448    -3337656.803 5  -2600768.290 1
 92  2 26  7 41  0.0010000  0  5 16 24 12 20  3
  22340403.261   -11215048.555 7  -8738989.230 6
  21937639.881     6885452.498 8   5365287.661 6
  24010269.442    13645142.246 6  10632574.940 2
  21403974.233   -10272924.910 9  -8004869.759 7
  24378155.247    -3391666.029 5  -2642853.299 2
 92  2 26  7 41 30.0010000  0  5 16 24 12 20  3
  22331227.518   -11263276.309 7  -8776569.267 5
  21951744.229     6959579.475 8   5423048.924 7
  24032243.629    13760570.948 6  10722519.402 4
  21396844.580   -10310352.289 9  -8034033.948 7
  24367895.165    -3445618.257 5  -2684893.877 2
 92  2 26  7 42  0.0010000  0  5 16 24 12 20  3
  22322132.115   -11311048.175 7  -8813794.079 5
  21965898.327     7033959.559 8   5481007.412 7
  24054230.694    13876163.128 6  10812591.207 2
  21389816.243   -10347306.818 9  -8062829.680 7
  24357634.768    -3499510.020 5  -2726887.429 2
 92  2 26  7 42 30.0010000  0  5 16 24 12 20  3
  22313133.841   -11358347.408 7  -8850650.591 5
  21980106.696     7108606.552 8   5539173.880 7
  24076258.261    13991916.613 6  10902788.664 3
  21382875.437   -10383800.104 9  -8091265.995 7
  24347390.548    -3553339.799 5  -2768832.653 2
 92  2 26  7 43  0.0010000  0  5 16 24 12 20  3
  22304221.002   -11405173.174 7  -8887138.170 4
  21994364.222     7183522.072 8   5597549.557 6
  24098316.977    14107825.724 6  10993107.366 3
  21376020.694   -10419822.034 9  -8119335.035 7
  24337160.742    -3607110.718 5  -2810731.921 2
 92  2 26  7 43 30.0010000  0  5 16 24 12 20  3
  22295399.010   -11451534.363 7  -8923263.748 5
  22008671.219     7258712.034 8   5656139.109 7
  24120402.984    14223886.426 6  11083544.301 2
  21369258.264   -10455356.371 9  -8147024.115 7
  24326935.106    -3660823.855 5  -2852586.280 3
 92  2 26  7 44  0.0010000  0  5 16 24 12 20  3
  22286667.270   -11497425.082 7  -8959022.726 5
  22023029.467     7334175.053 8   5714941.368 7
  24142514.487    14340088.651 6  11174091.445 2
  21362584.289   -10490410.164 8  -8174338.755 7
  24316726.275    -3714486.214 5  -2894401.089 3
 92  2 26  7 44 30.0010000  0  5 16 24 12 20  3
  22278028.749   -11542838.993 7  -8994410.169 5
  22037440.800     7409904.910 8   5773951.667 6
  24164656.859    14456431.007 5  11264747.769 3
  21356012.240   -10524964.552 9  -8201264.242 7
  24306527.635    -3768096.025 5  -2936174.856 1
 92  2 26  7 45  0.0010000  0  5 16 24 12 20  3
  22269472.663   -11587789.632 7  -9029436.612 5
  22051894.989     7485871.314 8   5833146.223 6
  24186816.314    14572906.212 5  11355507.601 3
  21349537.022   -10558988.664 9  -8227776.539 7
  24296335.905    -3821657.917 6  -2977911.313 1
 92  2 26  7 45 30.0010000  0  5 16 24 12 20  3
  22261007.423   -11632274.057 7  -9064099.771 5
  22066396.260     7562064.299 8   5892517.340 6
  24209012.642    14689512.288 5  11446369.415 1
  21343162.231   -10592478.597 9  -8253872.595 7
  24286152.255    -3875170.553 5  -3019609.412 4
 92  2 26  7 46  0.0010000  0  5 16 24 12 20  3
  22252628.229   -11676278.083 7  -9098388.590 6
  22080936.479     7638473.500 8   5952056.979 6
  24231223.681    14806250.914 5  11537334.590 1
  21336894.183   -10625432.257 9  -8279550.771 7
  24275975.200    -3928629.225 5  -3061265.450 1
 92  2 26  7 46 30.0010000  0  5 16 24 12 20  3
  22244354.261   -11719794.613 7  -9132297.548 5
  22095518.387     7715107.244 8   6011771.580 7
  24253454.490    14923125.508 5  11628405.645 3
  21330722.041   -10657844.551 8  -8304807.092 6
  24265809.838    -3982027.819 6  -3102874.616 1
 92  2 26  7 47  0.0010000  0  5 16 24 12 20  3
  22236161.523   -11762829.083 7  -9165830.875 5
  22110147.062     7791979.897 8   6071672.317 6
  24275727.861    15040128.925 5  11719577.000 3
  21324652.750   -10689741.844 9  -8329662.111 7
  24255665.154    -4035370.523 6  -3144440.323 3
 92  2 26  7 47 30.0010000  0  5 16 24 12 20  3
  22228065.338   -11805382.405 7  -9198989.274 5
  22124822.206     7869103.458 8   6131768.558 6
  24298013.534    15157255.347 5  11810844.247 2
  21318675.789   -10721159.764 9  -8354143.603 7
  24245524.064    -4088659.780 6  -3185964.373 3
 92  2 26  7 48  0.0010000  0  5 16 24 12 20  3
  22220058.166   -11847454.785 7  -9231772.930 3
  22139546.805     7946476.161 8   6192058.917 7
  24320330.391    15274497.052 5  11902201.372 2
  21312789.656   -10752097.777 9  -8378251.153 8
  24235388.385    -4141900.759 6  -3227450.741 2
 92  2 26  7 48 30.0010000  0  5 16 24 12 20  3
  22212141.560   -11889058.038 7  -9264191.019 5
  22154317.280     8024103.738 8   6252547.945 7
  24342659.829    15391849.130 5  11993644.569 2
  21306996.480   -10782558.245 9  -8401986.588 8
  24225271.586    -4195095.094 5  -3268900.778 3
 92  2 26  7 49  0.0010000  0  5 16 24 12 20  3
  22204312.468   -11930189.596 7  -9296241.556 6
  22169135.726     8101973.247 8   6313225.474 7
  24365012.057    15509310.967 5  12085173.142 4
  21301290.818   -10812527.565 9  -8425339.306 8
  24215156.899    -4248240.371 5  -3310312.659 2
 92  2 26  7 49 30.0010000  0  5 16 24 12 20  3
  22196579.020   -11970841.490 7  -9327918.339 6
  22183996.139     8180053.757 8   6374067.419 7
  24387389.169    15626874.737 5  12176781.197 2
  21295684.708   -10841979.649 9  -8448288.982 8
  24205049.087    -4301341.589 5  -3351690.100 2
 92  2 26  7 50  0.0010000  0  5 16 24 12 20  3
  22188934.027   -12011009.409 7  -9359217.981 6
  22198889.830     8258337.218 8   6435067.485 6
  24409778.863    15744539.758 5  12268468.115 4
  21290189.216   -10870878.751 9  -8470807.766 7
  24194955.078    -4354396.422 5  -3393031.439 2
 92  2 26  7 50 30.0010000  0  5 16 24 12 20  3
  22181382.847   -12050687.184 7  -9390135.697 5
  22213826.990     8336826.414 8   6496227.907 7
  24432182.953    15862305.356 5  12360233.398 2
  21284793.835   -10899219.757 9  -8492891.660 8
  24184872.761    -4407402.416 5  -3434334.781 3
 92  2 26  7 51  0.0010000  0  5 16 24 12 20  3
  22173926.718   -12089872.507 7  -9420669.686 4
  22228800.114     8415509.423 8   6557539.317 7
  24454617.913    15980161.184 5  12452069.107 2
  21279507.309   -10926996.942 9  -8514536.229 8
  24174785.349    -4460367.082 5  -3475605.903 2
 92  2 26  7 51 30.0010000  0  5 16 24 12 20  3
  22166560.806   -12128576.232 7  -9450828.404 6
  22243811.926     8494394.412 8   6619008.133 6
  24477060.987    16098104.503 6  12543972.978 2
  21274328.085   -10954222.371 9  -8535750.845 8
  24164714.409    -4513290.307 5  -3516844.745 2
 92  2 26  7 52  0.0010000  0  5 16 24 12 20  3
  22159287.538   -12166807.888 7  -9480619.288 6
  22258868.113     8573508.589 8   6680655.543 6
  24499516.643    16216135.078 6  12635944.740 3
  21269246.005   -10980923.197 9  -8556556.687 7
  24154656.976    -4566168.820 5  -3558048.648 2
 92  2 26  7 52 30.0010000  0  5 16 24 12 20  3
  22152102.411   -12204562.188 7  -9510038.198 6
  22273968.956     8652860.036 8   6742487.829 6
  24521990.586    16334252.135 5  12727983.879 2
  21264262.555   -11007122.141 9  -8576971.461 7
  24144602.841    -4619000.829 5  -3599216.425 3
 92  2 26  7 53  0.0010000  0  5 16 24 12 20  3
  22145008.426   -12241842.632 7  -9539087.876 5
  22289111.173     8732439.947 8   6804498.138 6
  24544488.210    16452452.255 5  12820087.790 1
  21259368.153   -11032827.450 9  -8597001.567 7
  24134557.990    -4671786.574 5  -3640348.147 2
 92  2 26  7 53 30.0010000  0  5 16 24 12 20  3
  22138007.085   -12278638.093 7  -9567759.632 5
  22304297.452     8812252.867 8   6866690.037 7
  24566997.525    16570737.604 5  12912258.112 2
  21254575.660   -11058041.239 9  -8616648.671 7
  24124518.252    -4724520.993 5  -3681439.840 3
 92  2 26  7 54  0.0020000  0  5 16 24 12 20  3
  22131099.262   -12314935.316 8  -9596043.153 6
  22319530.204     8892294.097 8   6929059.866 6
  24589513.142    16689111.232 5  13004497.257 2
  21249870.421   -11082742.599 9  -8635896.493 8
  24114497.083    -4777203.354 5  -3722490.889 2
 92  2 26  7 54 30.0020000  0  5 16 24 12 20  3
  22124288.268   -12350718.560 8  -9623926.190 6
  22334799.249     8972523.116 8   6991575.988 6
  24612066.223    16807559.873 5  13096794.834 2
  21245273.999   -11106906.334 9  -8654725.382 8
  24104482.822    -4829833.029 5  -3763501.012 2
 92  2 26  7 55  0.0020000  0  5 16 24 12 20  3
  22117581.015   -12385973.184 7  -9651397.295 5
  22350098.849     9052938.294 8   7054237.166 6
  24634617.506    16926085.950 5  13189152.770 3
  21240776.519   -11130508.841 9  -8673116.940 8
  24094469.451    -4882410.087 5  -3804470.120 2
 92  2 26  7 55 30.0020000  0  5 16 24 12 20  3
  22110975.689   -12420690.340 7  -9678449.592 5
  22365435.026     9133537.310 8   7117041.564 6
  24657186.780    17044680.489 5  13281563.984 3
  21236394.159   -11153549.568 9  -8691070.751 7
  24084480.353    -4934940.283 5  -3845402.706 2
 92  2 26  7 56  0.0020000  0  5 16 24 12 20  3
  22104471.993   -12454856.126 7  -9705072.257 6
  22380805.387     9214317.426 8   7179987.145 6
  24679763.854    17163341.426 5  13374026.933 2
  21232118.210   -11176023.968 9  -8708583.268 8
  24074494.274    -4987422.982 6  -3886298.215 2
 92  2 26  7 56 30.0020000  0  5 16 24 12 20  3
  22098079.210   -12488456.233 8  -9731254.136 6
  22396217.419     9295286.341 8   7243079.868 6
  24702352.620    17282064.050 5  13466537.944 1
  21227944.502   -11197943.860 9  -8725663.693 7
  24064513.884    -5039859.748 6  -3927157.960 2
 92  2 26  7 57  0.0020000  0  5 16 24 12 20  3
  22091788.372   -12521508.745 8  -9757009.315 6
  22411663.026     9376458.847 8   7306331.163 5
  24724960.563    17400839.176 5  13559089.898 1
  21223881.707   -11219321.008 9  -8742321.216 8
  24054550.281    -5092256.639 6  -3967986.690 2
 92  2 26  7 57 30.0020000  0  5 16 24 12 20  3
  22085601.257   -12554029.708 8  -9782350.310 6
  22427145.504     9457828.027 8   7369735.730 5
  24747557.723    17519666.205 4  13651682.428 1
  21219913.964   -11240159.143 9  -8758558.723 8
  24044576.486    -5144611.339 5  -4008782.518 3
 92  2 26  7 58  0.0020000  0  5 16 24 12 20  3
  22079510.067   -12586038.944 8  -9807292.536 6
  22442666.374     9539391.054 8   7433291.365 5
  24770198.944    17638543.952 5  13744314.375 2
  21216052.929   -11260448.266 9  -8774368.427 9
  24034628.780    -5196922.098 6  -4049544.022 2
 92  2 26  7 58 30.0020000  0  5 16 24 12 20  3
  22073508.536   -12617563.312 7  -9831856.961 5
  22458225.895     9621149.944 8   7496999.628 5
  24792826.990    17757467.907 5  13836982.268 1
  21212297.432   -11280184.416 9  -8789747.248 8
  24024680.464    -5249190.512 6  -4090272.602 2
 92  2 26  7 59  0.0020000  0  5 16 24 12 20  3
  22067601.724   -12648612.935 8  -9856051.445 6
  22473823.197     9703106.652 8   7560862.033 6
  24815456.817    17876436.727 5  13929685.119 2
  21208646.254   -11299363.399 9  -8804691.911 8
  24014744.432    -5301414.729 6  -4130966.790 3
 92  2 26  7 59 30.0020000  0  5 16 24 12 20  3
  22061789.336   -12679166.870 7  -9879859.702 6
  22489453.182     9785249.985 8   7624869.805 6
  24838110.637    17995446.306 5  14022419.950 1
  21205104.208   -11317992.072 9  -8819207.745 7
  24004815.904    -5353595.927 6  -4171627.433 3
 92  2 26  8  0  0.0020000  0  5 16 24 12 20  3
  22056073.796   -12709197.653 8  -9903260.276 6
  22505120.930     9867587.111 8   7689028.623 6
  24860765.958    18114499.228 5  14115188.340 1
  21201666.184   -11336068.442 9  -8833293.220 7
  23994893.989    -5405728.262 6  -4212249.921 1
 92  2 26  8  0 30.0020000  0  5 16 24 12 20  3
  22050459.887   -12738684.748 8  -9926237.203 5
  22520825.864     9950123.477 8   7753342.674 6
  24883429.952    18233595.896 5  14207990.877 2
  21198330.697   -11353588.319 9  -8846945.075 7
  23984983.138    -5457808.757 6  -4252832.092 2
 92  2 26  8  1  0.0020000  0  5 16 24 12 20  3
  22044960.189   -12767603.454 8  -9948771.228 6
  22536567.967    10032844.043 8   7817800.271 5
  24906096.075    18352731.336 5  14300823.580 2
  21195099.231   -11370556.300 9  -8860166.877 8
  23975077.993    -5509838.951 6  -4293375.063 2
 92  2 26  8  1 30.0020000  0  5 16 24 12 20  3
  22039563.936   -12795956.072 8  -9970864.156 6
  22552342.737    10115731.886 8   7882388.191 6
  24928771.167    18471900.610 5  14393682.625 3
  21191977.195   -11386972.227 9  -8872958.509 8
  23965189.338    -5561821.200 6  -4333880.630 2
 92  2 26  8  2  0.0020000  0  5 16 24 12 20  3
  22034272.297   -12823761.706 8  -9992530.867 6
  22568146.003    10198790.682 8   7947109.347 6
  24951460.062    18591098.430 5  14486563.987 2
  21188959.197   -11402828.076 9  -8885313.713 7
  23955311.486    -5613757.265 6  -4374350.255 2
 92  2 26  8  2 30.0020000  0  5 16 24 12 20  3
  22029083.178   -12851021.178 8 -10013771.996 6
  22583986.439    10282029.677 8   8011970.921 6
  24974143.565    18710323.170 5  14579466.294 3
  21186053.596   -11418112.545 9  -8897223.687 7
  23945433.319    -5665646.149 6  -4414783.091 3
 92  2 26  8  3  0.0020000  0  5 16 24 12 20  3
  22024001.395   -12877733.990 8 -10034587.146 5
  22599858.651    10365442.670 8   8076968.056 5
  24996834.851    18829567.666 5  14672384.050 3
  21183247.235   -11432842.841 9  -8908701.832 8
  23935564.453    -5717491.743 6  -4455182.216 4
 92  2 26  8  3 30.0020000  0  5 16 24 12 20  3
  22019022.447   -12903902.200 8 -10054977.926 6
  22615770.126    10449045.216 8   8142112.872 6
  25019535.438    18948831.968 5  14765317.199 2
  21180553.602   -11447003.974 9  -8919736.475 8
  23925710.280    -5769291.239 6  -4495545.431 3
 92  2 26  8  4  0.0020000  0  5 16 24 12 20  3
  22014149.020   -12929522.962 8 -10074942.133 6
  22631714.582    10532838.642 8   8207406.482 5
  25042226.724    19068107.461 4  14858259.025 5
  21177968.195   -11460590.748 9  -8930323.566 9
  23915857.590    -5821050.038 6  -4535876.899 1
 92  2 26  8  4 30.0020000  0  5 16 24 12 20  3
  22009378.427   -12954582.877 8 -10094469.318 6
  22647695.020    10616818.470 8   8272845.300 5
  25064929.702    19187394.263 4  14951209.647 3
  21175490.718   -11473607.404 9  -8940466.418 8
  23906021.112    -5872765.155 6  -4576174.346 1
 92  2 26  8  5  0.0020000  0  5 16 24 12 20  3
  22004712.152   -12979093.585 8 -10113568.534 5
  22663707.549    10700970.389 8   8338418.215 5
  25087632.400    19306689.204 4  15044166.616 2
  21173125.358   -11486059.219 9  -8950169.120 8
  23896184.023    -5924436.560 6  -4616437.728 4
 92  2 26  8  5 30.0020000  0  5 16 24 12 20  3
  22000148.414   -13003059.718 8 -10132243.417 6
  22679753.338    10785290.177 7   8404121.903 6
  25110332.673    19425994.857 4  15137131.941 2
  21170864.613   -11497921.180 9  -8959412.196 8
  23886361.313    -5976058.655 6  -4656662.726 3
 92  2 26  8  6  0.0020000  0  5 16 24 12 20  3
  21995692.902   -13026489.058 8 -10150500.016 6
  22695831.498    10869774.275 7   8469953.669 4
  25133034.760    19545308.322 3  15230103.689 1
  21168719.597   -11509198.593 9  -8968199.780 8
  23876547.014    -6027631.609 6  -4696849.404 3
 92  2 26  8  6 30.0020000  0  4 16 24 20  3
  21991336.315   -13049389.100 8 -10168344.186 6
  22711943.249    10954429.582 8   8535918.841 6
  21166680.417   -11519897.671 9  -8976536.715 9
  23866743.795    -6079155.212 6  -4736997.587 1
 92  2 26  8  7  0.0020000  0  4 16 24 20  3
  21987079.858   -13071765.801 8 -10185780.552 6
  22728082.868    11039255.119 8   8602016.642 5
  21164759.637   -11530003.680 9  -8984411.510 8
  23856942.078    -6130628.400 6  -4777106.495 2
 92  2 26  8  7 30.0020000  0  4 16 24 20  3
  21982918.435   -13093615.022 8 -10202805.886 6
  22744256.672    11124256.666 8   8668251.657 4
  21162949.194   -11539510.800 9  -8991819.644 8
  23847159.852    -6182057.957 6  -4817181.454 3
 92  2 26  8  8  0.0020000  0  4 16 24 20  3
  21978866.442   -13114924.498 8 -10219410.642 6
  22760466.459    11209435.319 7   8734624.584 6
  21161252.073   -11548432.276 9  -8998771.429 8
  23837382.426    -6233446.313 6  -4857224.328 2
 92  2 26  8  8 30.0020000  0  4 16 24 20  3
  21974916.987   -13135674.655 8 -10235579.573 6
  22776707.115    11294776.666 7   8801124.346 5
  21159665.866   -11556771.770 9  -9005269.733 8
  23827609.483    -6284789.427 6  -4897231.902 2
 92  2 26  8  9  0.0020000  0  4 16 24 20  3
  21971078.131   -13155852.057 8 -10251302.196 6
  22792971.747    11380262.238 7   8867736.435 5
  21158192.387   -11564525.392 9  -9011311.509 8
  23817847.343    -6336088.097 6  -4937204.820 3
 92  2 26  8  9 30.0020000  0  4 16 24 20  3
  21967342.423   -13175442.473 8 -10266567.425 6
  22809271.769    11465896.692 7   8934464.579 5
  21156826.837   -11571696.632 9  -9016899.476 9
  23808099.896    -6387341.357 6  -4977142.388 3
 92  2 26  8 10  0.0020000  0  4 16 24 20  3
  21963733.823   -13194434.255 8 -10281366.180 6
  22825594.877    11551678.647 7   9001307.681 5
  21155574.592   -11578291.579 9  -9022038.413 9
  23798356.636    -6438543.091 6  -5017039.837 2
 92  2 26  8 10 30.0020000  0  4 16 24 20  3
  21960230.447   -13212842.767 8 -10295710.443 6
  22841946.743    11637612.609 7   9068269.166 5
  21154428.200   -11584301.613 9  -9026721.513 8
  23788620.881    -6489694.312 6  -5056897.872 2
 92  2 26  8 11  0.0020000  0  4 16 24 20  3
  21956836.205   -13230688.169 8 -10309615.918 6
  22858325.919    11723705.058 7   9135354.166 5
  21153393.612   -11589721.622 9  -9030944.880 9
  23778898.003    -6540800.077 6  -5096720.502 2
 92  2 26  8 11 30.0020000  0  4 16 24 20  3
  21953548.078   -13247970.492 8 -10323082.644 6
  22874741.042    11809953.199 7   9202560.482 4
  21152473.252   -11594556.276 9  -9034712.136 9
  23769172.142    -6591860.669 6  -5136507.905 1
 92  2 26  8 12  0.0020000  0  4 16 24 20  3
  21950363.082   -13264695.914 8 -10336115.409 6
  22891180.473    11896331.992 7   9269868.583 5
  21151665.307   -11598818.007 9  -9038032.953 8
  23759470.554    -6642883.485 6  -5176265.932 4
 92  2 26  8 12 30.0020000  0  4 16 24 20  3
  21947287.202   -13280871.073 8 -10348719.396 6
  22907644.771    11982835.844 7   9337274.167 4
  21150963.494   -11602504.962 8  -9040905.895 9
  23749767.482    -6693866.403 6  -5215992.855 3
 92  2 26  8 13  0.0020000  0  4 16 24 20  3
  21944318.361   -13296475.574 8 -10360878.718 6
  22924122.261    12069455.891 7   9404770.304 5
  21150368.110   -11605627.267 9  -9043338.842 8
  23740070.990    -6744810.103 6  -5255689.232 2
 92  2 26  8 13 30.0020000  0  4 16 24 20  3
  21941459.545   -13311494.221 8 -10372581.534 7
  22940628.527    12156191.336 7   9472356.391 6
  21149882.733   -11608181.228 9  -9045328.925 9
  23730380.796    -6795713.234 6  -5295353.988 1
 92  2 26  8 14  0.0020000  0  4 16 24 20  3
  21938714.643   -13325935.043 8 -10383834.097 6
  22957157.583    12243055.809 7   9540042.929 5
  21149507.099   -11610154.503 8  -9046866.535 9
  23720707.687    -6846572.013 6  -5334984.156 2
 92  2 26  8 14 30.0020000  0  4 16 24 20  3
  21936069.574   -13339814.052 8 -10394648.871 6
  22973715.134    12330063.192 7   9607840.882 5
  21149244.788   -11611533.045 9  -9047940.710 8
  23711035.485    -6897389.665 6  -5374582.293 4
 92  2 26  8 15  0.0020000  0  4 16 24 20  3
  21933536.029   -13353128.569 8 -10405023.805 6
  22990300.240    12417221.666 7   9675756.555 5
  21149098.782   -11612306.634 8  -9048543.492 8
  23701374.975    -6948166.453 6  -5414148.615 3
 92  2 26  8 15 30.0020000  0  4 16 24 20  3
  21931109.506   -13365889.572 8 -10414967.410 6
  23006919.234    12504550.589 7   9743805.077 5
  21149070.896   -11612452.613 8  -9048657.280 9
  23691723.155    -6998896.463 6  -5453678.464 3
 92  2 26  8 16  0.0020000  0  4 16 24 20  3
  21928784.614   -13378107.006 8 -10424487.472 6
  23023573.007    12592056.854 7   9811991.738 4
  21149158.741   -11611981.108 9  -9048289.824 9
  23682077.337    -7049581.261 6  -5493173.079 3
 92  2 26  8 16 30.0020000  0  4 16 24 20  3
  21926566.447   -13389764.164 8 -10433570.935 6
  23040254.664    12679738.414 7   9880315.002 5
  21149364.391   -11610903.556 9  -9047450.170 8
  23672444.712    -7100219.016 6  -5532631.028 2
 92  2 26  8 17  0.0020000  0  4 16 24 20  3
  21924455.616   -13400840.560 8 -10442201.869 6
  23056971.990    12767586.700 7   9948768.177 4
  21149687.884   -11609224.257 9  -9046141.604 8
  23662812.070    -7150806.956 6  -5572050.186 2
 92  2 26  8 17 30.0020000  0  4 16 24 20  3
  21922462.295   -13411320.397 8 -10450367.952 6
  23073718.703    12855570.468 7  10017326.922 5
  21150115.379   -11606951.645 9  -9044370.727 8
  23653195.325    -7201348.238 6  -5611433.007 2
 92  2 26  8 18  0.0020000  0  4 16 24 20  3
  21920586.187   -13421189.910 8 -10458058.462 7
  23090478.590    12943656.222 7  10085965.162 5
  21150655.899   -11604104.799 9  -9042152.400 9
  23643586.991    -7251844.600 6  -5650780.830 3
 92  2 26  8 18 30.0020000  0  5 16 24 20 17  3
  21918826.420   -13430435.418 8 -10465262.735 6
  23107255.875    13031821.896 7  10154665.614 5
  21151310.352   -11600670.523 9  -9039476.343 8
  24546225.207     -192723.590 5   -150174.055 3
  23633984.031    -7302293.214 6  -5690091.405 3
 92  2 26  8 19  0.0020000  0  5 16 24 20 17  3
  21917185.349   -13439065.880 8 -10471987.741 6
  23124045.759    13120054.083 7  10223417.982 4
  21152078.424   -11596635.999 9  -9036332.540 8
  24530788.291     -273829.983 5   -213373.797 3
  23624399.970    -7352690.338 6  -5729361.867 1
 92  2 26  8 19 30.0020000  0  5 16 24 20 17  3
  21915653.116   -13447099.337 8 -10478247.559 6
  23140845.223    13208350.071 7  10292219.987 4
  21152961.003   -11592011.367 9  -9032728.932 8
  24515391.545     -354754.271 5   -276431.628 2
  23614815.002    -7403041.671 6  -5768596.642 2
 92  2 26  8 20  0.0020000  0  5 16 24 20 17  3
  21914233.593   -13454568.021 8 -10484067.281 7
  23157665.680    13296731.511 7  10361088.634 5
  21153953.031   -11586793.539 9  -9028663.095 9
  24500019.997     -435498.613 5   -339349.244 4
  23605234.239    -7453357.942 6  -5807804.099 3
 92  2 26  8 20 30.0020000  0  5 16 24 20 17  3
  21912919.609   -13461473.422 8 -10489448.103 6
  23174507.723    13385231.839 7  10430049.909 4
  21155061.050   -11580951.521 8  -9024110.875 8
  24484698.794     -516047.817 6   -402114.758 3
  23595675.359    -7503631.122 6  -5846977.998 3
 92  2 26  8 21  0.0020000  0  5 16 24 20 17  3
  21911707.238   -13467832.867 8 -10494403.487 6
  23191373.149    13473858.058 7  10499109.263 4
  21156292.302   -11574499.245 9  -9019083.108 8
  24469404.288     -596404.283 5   -464730.147 2
  23586112.273    -7553876.715 6  -5886130.388 2
 92  2 26  8 21 30.0020000  0  5 16 24 20 17  3
  21910597.404   -13473681.322 8 -10498960.704 6
  23208256.566    13562583.859 7  10568246.253 3
  21157625.482   -11567489.438 9  -9013620.917 9
  24454142.154     -676605.249 5   -527224.363 2
  23576544.406    -7604142.467 6  -5925298.502 2
 92  2 26  8 22  0.0020000  0  5 16 24 20 17  3
  21909596.703   -13478930.179 8 -10503050.697 6
  23225173.854    13651488.802 7  10637522.796 5
  21159080.969   -11559841.600 9  -9007661.562 9
  24438922.894     -756567.598 5   -589532.615 1
  23566994.216    -7654348.671 6  -5964420.186 2
 92  2 26  8 22 30.0020000  0  5 16 24 20 17  3
  21908724.001   -13483512.141 8 -10506621.044 6
  23242133.703    13740609.501 7  10706967.456 3
  21160666.269   -11551530.101 9  -9001185.065 9
  24423767.170     -836243.199 5   -651617.463 2
  23557461.703    -7704443.354 6  -6003454.966 1
 92  2 26  8 23  0.0020000  0  5 16 24 20 17  3
  21907961.636   -13487529.122 8 -10509751.144 6
  23259107.059    13829814.770 7  10776478.052 3
  21162340.321   -11542685.721 9  -8994293.341 8
  24408639.350     -915746.332 5   -713567.889 2
  23547931.912    -7754535.649 6  -6042487.902 3
 92  2 26  8 23 30.0020000  0  5 16 24 20 17  3
  21907314.983   -13490923.753 8 -10512396.283 6
  23276105.892    13919137.629 7  10846080.284 5
  21164141.463   -11533256.392 9  -8986945.786 9
  24393540.304     -995036.289 5   -775352.243 2
  23538405.699    -7804571.198 6  -6081476.643 3
 92  2 26  8 24  0.0020000  0  5 16 24 20 17  3
  21906782.245   -13493724.692 8 -10514578.810 7
  23293117.306    14008532.821 7  10915738.831 4
  21166044.845   -11523251.781 9  -8979149.999 9
  24378490.416    -1074148.196 5   -836997.829 2
  23528895.382    -7854572.510 6  -6120438.685 4
 92  2 26  8 24 30.0020000  0  5 16 24 20 17  3
  21906355.343   -13495973.456 8 -10516331.075 6
  23310134.130    14097954.841 7  10985418.271 4
  21168051.062   -11512694.856 9  -8970923.823 9
  24363477.122    -1153117.354 5   -898532.215 1
  23519371.874    -7904571.740 6  -6159399.118 4
 92  2 26  8 25  0.0020000  0  5 16 24 20 17  3
  21906042.670   -13497620.173 8 -10517614.223 7
  23327169.242    14187461.275 7  11055163.550 4
  21170181.384   -11501495.706 8  -8962197.211 8
  24348472.500    -1231889.178 5   -959912.779 1
  23509874.750    -7954509.500 6  -6198311.640 2
 92  2 26  8 25 30.0020000  0  5 16 24 20 17  3
  21905835.501   -13498690.010 8 -10518447.834 6
  23344216.936    14277053.026 7  11124975.248 3
  21172437.034   -11489658.678 9  -8952973.532 9
  24333523.352    -1310476.328 5  -1021149.438 2
  23500383.314    -8004401.925 6  -6237188.838 2
 92  2 26  8 26  0.0020000  0  5 16 24 20 17  3
  21905748.861   -13499168.516 8 -10518820.677 6
  23361289.217    14366772.097 7  11194886.157 3
  21174814.086   -11477149.560 9  -8943226.172 9
  24318598.477    -1388839.858 5  -1082211.903 1
  23490905.386    -8054219.354 7  -6276007.591 2
 92  2 26  8 26 30.0020000  0  5 16 24 20 17  3
  21905774.041   -13499022.059 8 -10518706.539 6
  23378390.884    14456653.849 7  11264923.844 5
  21177328.138   -11463947.582 9  -8932938.903 9
  24303746.475    -1466943.982 5  -1143072.252 2
  23481439.131    -8103938.794 6  -6314750.002 4
 92  2 26  8 27  0.0020000  0  5 16 24 20 17  3
  21905905.354   -13498333.169 8 -10518169.729 6
  23395514.119    14546625.061 7  11335031.297 3
  21179953.419   -11450141.694 9  -8922181.065 8
  24288919.932    -1544869.196 5  -1203793.145 3
  23471979.787    -8153645.082 6  -6353482.178 3
 92  2 26  8 27 30.0020000  0  5 16 24 20 17  3
  21906142.189   -13497081.277 8 -10517194.212 6
  23412650.862    14636692.993 7  11405214.084 5
  21182699.525   -11435739.921 9  -8910958.909 9
  24274123.666    -1622585.479 5  -1264351.220 1
  23462532.728    -8203320.601 7  -6392190.366 3
 92  2 26  8 28  0.0020000  0  5 16 24 20 17  3
  21906495.643   -13495233.032 8 -10515754.011 5
  23429812.173    14726859.338 7  11475473.541 5
  21185552.042   -11420731.178 9  -8899263.772 9
  24259378.389    -1700066.909 5  -1324726.306 2
  23453076.664    -8252945.072 6  -6430858.770 3
 92  2 26  8 28 30.0020000  0  5 16 24 20 17  3
  21906961.529   -13492779.049 8 -10513841.778 6
  23446983.694    14817111.555 7  11545799.902 4
  21188520.586   -11405136.387 9  -8887111.992 9
  24244682.252    -1777324.650 5  -1384927.108 2
  23443643.705    -8302526.959 6  -6469493.968 3
 92  2 26  8 29  0.0020000  0  5 16 24 20 17  3
  21907541.330   -13489734.671 8 -10511469.523 7
  23464174.392    14907442.650 7  11616187.709 4
  21191597.967   -11388967.883 9  -8874513.156 8
  24230020.910    -1854354.322 5  -1444950.201 3
  23434222.733    -8352063.602 6  -6508093.942 3
 92  2 26  8 29 30.0020000  0  5 16 24 20 17  3
  21908232.952   -13486096.866 8 -10508634.848 6
  23481373.780    14997829.603 7  11686619.130 4
  21194781.166   -11372240.539 9  -8861478.866 9
  24215406.021    -1931168.903 5  -1504805.717 2
  23424793.945    -8401571.407 6  -6546671.458 4
 92  2 26  8 30  0.0020000  0  5 16 24 20 17  3
  21909036.691   -13481865.694 8 -10505337.803 6
  23498590.566    15088282.686 7  11757102.005 3
  21198071.683   -11354944.742 9  -8848001.626 9
  24200828.912    -2007782.827 5  -1564504.788 2
  23415382.868    -8451057.882 6  -6585232.341 3
 92  2 26  8 30 30.0020000  0  5 16 24 20 17  3
  21909955.253   -13477039.161 8 -10501576.854 6
  23515817.543    15178820.777 7  11827651.132 4
  21201475.226   -11337068.293 9  -8834071.918 9
  24186285.691    -2084193.653 5  -1624045.614 3
  23405973.274    -8500515.190 7  -6623770.490 2
 92  2 26  8 31  0.0020000  0  5 16 24 20 17  3
  21910995.827   -13471588.599 8 -10497329.646 6
  23533065.199    15269462.330 7  11898280.880 3
  21204991.497   -11318573.955 9  -8819660.750 9
  24171782.030    -2160370.340 5  -1683404.060 2
  23396581.689    -8549917.349 7  -6662265.711 3
 92  2 26  8 31 30.0020000  0  5 16 24 20 17  3
  21912149.426   -13465500.756 8 -10492585.866 6
  23550333.551    15360209.486 7  11968992.925 3
  21208629.763   -11299462.355 9  -8804768.574 9
  24157334.733    -2236321.431 5  -1742586.707 2
  23387181.693    -8599268.697 6  -6700721.326 2
 92  2 26  8 32  0.0020000  0  5 16 24 20 17  3
  21913429.853   -13458788.968 8 -10487355.860 6
  23567621.377    15451073.930 7  12039796.333 4
  21212384.369   -11279729.304 9  -8789392.200 9
  24142927.606    -2312041.404 5  -1801589.179 1
  23377799.688    -8648559.452 6  -6739129.708 2
 92  2 26  8 32 30.0020000  0  5 16 24 20 17  3
  21914822.677   -13451462.266 8 -10481646.732 6
  23584937.385    15542037.282 7  12110676.894 4
  21216263.082   -11259372.158 9  -8773529.494 9
  24128557.945    -2387525.487 5  -1860407.900 1
  23368429.968    -8697786.587 6  -6777488.489 4
 92  2 26  8 33  0.0020000  0  5 16 24 20 17  3
  21916333.343   -13443530.597 8 -10475466.195 6
  23602262.397    15633082.093 7  12181620.886 3
  21220246.722   -11238400.618 9  -8757188.033 9
  24114240.757    -2462779.815 5  -1919047.598 2
  23359077.646    -8746958.766 7  -6815804.491 4
 92  2 26  8 33 30.0020000  0  5 16 24 20 17  3
  21917954.607   -13435007.751 8 -10468825.007 6
  23619603.586    15724219.675 6  12252637.159 4
  21224358.081   -11216802.037 9  -8740357.968 8
  24099972.430    -2537799.782 5  -1977504.646 3
  23349723.527    -8796067.365 6  -6854070.939 5
 92  2 26  8 34  0.0020000  0  5 16 24 20 17  3
  21919689.211   -13425909.148 8 -10461735.166 6
  23636961.579    15815442.661 7  12323719.988 4
  21228590.561   -11194556.260 9  -8723023.588 9
  24085735.896    -2612590.173 6  -2035782.811 1
  23340402.981    -8845110.897 7  -6892286.653 3
 92  2 26  8 34 30.0020000  0  5 16 24 20 17  3
  21921526.039   -13416241.058 8 -10454201.568 6
  23654335.749    15906738.871 6  12394859.871 4
  21232949.835   -11171664.664 9  -8705186.005 9
  24071546.723    -2687160.570 6  -2093889.558 2
  23331079.435    -8894094.163 7  -6930455.461 4
 92  2 26  8 35  0.0020000  0  5 16 24 20 17  3
  21923476.188   -13406007.095 8 -10446227.048 7
  23671721.314    15998116.588 6  12466063.280 4
  21237426.636   -11148136.526 9  -8686852.399 9
  24057397.109    -2761512.626 5  -2151826.171 3
  23321768.784    -8943021.081 7  -6968580.346 2
 92  2 26  8 35 30.0020000  0  5 16 24 20 17  3
  21925530.375   -13395216.606 8 -10437818.855 6
  23689128.150    16089574.016 6  12537328.769 3
  21242025.746   -11123969.646 9  -8668021.082 9
  24043286.776    -2835653.537 5  -2209598.259 4
  23312465.619    -8991898.521 6  -7006666.665 4
 92  2 26  8 36  0.0020000  0  5 16 24 20 17  3
  21927687.972   -13383851.245 8 -10428962.710 7
  23706545.195    16181109.733 6  12608655.278 2
  21246742.679   -11099181.346 9  -8648705.518 9
  24029214.222    -2909593.294 5  -2267213.610 2
  23303179.538    -9040729.450 7  -7044716.745 4
 92  2 26  8 36 30.0020000  0  5 16 24 20 17  3
  21929964.301   -13371890.879 8 -10419642.929 6
  23723975.432    16272726.419 6  12680044.838 4
  21251572.638   -11073799.247 9  -8628927.283 9
  24015189.325    -2983316.118 5  -2324659.885 3
  23293892.881    -9089512.900 7  -7082729.808 4
 92  2 26  8 37  0.0020000  0  5 16 24 20 17  3
  21932361.141   -13359310.667 8 -10409840.162 7
  23741429.349    16364424.193 6  12751497.625 4
  21256514.120   -11047824.624 9  -8608687.322 9
  24001202.522    -3056812.993 5  -2381930.075 1
  23284615.194    -9138249.604 7  -7120706.469 4
 92  2 26  8 37 30.0020000  0  5 16 24 20 17  3
  21934871.599   -13346104.206 8 -10399549.401 6
  23758890.160    16456190.632 6  12823003.917 4
  21261569.518   -11021270.254 9  -8587995.611 8
  23987257.966    -3130091.326 5  -2439030.037 4
  23275347.104    -9186941.854 7  -7158648.490 5
 92  2 26  8 38  0.0020000  0  5 16 24 20 17  3
  21937508.274   -13332259.372 8 -10388761.200 6
  23776362.661    16548011.470 6  12894552.605 3
  21266731.956   -10994146.807 9  -8566860.452 9
  23973353.597    -3203143.538 5  -2495953.769 1
  23266090.112    -9235589.139 7  -7196555.470 3
 92  2 26  8 38 30.0020000  0  5 16 24 20 17  3
  21940260.069   -13317794.507 8 -10377489.858 7
  23793846.855    16639873.557 6  12966133.458 3
  21272001.695   -10966442.349 9  -8545272.569 9
  23959502.888    -3275956.336 6  -2552690.930 3
  23256842.125    -9284195.037 7  -7234430.208 4
 92  2 26  8 39  0.0020000  0  5 16 24 20 17  3
  21943123.685   -13302727.275 8 -10365749.153 6
  23811334.660    16731783.498 6  13037751.594 4
  21277388.664   -10938140.365 9  -8523219.086 9
  23945690.535    -3348523.667 6  -2609236.827 3
  23247604.311    -9332755.498 7  -7272269.557 4
 92  2 26  8 39 30.0020000  0  5 16 24 20 17  3
  21946106.328   -13287079.145 8 -10353555.791 6
  23828836.844    16823747.333 6  13109411.709 5
  21282888.955   -10909237.616 9  -8500697.466 8
  23931936.657    -3420839.163 6  -2665586.509 3
  23238373.111    -9381267.711 7  -7310071.295 4
 92  2 26  8 40  0.0020000  0  5 16 24 20 17  3
  21949191.492   -13270858.456 8 -10340916.277 6
  23846342.624    16915759.112 6  13181109.218 4
  21288501.085   -10879722.561 9  -8477698.725 8
  23918218.465    -3492897.345 5  -2721735.688 2
  23229150.602    -9429731.228 7  -7347835.095 4
 92  2 26  8 40 30.0020000  0  5 16 24 20 17  3
  21952384.882   -13254079.084 8 -10327841.427 7
  23863869.692    17007827.418 6  13252850.700 3
  21294236.099   -10849595.391 9  -8454223.031 9
  23904555.119    -3564704.448 6  -2777689.210 2
  23219935.578    -9478143.589 7  -7385559.009 3
 92  2 26  8 41  0.0020000  0  5 16 24 20 17  3
  21955685.887   -13236729.708 8 -10314322.437 6
  23881392.852    17099947.015 6  13324632.161 3
  21300082.655   -10818865.755 9  -8430277.857 8
  23890939.447    -3636268.016 5  -2833452.925 3
  23210733.450    -9526506.693 7  -7423244.582 3
 92  2 26  8 41 30.0020000  0  5 16 24 20 17  3
  21959102.029   -13218793.636 8 -10300346.250 6
  23898931.612    17192101.442 6  13396440.800 4
  21306046.738   -10787531.257 9  -8405861.365 8
  23877357.943    -3707608.592 5  -2889042.961 3
  23201541.809    -9574819.289 7  -7460890.801 5
 92  2 26  8 42  0.0020000  0  5 16 24 20 17  3
  21962625.193   -13200267.519 8 -10285910.317 7
  23916474.874    17284289.987 6  13468276.026 3
  21312126.830   -10755590.613 9  -8380972.559 8
  23863821.425    -3778737.656 5  -2944468.143 3
  23192355.858    -9623082.627 7  -7498498.611 3
 92  2 26  8 42 30.0020000  0  5 16 24 20 17  3
  21966261.975   -13181146.933 8 -10271011.146 7
  23934025.012    17376524.196 6  13540146.847 3
  21318315.742   -10723053.279 9  -8355618.786 9
  23850323.856    -3849655.376 5  -2999728.623 3
  23183179.521    -9671300.708 7  -7536071.179 4
 92  2 26  8 43  0.0020000  0  5 16 24 20 17  3
  21970019.566   -13161417.317 8 -10255637.415 7
  23951589.564    17468819.259 6  13612065.025 4
  21324623.071   -10689903.322 9  -8329787.666 9
  23836879.964    -3920347.416 6  -3054813.238 2
  23174012.171    -9719463.245 7  -7573600.457 5
 92  2 26  8 43 30.0020000  0  5 16 24 20 17  3
  21973885.993   -13141088.981 8 -10239797.144 6
  23969168.197    17561196.393 6  13684047.169 4
  21331051.818   -10656140.188 9  -8303478.755 9
  23823462.457    -3990822.924 6  -3109729.170 3
  23164863.999    -9767567.854 7  -7611084.562 5
 92  2 26  8 44  0.0020000  0  5 16 24 20 17  3
  21977864.835   -13120175.240 8 -10223500.724 7
  23986763.304    17653660.942 6  13756097.463 3
  21337589.699   -10621776.342 9  -8276701.754 8
  23810106.706    -4061069.080 6  -3164466.403 3
  23155719.422    -9815622.572 7  -7648529.809 3
 92  2 26  8 44 30.0020000  0  5 16 24 20 17  3
  21981959.703   -13098673.574 8 -10206746.178 8
  24004373.418    17746203.679 6  13828208.670 4
  21344238.197   -10586828.628 9  -8249469.771 9
  23796766.834    -4131080.559 6  -3219020.718 3
  23146579.958    -9863626.282 7  -7685935.315 4
 92  2 26  8 45  0.0020000  0  5 16 24 20 17  3
  21986160.703   -13076587.659 8 -10189536.367 6
  24021994.613    17838816.207 6  13900374.283 3
  21351001.814   -10551297.258 9  -8221783.009 9
  23783498.020    -4200867.581 6  -3273400.161 2
  23137455.466    -9911575.953 7  -7723298.705 4
 92  2 26  8 45 30.0020000  0  5 16 24 20 17  3
  21990472.320   -13053919.660 8 -10171872.976 6
  24039629.908    17931477.459 6  13972577.792 3
  21357871.546   -10515196.215 9  -8193652.344 8
  23770263.391    -4270436.479 6  -3327609.655
  23128341.776    -9959477.555 7  -7760624.584 4
 92  2 26  8 46  0.0020000  0  5 16 24 20 17  3
  21994899.057   -13030662.297 8 -10153750.361 6
  24057267.908    18024165.838 6  14044802.474 3
  21364844.723   -10478541.928 9  -8165090.563 8
  23757054.536    -4339770.885 6  -3381636.439 4
  23119234.385   -10007333.347 7  -7797914.814 2
 92  2 26  8 46 30.0020000  0  5 16 24 20 17  3
  21999438.207   -13006827.396 8 -10135177.718 7
  24074907.094    18116862.627 6  14117033.730 4
  21371925.219   -10441338.866 9  -8136101.163 7
  23743912.830    -4408895.347 6  -3435499.604 3
  23110130.292   -10055150.546 7  -7835174.991 5
 92  2 26  8 47  0.0020000  0  5 16 24 20 17  3
  22004084.397   -12982403.354 8 -10116145.997 6
  24092557.361    18209580.922 6  14189281.734 2
  21379118.146   -10403548.248 9  -8106653.952 9
  23730799.008    -4477799.651 5  -3489191.221 2
  23101042.986   -10102914.235 7  -7872393.453 4
 92  2 26  8 47 30.0020000  0  5 16 24 20 17  3
  22008844.189   -12957382.138 8 -10096648.940 6
  24110201.363    18302324.902 6  14261549.750 3
  21386422.284   -10365165.821 9  -8076745.588 8
  23717736.456    -4546471.237 6  -3542701.473 2
  23091969.467   -10150618.244 7  -7909565.405 5
 92  2 26  8 48  0.0020000  0  5 16 24 20 17  3
  22013723.915   -12931744.929 8 -10076671.894 7
  24127857.633    18395113.825 6  14333852.808 2
  21393842.151   -10326168.089 9  -8046357.765 8
  23704715.871    -4614897.801 6  -3596020.842 3
  23082905.230   -10198243.831 7  -7946676.250 4
 92  2 26  8 48 30.0020000  0  5 16 24 20 17  3
  22018715.166   -12905512.838 8 -10056231.297 7
  24145519.609    18487935.317 6  14406181.202 2
  21401382.530   -10286540.738 9  -8015479.306 7
  23691729.157    -4683099.683 6  -3649165.148 3
  23073851.813   -10245800.867 7  -7983733.670 3
 92  2 26  8 49  0.0020000  0  5 16 24 20 17  3
  22023818.831   -12878679.815 8 -10035322.453 6
  24163193.870    18580790.134 6  14478535.575 3
  21409044.327   -10246290.034 9  -7984115.139 9
  23678801.809    -4751053.919 6  -3702116.440 2
  23064820.261   -10293292.863 7  -8020740.374 3
 92  2 26  8 49 30.0020000  0  5 16 24 20 17  3
  22029041.804   -12851246.289 8 -10013945.680 6
  24180864.240    18673674.604 6  14550913.105 2
  21416814.351   -10205437.411 9  -7952281.968 9
  23665920.024    -4818750.572 6  -3754867.041 2
  23055795.305   -10340725.188 7  -8057700.650 5
 92  2 26  8 50  0.0020000  0  5 16 24 20 17  3
  22034376.911   -12823222.691 8  -9992109.109 6
  24198542.689    18766581.580 6  14623308.098 2
  21424707.276   -10163962.648 9  -7919963.976 8
  23653073.610    -4886183.604 6  -3807412.219 2
  23046778.742   -10388101.219 7  -8094617.032 4
 92  2 26  8 50 30.0020000  0  5 16 24 20 17  3
  22039817.854   -12794612.082 8  -9969815.135 7
  24216235.256    18859526.655 6  14695732.824 2
  21432721.638   -10121858.215 9  -7887155.329 7
  23640308.758    -4953334.766 6  -3859737.776 2
  23037775.372   -10435414.980 7  -8131484.867 5
 92  2 26  8 51  0.0020000  0  5 16 24 20 17  3
  22045375.103   -12765406.756 8  -9947057.740 6
  24233929.305    18952516.159 6  14768192.180 4
  21440848.710   -10079145.304 9  -7853872.553 8
  23627590.952    -5020210.202 6  -3911848.498 4
  23028780.413   -10482666.345 7  -8168304.083 4
 92  2 26  8 51 30.0020000  0  5 16 24 20 17  3
  22051040.281   -12735642.335 8  -9923864.681 7
  24251625.152    19045526.770 6  14840667.986 2
  21449089.698   -10035842.024 9  -7820129.781 8
  23614895.343    -5086863.132 6  -3963785.831 3
  23019798.018   -10529874.197 7  -8205089.421 4
 92  2 26  8 52  0.0020000  0  5 16 24 20 17  3
  22056820.875   -12705282.719 8  -9900207.845 7
  24269339.880    19138605.354 6  14913196.725 2
  21457447.322    -9991918.662 9  -7785903.801 8
  23602262.694    -5153269.677 6  -4015531.144 4
  23010836.337   -10576993.927 7  -8241806.049 4
 92  2 26  8 52 30.0020000  0  5 16 24 20 17  3
  22062708.805   -12674328.977 8  -9876088.049 6
  24287063.613    19231749.221 6  14985776.346 3
  21465911.952    -9947433.789 9  -7751240.277 7
  23589677.998    -5219444.395 6  -4067095.841 3
  23001876.139   -10624036.722 7  -8278462.753 5
 92  2 26  8 53  0.0020000  0  5 16 24 20 17  3
  22068703.461   -12642827.953 8  -9851541.806 6
  24304789.439    19324907.623 6  15058367.247 3
  21474472.226    -9902442.051 9  -7716181.788 8
  23577116.703    -5285437.444 6  -4118518.957 2
  22992935.415   -10671044.735 7  -8315092.375 5
 92  2 26  8 53 30.0020000  0  5 16 24 20 17  3
  22074803.028   -12610771.483 8  -9826562.725 6
  24322523.659    19418106.590 6  15130989.787 2
  21483137.725    -9856922.828 9  -7680712.273 8
  23564594.078    -5351206.906 6  -4169767.851 3
  22984000.101   -10717995.408 7  -8351677.295 5
 92  2 26  8 54  0.0020000  0  5 16 24 20 17  3
  22081011.135   -12578147.556 8  -9801141.491 7
  24340269.274    19511361.178 6  15203655.661 2
  21491897.664    -9810874.298 9  -7644830.343 8
  23552124.205    -5416714.539 6  -4220812.739 4
  22975083.389   -10764876.277 7  -8388207.786 4
 92  2 26  8 54 30.0020000  0  5 16 24 20 17  3
  22087317.574   -12545004.342 8  -9775315.619 6
  24358020.892    19604622.443 6  15276326.763 3
  21500761.939    -9764306.976 9  -7608544.133 8
  23539687.906    -5481990.387 6  -4271677.021 1
  22966163.361   -10811724.077 7  -8424712.539 4
 92  2 26  8 55  0.0020000  0  5 16 24 20 17  3
  22093713.637   -12511381.135 8  -9749115.724 6
  24375756.910    19697843.143 6  15348966.281 4
  21509723.027    -9717207.094 9  -7571842.958 8
  23527319.977    -5547066.987 6  -4322386.003 3
  22957249.318   -10858565.644 7  -8461212.450 5
 92  2 26  8 55 30.0020000  0  5 16 24 20 17  3
  22100221.538   -12477188.448 8  -9722472.070 6
  24393509.121    19791094.273 6  15421629.419 3
  21518801.049    -9669494.586 9  -7534664.386 8
  23514989.513    -5611874.864 6  -4372885.634 4
  22948353.878   -10905325.450 7  -8497648.664 5
 92  2 26  8 56  0.0020000  0  5 16 24 20 17  3
  22106841.854   -12442418.519 8  -9695378.623 7
  24411248.750    19884356.652 6  15494301.444 3
  21527998.972    -9621158.335 9  -7496999.791 8
  23502703.426    -5676440.389 6  -4423196.399 3
  22939465.941   -10952008.569 7  -8534025.146 6
 92  2 26  8 56 30.0020000  0  5 16 24 20 17  3
  22113569.786   -12407052.424 8  -9667820.639 6
  24428998.257    19977629.352 6  15566981.401 3
  21537318.627    -9572186.291 9  -7458839.780 8
  23490467.089    -5740768.595 6  -4473322.252 4
  22930602.871   -10998613.750 7  -8570340.841 5
 92  2 26  8 57  0.0020000  0  5 16 24 20 17  3
  22120411.353   -12371093.058 8  -9639800.363 6
  24446746.577    20070896.824 6  15639657.347 2
  21546752.494    -9522625.699 9  -7420221.151 8
  23478255.950    -5804876.802 6  -4523276.684 3
  22921740.115   -11045165.080 7  -8606614.595 6
 92  2 26  8 57 30.0020000  0  5 16 24 20 17  3
  22127375.229   -12334501.810 8  -9611287.688 6
  24464503.273    20164203.996 6  15712364.222 2
  21556298.478    -9472458.774 9  -7381130.039 7
  23466102.048    -5868731.641 6  -4573033.669 2
  22912899.538   -11091625.641 7  -8642817.607 4
 92  2 26  8 58  0.0020000  0  5 16 24 20 17  3
  22134444.050   -12297341.544 8  -9582331.653 7
  24482259.393    20257499.619 6  15785062.130 2
  21565950.595    -9421729.632 9  -7341600.870 9
  23454002.730    -5932358.191 6  -4622612.765 3
  22904065.539   -11138039.846 7  -8678984.521 5
 92  2 26  8 58 30.0020000  0  5 16 24 20 17  3
  22141624.379   -12259620.191 8  -9552938.405 6
  24500003.804    20350788.429 6  15857754.680 2
  21575708.844    -9370452.884 9  -7301644.979 8
  23441936.986    -5995741.942 6  -4672002.658 4
  22895243.547   -11184403.247 7  -8715111.822 6
 92  2 26  8 59  0.0020000  0  5 16 24 20 17  3
  22148919.529   -12221291.375 8  -9523071.811 5
  24517771.301    20444129.873 6  15930488.246 2
  21585581.008    -9318575.050 9  -7261220.707 8
  23429926.699    -6058826.982 6  -4721159.825 3
  22886449.440   -11230650.119 7  -8751148.338 6
 92  2 26  8 59 30.0020000  0  5 16 24 20 17  3
  22156325.001   -12182372.007 8  -9492745.021 6
  24535544.191    20537510.615 6  16003252.429 2
  21595567.401    -9266097.935 9  -7220329.459 9
  23417983.875    -6121625.824 6  -4770093.947 1
  22877659.818   -11276784.635 7  -8787097.349 5
 92  2 26  9  0  0.0020000  0  5 16 24 20 17  3
  22163834.492   -12142907.138 8  -9461993.195 6
  24553309.891    20630886.160 6  16076012.579 2
  21605655.425    -9213091.984 9  -7179026.162 8
  23406086.596    -6184190.373 6  -4818845.508 2
  22868903.194   -11322860.319 7  -8823000.456 5
 92  2 26  9  0 30.0020000  0  5 16 24 20 17  3
  22171449.820   -12102893.579 8  -9430813.810 6
  24571080.390    20724268.301 6  16148777.871 2
  21615839.372    -9159568.794 9  -7137319.786 8
  23394213.921    -6246545.838 6  -4867434.144 2
  22860142.957   -11368878.223 7  -8858858.475 4
 92  2 26  9  1  0.0020000  0  5 16 24 20 17  3
  22179178.765   -12062274.674 8  -9399162.732 6
  24588864.675    20817720.110 6  16221597.470 1
  21626132.138    -9105464.255 9  -7095160.410 8
  23382404.800    -6308636.294 6  -4915816.273 4
  22851406.698   -11414781.493 7  -8894627.285 4
 92  2 26  9  1 30.0020000  0  5 16 24 20 17  3
  22187016.548   -12021098.104 8  -9367077.093 6
  24606648.977    20911195.881 6  16294435.709 2
  21636534.335    -9050822.350 9  -7052582.290 8
  23370625.048    -6370500.186 6  -4964021.878 4
  22842687.243   -11460620.518 7  -8930345.950 6
 92  2 26  9  2  0.0020000  0  5 16 24 20 17  3
  22194958.055   -11979345.728 8  -9334542.789 6
  24624450.049    21004733.314 6  16367322.014 2
  21647039.663    -8995604.257 9  -7009555.244 8
  23358904.959    -6432100.558 6  -5012022.133 4
  22833980.369   -11506366.740 7  -8965992.311 5
 92  2 26  9  2 30.0020000  0  5 16 24 20 17  3
  22203007.771   -11937040.773 8  -9301577.902 6
  24642259.514    21098318.250 6  16440245.307 3
  21657660.720    -8939793.690 9  -6966066.512 8
  23347249.941    -6493433.073 6  -5059813.665 4
  22825288.782   -11552024.283 7  -9001569.634 5
 92  2 26  9  3  0.0020000  0  5 16 24 20 17  3
  22211160.338   -11894210.265 8  -9268203.489 6
  24660070.184    21191909.861 6  16513173.824 1
  21668388.189    -8883413.238 9  -6922133.732 7
  23335617.695    -6554503.183 6  -5107400.708 4
  22816613.686   -11597621.497 7  -9037099.912 5
 92  2 26  9  3 30.0020000  0  5 16 24 20 17  3
  22219424.115   -11850799.637 8  -9234377.037 6
  24677886.559    21285550.781 6  16586140.714 2
  21679233.186    -8826426.792 9  -6877728.715 8
  23324050.190    -6615257.995 6  -5154742.088 3
  22807954.190   -11643108.645 7  -9072544.380 5
 92  2 26  9  4  0.0020000  0  5 16 24 20 17  3
  22227790.727   -11806816.701 8  -9200104.618 6
  24695715.517    21379218.426 6  16659128.493 2
  21690190.596    -8768855.729 9  -6832868.174 8
  23312571.141    -6675715.133 7  -5201851.495 3
  22799326.453   -11688489.675 7  -9107906.122 5
 92  2 26  9  4 30.0030000  0  5 16 24 20 17  3
  22236255.360   -11762325.402 8  -9165436.092 6
  24713524.078    21472820.959 5  16732065.561 3
  21701239.152    -8710787.279 9  -6787620.053 8
  23301089.686    -6735955.530 6  -5248792.047 3
  22790691.234   -11733840.890 7  -9143244.722 4
 92  2 26  9  5  0.0030000  0  5 16 24 20 17  3
  22244830.327   -11717262.238 8  -9130321.952 6
  24731334.747    21566393.896 6  16804979.493 1
  21712391.133    -8652194.234 9  -6741963.131 8
  23289677.488    -6795934.498 6  -5295528.848 3
  22782079.097   -11779106.770 7  -9178516.773 3
 92  2 26  9  5 30.0030000  0  5 16 24 20 17  3
  22253518.302   -11671614.935 8  -9094752.639 6
  24749138.524    21659960.307 5  16877888.401 2
  21723639.945    -8593064.016 9  -6695887.664 8
  23278296.473    -6855658.623 6  -5342067.074 4
  22773485.842   -11824268.486 8  -9213707.670 4
 92  2 26  9  6  0.0030000  0  5 16 24 20 17  3
  22262322.024   -11625359.753 8  -9058709.651 6
  24766948.007    21753559.215 5  16950822.612 3
  21735006.563    -8533350.639 9  -6649357.778 8
  23266996.689    -6915101.013 6  -5388385.773 3
  22764916.285   -11869290.685 7  -9248789.916 5
 92  2 26  9  6 30.0030000  0  5 16 24 20 17  3
  22271221.949   -11578582.993 8  -9022260.241 7
  24784755.675    21847137.788 5  17023740.924 3
  21746467.936    -8473123.179 9  -6602427.292 8
  23255736.186    -6974334.715 7  -5434541.878 4
  22756357.197   -11914252.043 7  -9283824.760 4
 92  2 26  9  7  0.0030000  0  5 16 24 20 17  3
  22280226.820   -11531259.136 8  -8985384.527 7
  24802567.548    21940752.770 5  17096687.659 2
  21758030.921    -8412340.105 9  -6555063.871 8
  23244501.160    -7033325.710 6  -5480508.850 3
  22747819.713   -11959116.752 7  -9318784.286 5
 92  2 26  9  7 30.0030000  0  5 16 24 20 17  3
  22289334.507   -11483407.821 8  -8948097.798 6
  24820394.394    22034413.885 5  17169670.310 1
  21769704.855    -8350991.590 9  -6507259.848 7
  23233306.322    -7092073.683 6  -5526286.437 4
  22739302.908   -12003890.475 7  -9353672.828 5
 92  2 26  9  8  0.0030000  0  5 16 24 20 17  3
  22298553.440   -11434953.359 8  -8910341.078 6
  24838235.043    22128188.955 5  17242741.798 2
  21781501.080    -8289000.611 9  -6458955.211 8
  23222190.620    -7150482.462 6  -5571799.744 3
  22730813.377   -12048497.465 7  -9388431.451 4
 92  2 26  9  8 30.0030000  0  5 16 24 20 17  3
  22307872.781   -11385982.374 8  -8872181.892 6
  24856084.399    22221970.516 5  17315818.350 1
  21793403.141    -8226472.552 9  -6410232.032 8
  23211144.161    -7208627.367 6  -5617107.408 4
  22722337.945   -12093028.498 7  -9423130.970 5
 92  2 26  9  9  0.0030000  0  5 16 24 20 17  3
  22317276.668   -11336557.295 8  -8833668.856 6
  24873909.448    22315648.600 5  17388814.242 2
  21805391.545    -8163487.717 9  -6361152.977 8
  23200114.786    -7266570.385 6  -5662257.778 4
  22713863.422   -12137554.404 7  -9457826.477 5
 92  2 26  9  9 30.0030000  0  5 16 24 20 17  3
  22326786.095   -11286583.059 8  -8794727.901 6
  24891731.512    22409281.814 5  17461775.217 1
  21817471.982    -8099962.448 9  -6311652.782 8
  23189141.199    -7324218.388 6  -5707178.273 4
  22705411.671   -12181982.569 7  -9492445.802 6
 92  2 26  9 10  0.0030000  0  5 16 24 20 17  3
  22336398.634   -11236080.004 8  -8755374.878 6
  24909533.195    22502829.890 5  17534669.817 2
  21829659.440    -8035932.156 9  -6261759.063 8
  23178217.345    -7381594.673 6  -5751887.010 3
  22696971.314   -12226333.008 7  -9527004.557 5
 92  2 26  9 10 30.0030000  0  5 16 24 20 17  3
  22346113.415   -11185024.382 8  -8715591.291 6
  24927326.466    22596336.403 5  17607532.045 1
  21841948.529    -7971369.155 9  -6211450.227 8
  23167357.970    -7438690.944 6  -5796377.567 4
  22688550.747   -12270581.356 7  -9561483.740 5
 92  2 26  9 11  0.0030000  0  5 16 24 20 17  3
  22355934.607   -11133412.721 8  -8675374.425 7
  24945110.455    22689829.235 5  17680383.616 2
  21854338.359    -7906256.169 9  -6160712.881 7
  23156547.456    -7495526.237 7  -5840664.767 3
  22680158.954   -12314720.685 8  -9595877.908 6
 92  2 26  9 11 30.0030000  0  5 16 24 20 17  3
  22365860.134   -11081257.953 8  -8634734.367 6
  24962905.244    22783341.845 5  17753250.570 2
  21866829.504    -7840600.222 9  -6109552.411 8
  23145763.622    -7552132.488 6  -5884773.506 5
  22671769.553   -12358760.183 7  -9630194.351 6
 92  2 26  9 12  0.0030000  0  5 16 24 20 17  3
  22375889.088   -11028553.990 8  -8593666.342 6
  24980710.522    22876910.023 5  17826160.810 2
  21879425.298    -7774396.511 9  -6057965.140 8
  23135038.841    -7608519.142 6  -5928711.134 4
  22663411.352   -12402699.603 7  -9664432.825 6
 92  2 26  9 12 30.0030000  0  5 16 24 20 17  3
  22386023.878   -10975306.800 8  -8552175.025 6
  24998531.085    22970534.522 5  17899114.964 2
  21892126.892    -7707655.713 9  -6005959.381 7
  23124351.246    -7664697.424 6  -5972486.357 5
  22655070.218   -12446547.584 8  -9698600.058 4
 92  2 26  9 13  0.0030000  0  5 16 24 20 17  3
  22396260.891   -10921503.523 8  -8510250.415 7
  25016357.338    23064217.142 5  17972114.394 2
  21904934.323    -7640379.907 9  -5953536.669 7
  23113702.023    -7720639.402 6  -6016077.469 4
  22646747.982   -12490282.595 7  -9732679.237 5
 92  2 26  9 13 30.0030000  0  5 16 24 20 17  3
  22406592.345   -10867199.765 8  -8467935.809 6
  25034182.700    23157898.024 5  18045112.505 3
  21917821.500    -7572630.704 8  -5900745.081 7
  23103111.242    -7776365.251 7  -6059500.170 3
  22638436.845   -12533951.358 7  -9766706.816 6
 92  2 26  9 14  0.0030000  0  5 16 24 20 17  3
  22417027.819   -10812383.460 8  -8425221.802 6
  25052002.060    23251571.857 5  18118105.090 2
  21930813.013    -7504389.211 9  -5847569.907 8
  23092539.062    -7831823.473 6  -6102714.347 4
  22630143.978   -12577524.761 8  -9800660.171 6
 92  2 26  9 14 30.0030000  0  5 16 24 20 17  3
  22427552.621   -10757066.916 8  -8382118.017 6
  25069825.625    23345228.076 5  18191083.993 1
  21943884.273    -7435666.180 9  -5794019.532 8
  23082047.224    -7886997.145 7  -6145706.787 4
  22621871.807   -12620992.853 7  -9834531.398 6
 92  2 26  9 15  0.0030000  0  5 16 24 20 17  3
  22438169.770   -10701256.494 8  -8338629.387 6
  25087652.785    23438858.973 5  18264043.137 3
  21957057.739    -7366458.234 9  -5740091.274 7
  23071600.372    -7941888.708 6  -6188479.391 3
  22613620.611   -12664358.428 7  -9868322.736 5
 92  2 26  9 15 30.0030000  0  5 16 24 20 17  3
  22448895.756   -10644901.906 8  -8294716.732 6
  25105476.647    23532514.600 5  18337021.518 2
  21970331.055    -7296701.807 9  -5685735.619 7
  23061215.852    -7996461.274 6  -6231003.438 4
  22605398.505   -12707575.336 8  -9901998.218 6
 92  2 26  9 16  0.0030000  0  5 16 24 20 17  3
  22459719.166   -10588024.745 8  -8250396.856 5
  25123302.306    23626167.497 5  18409997.784 2
  21983704.797    -7226415.623 8  -5630967.175 8
  23050892.198    -8050757.986 7  -6273312.521 5
  22597191.981   -12750667.141 7  -9935576.205 5
 92  2 26  9 16 30.0030000  0  5 16 24 20 17  3
  22470647.487   -10530591.025 8  -8205643.325 6
  25141116.273    23719829.083 5  18482980.806 3
  21997185.562    -7155578.036 8  -5575769.111 7
  23040597.320    -8104785.331 6  -6315411.720 4
  22589020.847   -12793620.506 7  -9969046.338 6
 92  2 26  9 17  0.0030000  0  5 16 24 20 17  3
  22481670.266   -10472669.487 8  -8160509.657 6
  25158922.144    23813415.239 5  18555905.039
  22010757.765    -7084249.522 8  -5520188.460 7
  23030347.725    -8158622.146 6  -6357362.453 3
  22580859.590   -12836514.937 8 -10002470.550 6
 92  2 26  9 17 30.0030000  0  5 16 24 20 17  3
  22492791.063   -10414236.888 8  -8114977.776 5
  25176727.107    23906945.319 5  18628785.591 2
  22024428.301    -7012415.400 8  -5464213.822 6
  23020153.587    -8212240.011 7  -6399142.575 3
  22572713.339   -12879324.646 8 -10035828.756 6
 92  2 26  9 18  0.0030000  0  5 16 24 20 17  3
  22504007.801   -10355285.480 8  -8069041.617 6
  25194509.298    24000430.025 5  18701630.807 2
  22038195.668    -6940069.816 8  -5407840.647 8
  23010000.510    -8265625.970 7  -6440741.975 2
  22564584.156   -12922033.053 8 -10069108.050 5
 92  2 26  9 18 30.0030000  0  5 16 24 20 17  3
  22515321.074   -10295823.953 8  -8022707.968 6
  25212287.894    24093866.916 5  18774438.747 2
  22052056.882    -6867232.520 8  -5351084.344 7
  22999882.210    -8318775.058 7  -6482156.833 3
  22556471.479   -12964644.595 7 -10102311.838 5
 92  2 26  9 19  0.0030000  0  5 16 24 20 17  3
  22526745.854   -10235801.692 8  -7975937.396 6
  25230085.982    24187346.238 5  18847279.806 2
  22066019.708    -6793847.146 8  -5293900.931 7
  22989825.074    -8371599.457 7  -6523318.690 3
  22548401.365   -13007086.865 8 -10135383.663 6
 92  2 26  9 19 30.0030000  0  5 16 24 20 17  3
  22538256.995   -10175300.914 8  -7928793.938 6
  25247866.358    24280800.944 5  18920101.647 2
  22080070.990    -6720003.942 8  -5236360.764 7
  22979823.691    -8424182.482 7  -6564292.466 3
  22540340.847   -13049433.816 8 -10168381.222 6
 92  2 26  9 20  0.0030000  0  5 16 24 20 17  3
  22549870.045   -10114276.502 8  -7881242.451 6
  25265658.757    24374287.451 5  18992948.280 3
  22094221.197    -6645653.933 8  -5178425.715 8
  22969878.986    -8476472.708 7  -6605038.052 4
  22532312.107   -13091633.455 8 -10201264.022 5
 92  2 26  9 20 30.0030000  0  5 16 24 20 17  3
  22561577.849   -10052758.671 8  -7833306.492 6
  25283455.030    24467780.352 5  19065799.837 2
  22108462.826    -6570827.333 8  -5120119.300 7
  22959973.545    -8528486.105 7  -6645567.958 4
  22524304.045   -13133716.509 8 -10234056.019 6
 92  2 26  9 21  0.0030000  0  5 16 24 20 17  3
  22573377.373    -9990740.820 8  -7784980.913 6
  25301250.116    24561289.349 5  19138663.972 2
  22122792.910    -6495499.446 8  -5061422.248 7
  22950134.344    -8580222.015 7  -6685881.639 3
  22516316.679   -13175672.595 8 -10266749.065 5
 92  2 26  9 21 30.0030000  0  5 16 24 20 17  3
  22585276.135    -9928215.927 8  -7736260.220 6
  25319040.090    24654809.468 5  19211536.773 2
  22137223.716    -6419662.634 8  -5002328.633 7
  22940339.240    -8631682.810 7  -6725980.936 4
  22508363.184   -13217496.874 8 -10299339.450 4
 92  2 26  9 22  0.0030000  0  5 16 24 20 17  3
  22597271.432    -9865182.750 8  -7687143.461 6
  25336836.380    24748336.922 5  19284415.218 2
  22151756.449    -6343321.823 8  -4942842.309 7
  22930600.169    -8682859.334 7  -6765858.731 5
  22500424.678   -13259185.066 8 -10331823.746 5
 92  2 26  9 22 30.0030000  0  5 16 24 20 17  3
  22609360.263    -9801653.322 8  -7637640.023 6
  25354641.343    24841844.558 5  19357278.354 1
  22166377.935    -6266500.399 8  -4882981.491 6
  22920902.490    -8733779.618 6  -6805536.843 3
  22492514.058   -13300759.197 8 -10364219.192 6
 92  2 26  9 23  0.0030000  0  5 16 24 20 17  3
  22621544.423    -9737636.838 8  -7587757.062 6
  25372421.440    24935318.627 5  19430115.283 2
  22181077.056    -6189204.169 8  -4822750.641 6
  22911263.862    -8784458.285 6  -6845026.676 3
  22484628.008   -13342221.156 8 -10396527.232 6
 92  2 26  9 23 30.0030000  0  5 16 24 20 17  3
  22633820.041    -9673132.877 8  -7537494.230 6
  25390206.632    25028763.370 5  19502929.340 1
  22195876.917    -6111441.433 8  -4762156.337 6
  22901681.302    -8834884.727 7  -6884319.979 5
  22476758.466   -13383561.906 8 -10428740.768 6
 92  2 26  9 24  0.0030000  0  5 16 24 20 17  3
  22646171.183    -9608203.519 8  -7486899.944 6
  25407967.533    25122116.575 5  19575672.123 2
  22210750.226    -6033264.242 8  -4701239.083 6
  22892121.811    -8885115.979 7  -6923461.204 5
  22468904.507   -13424833.053 8 -10460900.086 6
 92  2 26  9 24 30.0030000  0  5 16 24 20 17  3
  22658628.160    -9542749.603 8  -7435896.914 6
  25425732.326    25215490.417 5  19648430.931 2
  22225726.945    -5954558.535 8  -4639909.961 6
  22882615.997    -8935052.540 7  -6962372.782 4
  22461087.717   -13465933.500 8 -10492926.374 6
 92  2 26  9 25  0.0030000  0  5 16 24 20 17  3
  22671176.874    -9476806.502 8  -7384512.697 5
  25443504.326    25308872.237 5  19721196.003 1
  22240806.202    -5875345.430 8  -4578185.468 6
  22873163.842    -8984710.916 7  -7001067.600 3
  22453294.310   -13506874.699 8 -10524828.570 6
 92  2 26  9 25 30.0030000  0  5 16 24 20 17  3
  22683810.133    -9410419.248 8  -7332782.370 5
  25461263.133    25402222.937 5  19793936.787 1
  22255965.224    -5795694.061 8  -4516119.491 6
  22863749.764    -9034142.209 7  -7039585.470 4
  22445524.583   -13547707.072 8 -10556646.035 5
 92  2 26  9 26  0.0030000  0  5 16 24 20 17  3
  22696531.220    -9343572.186 8  -7280693.775 6
  25479021.644    25495557.036 5  19866664.662 3
  22271208.460    -5715603.504 8  -4453711.282 6
  22854389.938    -9083340.173 7  -7077921.516 5
  22437771.347   -13588425.623 8 -10588374.851 6
 92  2 26  9 26 30.0030000  0  5 16 24 20 17  3
  22709340.447    -9276245.242 8  -7228231.240 6
  25496786.437    25588898.625 5  19939398.252 2
  22286527.256    -5635066.436 8  -4390955.148 6
  22845075.082    -9132288.865 7  -7116063.333 4
  22430046.606   -13629009.208 8 -10619998.436 6
 92  2 26  9 27  0.0030000  0  5 16 24 20 17  3
  22722253.713    -9208418.259 8  -7175379.064 6
  25514543.447    25682246.624 5  20012136.909 2
  22301941.382    -5554077.729 8  -4327847.083 6
  22835812.995    -9180966.161 7  -7153993.672 5
  22422362.630   -13669437.750 8 -10651501.199 7
 92  2 26  9 27 30.0030000  0  5 16 24 20 17  3
  22735251.508    -9140087.346 8  -7122134.206 6
  25532322.340    25775596.576 5  20084877.121 2
  22317433.755    -5472644.590 8  -4264392.711 6
  22826599.472    -9229365.399 7  -7191707.352 5
  22414696.330   -13709721.372 8 -10682891.019 6
 92  2 26  9 28  0.0030000  0  5 16 24 20 17  3
  22748348.839    -9071267.537 8  -7068508.398 6
  25550075.755    25868929.438 5  20157603.984 2
  22333025.071    -5390746.160 8  -4200575.794 6
  22817449.206    -9277478.632 7  -7229198.167 4
  22407055.822   -13749859.766 8 -10714167.668 6
 92  2 26  9 28 30.0030000  0  5 16 24 20 17  3
  22761528.028    -9002003.668 8  -7014536.578 6
  25567844.456    25962190.324 5  20230274.833 2
  22348691.021    -5308403.539 8  -4136412.730 5
  22808348.411    -9325338.643 7  -7266491.639 4
  22399438.384   -13789887.702 8 -10745358.232 6
 92  2 26  9 29  0.0030000  0  5 16 24 20 17  3
  22774812.129    -8932214.340 8  -6960155.299 5
  25585576.582    26055462.586 5  20302954.528 1
  22364458.899    -5225534.530 8  -4071839.484 5
  22799296.477    -9372864.456 7  -7303524.717 4
  22391850.942   -13829727.200 8 -10776401.985 7
 92  2 26  9 29 30.0030000  0  5 16 24 20 17  3
  22788181.665    -8861929.894 7  -6905388.212 5
  25603339.578    26148741.122 5  20375639.075 2
  22380334.112    -5142143.104 8  -4006859.169 6
  22790315.897    -9420074.626 7  -7340311.839 4
  22384307.561   -13869390.576 8 -10807308.498 6
 92  2 26  9 30  0.0030000  0  5 16 24 20 17  3
  22801635.155    -8791243.613 8  -6850308.009 6
  25621050.711    26241930.394 5  20448254.089 2
  22396283.070    -5058317.268 8  -3941540.344 6
  22781365.593    -9467075.605 7  -7376935.954 3
  22376780.968   -13908960.116 8 -10838141.908 7
 92  2 26  9 30 30.0030000  0  5 16 24 20 17  3
  22815172.284    -8720102.338 8  -6794873.273 6
  25638775.351    26335089.876 5  20520845.884 3
  22412318.075    -4974040.061 8  -3875869.833 6
  22772468.355    -9513834.199 7  -7413371.212 5
  22369273.867   -13948390.039 8 -10868866.530 6
 92  2 26  9 31  0.0030000  0  5 16 24 20 17  3
  22828804.743    -8648483.718 8  -6739066.571 5
  25656509.275    26428263.573 5  20593448.814 2
  22428443.315    -4889317.102 8  -3809851.931 6
  22763622.072    -9560326.202 7  -7449598.731 4
  22361804.249   -13987647.725 8 -10899456.899 5
 92  2 26  9 31 30.0030000  0  5 16 24 20 17  3
  22842516.356    -8576408.010 8  -6682903.682 6
  25674244.995    26521414.231 5  20666033.650 2
  22444643.190    -4804179.052 8  -3743510.613 6
  22754826.168    -9606566.040 7  -7485629.737 4
  22354364.297   -14026752.966 8 -10929928.490 6
 92  2 26  9 32  0.0030000  0  5 16 24 20 17  3
  22856321.799    -8503872.683 8  -6626382.675 6
  25691966.320    26614524.449 5  20738587.054
  22460910.841    -4718662.853 8  -3676874.646 6
  22746059.335    -9652563.713 7  -7521472.062 4
  22346943.836   -14065719.668 8 -10960292.140 7
 92  2 26  9 32 30.0030000  0  5 16 24 20 17  3
  22870212.975    -8430864.138 8  -6569492.927 6
  25709671.171    26707613.615 5  20811124.043 1
  22477265.709    -4632751.083 8  -3609930.442 5
  22737368.342    -9698284.324 7  -7557098.496 5
  22339562.935   -14104527.309 8 -10990531.848 6
 92  2 26  9 33  0.0030000  0  4 16 20 17  3
  22884191.699    -8357416.572 8  -6512261.089 5
  22493691.948    -4546444.086 8  -3542678.235 6
  22728716.628    -9743738.386 7  -7592517.245 5
  22332207.232   -14143195.986 8 -11020663.272 7
 92  2 26  9 33 30.0030000  0  4 16 20 17  3
  22898248.373    -8283545.843 8  -6454699.481 6
  22510185.318    -4459739.926 8  -3475116.597 6
  22720121.279    -9788946.955 7  -7627744.686 4
  22324868.909   -14181745.086 8 -11050701.528 6
 92  2 26  9 34  0.0030000  0  4 16 20 17  3
  22912391.984    -8209207.320 8  -6396773.387 6
  22526774.647    -4372572.868 8  -3407194.256 6
  22711565.507    -9833863.111 7  -7662744.260 5
  22317566.569   -14220110.299 8 -11080596.482 6
 92  2 26  9 34 30.0030000  0  4 16 20 17  3
  22926625.533    -8134431.088 8  -6338506.242 6
  22543453.600    -4284936.743 8  -3338906.369 5
  22703076.587    -9878503.786 7  -7697529.184 4
  22310299.600   -14258299.283 8 -11110354.122 6
 92  2 26  9 35  0.0030000  0  4 16 20 17  3
  22940939.127    -8059204.860 7  -6279888.435 4
  22560218.286    -4196830.743 8  -3270252.375 6
  22694639.529    -9922866.778 7  -7732097.734 4
  22303068.910   -14296299.585 8 -11139964.746 7
 92  2 26  9 35 30.0030000  0  4 16 20 17  3
  22955342.641    -7983514.509 8  -6220908.959 6
  22577080.117    -4108260.655 8  -3201236.755 6
  22686234.841    -9966953.428 7  -7766450.956 5
  22295878.391   -14334098.201 8 -11169418.207 6
 92  2 26  9 36  0.0030000  0  4 16 20 17  3
  22969827.124    -7907399.285 7  -6161598.426 5
  22594009.097    -4019258.066 8  -3131884.115 5
  22677903.008   -10010786.515 7  -7800606.597 5
  22288718.741   -14371723.991 8 -11198736.998 6
 92  2 26  9 36 30.0030000  0  4 16 20 17  3
  22984383.538    -7830898.941 8  -6101987.796 5
  22611015.712    -3929885.187 7  -3062242.936 5
  22669601.154   -10054400.442 7  -7834591.451 4
  22281582.789   -14409224.419 8 -11227958.112 6
 92  2 26  9 37  0.0030000  0  4 16 20 17  3
  22999023.311    -7753967.415 8  -6042041.195 6
  22628105.094    -3840120.347 8  -2992296.337 6
  22661354.163   -10097758.180 7  -7868376.669 3
  22274475.908   -14446564.240 8 -11257054.065 6
 92  2 26  9 37 30.0030000  0  4 16 20 17  3
  23013744.314    -7676608.558 8  -5981761.593 5
  22645256.215    -3749955.304 7  -2922037.913 6
  22653161.740   -10140853.867 7  -7901957.710 4
  22267402.602   -14483744.560 8 -11286025.734 6
 92  2 26  9 38  0.0030000  0  4 16 20 17  3
  23028538.469    -7598864.525 8  -5921181.846 6
  22662491.883    -3659427.662 8  -2851496.924 6
  22645003.484   -10183713.391 7  -7935354.718 5
  22260349.381   -14520801.370 8 -11314901.175 7
 92  2 26  9 38 30.0030000  0  4 16 20 17  3
  23043414.483    -7520678.162 7  -5860257.446 6
  22679798.607    -3568488.835 8  -2780635.498 6
  22636894.996   -10226286.479 7  -7968528.541 5
  22253332.736   -14557676.070 8 -11343634.705 6
 92  2 26  9 39  0.0030000  0  4 16 20 17  3
  23058377.120    -7442075.611 7  -5799008.744 5
  22697165.884    -3477147.327 7  -2709460.334 6
  22628834.182   -10268601.062 7  -8001500.941 6
  22246347.274   -14594387.256 8 -11372240.814 6
 92  2 26  9 39 30.0030000  0  4 16 20 17  3
  23073418.300    -7363020.585 7  -5737407.438 5
  22714632.086    -3385353.279 7  -2637932.544 6
  22620843.815   -10310615.082 7  -8034239.115 4
  22239403.484   -14630890.393 8 -11400684.824 6
 92  2 26  9 40  0.0030000  0  5 16 20 17 23  3
  23088527.536    -7283615.303 7  -5675533.210 5
  22732167.252    -3293221.962 7  -2566141.954 5
  22612883.427   -10352439.336 7  -8066829.431 4
  25141470.321     -225783.289 5   -175934.949 3
  22232475.276   -14667283.212 8 -11429042.858 6
 92  2 26  9 40 30.0030000  0  5 16 20 17 23  3
  23103721.319    -7203762.258 7  -5613310.108 5
  22749783.055    -3200676.408 7  -2494028.562 5
  22604975.197   -10394007.266 7  -8099220.018 5
  25123350.259     -321008.581 5   -250136.438 4
  22225588.740   -14703482.435 8 -11457250.040 6
 92  2 26  9 41  0.0030000  0  5 16 20 17 23  3
  23118997.257    -7123500.173 7  -5550768.266 5
  22767460.910    -3107765.665 8  -2421630.606 6
  22597105.952   -10435360.029 7  -8131442.936 5
  25105238.312     -416160.781 5   -324280.914 3
  22218727.087   -14739531.799 8 -11485340.445 7
 92  2 26  9 41 30.0030000  0  5 16 20 17 23  3
  23134358.021    -7042773.504 7  -5487864.378 5
  22785214.326    -3014461.243 7  -2348925.910 6
  22589292.756   -10476444.630 8  -8163456.900 5
  25087161.125     -511195.508 5   -398333.938 3
  22211905.326   -14775378.503 8 -11513272.930 7
 92  2 26  9 42  0.0030000  0  5 16 20 17 23  3
  23149810.223    -6961569.964 7  -5424588.907 6
  22803049.583    -2920770.998 8  -2275920.556 6
  22581535.629   -10517242.113 8  -8195247.139 5
  25069095.333     -606095.500 5   -472281.838 2
  22205127.906   -14811008.767 8 -11541036.773 7
 92  2 26  9 42 30.0030000  0  5 16 20 17 23  3
  23165345.157    -6879934.872 7  -5360977.148 5
  22820946.892    -2826725.428 8  -2202638.320 5
  22573812.075   -10557775.178 7  -8226831.337 4
  25051061.615     -700882.657 5   -546141.944 3
  22198379.575   -14846455.119 8 -11568657.308 7
 92  2 26  9 43  0.0030000  0  5 16 20 17 23  3
  23180957.448    -6797897.055 7  -5297051.597 6
  22838906.255    -2732312.308 8  -2129069.666 6
  22566156.281   -10598026.392 7  -8258195.917 4
  25033046.482     -795533.056 5   -619895.451 2
  22191670.228   -14881706.306 8 -11596125.762 6
 92  2 26  9 43 30.0030000  0  5 16 20 17 23  3
  23196635.108    -6715508.933 7  -5232853.070 5
  22856935.174    -2637556.400 7  -2055233.941 6
  22558548.439   -10638039.034 8  -8289374.596 5
  25015060.141     -890070.513 4   -693561.012 3
  22184998.050   -14916790.567 8 -11623464.131 6
 92  2 26  9 44  0.0030000  0  5 16 20 17 23  3
  23212378.398    -6632776.350 7  -5168386.124 5
  22875033.039    -2542431.084 7  -1981110.371 6
  22550972.392   -10677806.451 7  -8320362.178 5
  24997097.463     -984473.800 5   -767121.960 4
  22178351.052   -14951696.404 8 -11650663.452 6
 92  2 26  9 44 30.0030000  0  5 16 20 17 23  3
  23228184.665    -6549712.158 7  -5103660.812 6
  22893208.261    -2446925.651 7  -1906690.583 6
  22543450.895   -10717334.002 7  -8351162.876 6
  24979159.982    -1078735.375 5   -840572.505 2
  22171744.522   -14986421.126 8 -11677721.693 7
 92  2 26  9 45  0.0030000  0  5 16 20 17 23  3
  23244053.876    -6466324.711 7  -5038683.605 4
  22911456.024    -2351067.655 7  -1831996.059 6
  22535970.772   -10756646.326 7  -8381795.875 6
  24961232.693    -1172882.563 5   -913933.893 2
  22165167.675   -15020985.163 8 -11704654.711 7
 92  2 26  9 45 30.0030000  0  5 16 20 17 23  3
  23260000.443    -6382521.178 7  -4973382.155 5
  22929774.844    -2254813.194 7  -1756992.641 5
  22528544.011   -10795675.470 7  -8412208.225 5
  24943356.673    -1266857.363 5   -987160.950 2
  22158633.702   -15055326.835 8 -11731414.446 6
 92  2 26  9 46  0.0030000  0  5 16 20 17 23  3
  23276028.241    -6298288.810 7  -4907746.561 5
  22948164.721    -2158181.824 7  -1681695.521 5
  22521177.821   -10834399.142 7  -8442382.528 5
  24925505.240    -1360657.326 5  -1060251.812 4
  22152136.899   -15089447.238 8 -11758001.762 6
 92  2 26  9 46 30.0030000  0  5 16 20 17 23  3
  23292123.502    -6213704.229 7  -4841836.512 6
  22966609.147    -2061262.586 7  -1606174.060 4
  22513852.691   -10872891.398 7  -8472376.488 5
  24907677.469    -1454369.419 5  -1133274.211 3
  22145672.466   -15123428.319 8 -11784480.529 6
 92  2 26  9 47  0.0030000  0  5 16 20 17 23  3
  23308301.791    -6128695.467 7  -4775595.933 6
  22985105.750    -1963992.585 7  -1530379.257 5
  22506581.813   -10911088.630 7  -8502140.585 5
  24889876.397    -1547923.461 5  -1206173.433 3
  22139250.018   -15157202.511 8 -11810798.068 7
 92  2 26  9 47 30.0030000  0  5 16 20 17 23  3
  23324553.249    -6043299.485 7  -4709053.618 5
  23003687.178    -1866385.945 7  -1454322.169 6
  22499363.722   -10949011.734 7  -8531691.083 6
  24872103.193    -1641327.737 6  -1278955.946 3
  22132857.846   -15190785.876 8 -11836966.941 6
 92  2 26  9 48  0.0030000  0  5 16 20 17 23  3
  23340873.949    -5957541.496 7  -4642229.229 5
  23022316.280    -1768429.225 7  -1377992.303 6
  22492197.476   -10986669.913 7  -8561035.118 5
  24854353.687    -1734585.663 5  -1351624.427 2
  22126501.046   -15224180.714 8 -11862988.884 7
 92  2 26  9 48 30.0030000  0  5 16 20 17 23  3
  23357264.798    -5871394.567 7  -4575101.786 5
  23041049.106    -1670078.044 7  -1301355.058 5
  22485087.001   -11024054.516 7  -8590165.994 6
  24836639.849    -1827675.517 5  -1424161.941 3
  22120188.011   -15257349.516 8 -11888834.682 7
 92  2 26  9 49  0.0030000  0  5 16 20 17 23  3
  23373730.597    -5784864.595 7  -4507675.834 5
  23059837.703    -1571349.438 7  -1224423.680 5
  22478023.886   -11061183.209 7  -8619097.458 5
  24818951.191    -1920604.744 5  -1496574.289 4
  22113922.057   -15290294.380 8 -11914505.992 6
 92  2 26  9 49 30.0030000  0  5 16 20 17 23  3
  23390267.750    -5697969.100 7  -4439965.051 4
  23078677.569    -1472268.894 7  -1147218.098 6
  22470994.956   -11098078.143 7  -8647846.738 6
  24801298.813    -2013396.490 6  -1568879.522 4
  22107690.566   -15323033.627 8 -11940017.086 7
 92  2 26  9 50  0.0030000  0  5 16 20 17 23  3
  23406874.755    -5610681.430 7  -4371948.688 5
  23097608.263    -1372827.586 7  -1069731.439 6
  22464027.171   -11134719.309 7  -8676398.280 4
  24783671.318    -2106029.290 5  -1641060.894 3
  22101504.953   -15355546.194 8 -11965351.551 7
 92  2 26  9 50 30.0030000  0  5 16 20 17 23  3
  23423561.805    -5522999.708 7  -4303625.275 4
  23116603.105    -1273044.940 7   -991978.758 4
  22457104.373   -11171114.764 7  -8704758.356 5
  24766075.601    -2198490.030 6  -1713108.200 4
  22095359.806   -15387831.873 8 -11990509.215 7
 92  2 26  9 51  0.0030000  0  5 16 20 17 23  3
  23440323.211    -5434924.613 7  -4234995.311 5
  23135650.122    -1172933.637 7   -913969.971 4
  22450230.436   -11207247.764 7  -8732913.927 5
  24748515.254    -2290756.529 6  -1785004.099 4
  22089258.722   -15419890.473 8 -12015489.924 6
 92  2 26  9 51 30.0030000  0  5 16 20 17 23  3
  23457167.941    -5346411.237 7  -4166023.856 6
  23154763.398    -1072432.743 7   -835657.601 6
  22443405.952   -11243042.734 7  -8760806.096 6
  24731013.384    -2382766.580 5  -1856700.226 2
  22083215.502   -15451659.878 8 -12040245.312 7
 92  2 26  9 52  0.0030000  0  5 16 20 17 23  3
  23474078.039    -5257533.115 7  -4096768.185 5
  23173957.311     -971602.881 7   -757088.929 5
  22436651.933   -11278562.022 8  -8788483.440 6
  24713536.974    -2474579.261 5  -1928242.555 5
  22077213.970   -15483195.928 8 -12064818.825 7
 92  2 26  9 52 30.0030000  0  5 16 20 17 23  3
  23491050.784    -5168346.433 7  -4027272.042 5
  23193205.774     -870505.498 7   -678311.784 5
  22429936.286   -11313859.098 8  -8815987.629 5
  24696097.453    -2566250.379 5  -1999674.585 4
  22071243.588   -15514552.175 8 -12089252.263 7
 92  2 26  9 53  0.0030000  0  5 16 20 17 23  3
  23508087.083    -5078818.068 7  -3957509.685 5
  23212499.520     -769096.628 7   -599291.907 4
  22423272.798   -11348885.889 7  -8843281.223 6
  24678680.408    -2657748.365 5  -2070971.657 3
  22065319.989   -15545683.806 8 -12113510.651 7
 92  2 26  9 53 30.0030000  0  5 16 20 17 23  3
  23525183.358    -4988982.435 7  -3887507.906 4
  23231850.223     -667404.368 7   -520051.210 5
  22416653.372   -11383686.097 7  -8870398.262 6
  24661297.531    -2749102.504 5  -2142156.644 2
  22059432.373   -15576617.916 8 -12137615.157 7
 92  2 26  9 54  0.0030000  0  5 16 20 17 23  3
  23542336.887    -4898836.331 7  -3817264.170 3
  23251248.897     -565442.924 7   -440600.793 5
  22410074.134   -11418267.722 7  -8897344.968 5
  24643940.148    -2840313.699 5  -2213230.248 2
  22053578.628   -15607364.704 8 -12161573.705 7
 92  2 26  9 54 30.0030000  0  5 16 20 17 23  3
  23559556.954    -4808340.718 7  -3746748.102 4
  23270706.623     -463183.134 7   -360917.850 4
  22403544.350   -11452583.183 8  -8924084.279 5
  24626613.949    -2931342.344 5  -2284161.624 3
  22047775.540   -15637885.190 8 -12185355.870 7
 92  2 26  9 55  0.0030000  0  5 16 20 17 23  3
  23576842.686    -4717504.350 7  -3675966.544 4
  23290226.419     -360635.551 7   -281010.671 4
  22397058.331   -11486641.530 8  -8950623.247 6
  24609324.326    -3022195.356 5  -2354956.164 3
  22042010.529   -15668184.564 8 -12208965.763 7
 92  2 26  9 55 30.0030000  0  5 16 20 17 23  3
  23594193.786    -4626313.752 7  -3604908.939 4
  23309791.760     -257800.140 7   -200879.222 4
  22390633.196   -11520430.483 8  -8976952.287 6
  24592068.870    -3112863.518 5  -2425606.627 2
  22036287.800   -15698247.189 8 -12232391.162 7
 92  2 26  9 56  0.0030000  0  5 16 20 17 23  3
  23611615.019    -4534788.010 7  -3533590.149 5
  23329400.291     -154705.312 7   -120545.634 5
  22384242.804   -11553950.926 7  -9003072.086 6
  24574849.693    -3203365.960 6  -2496127.980 3
  22030612.431   -15728084.681 8 -12255641.131 7
 92  2 26  9 56 30.0030000  0  5 16 20 17 23  3
  23629102.511    -4442897.786 7  -3461987.397 4
  23349078.971      -51312.047 7    -39979.477 5
  22377925.284   -11587185.535 8  -9028969.155 6
  24557674.874    -3293667.102 6  -2566492.493 2
  22024981.420   -15757661.427 8 -12278687.938 8
 92  2 26  9 57  0.0030000  0  5 16 20 17 23  3
  23646648.774    -4350668.132 7  -3390120.150 4
  23368809.514       52365.752 7     40808.403 4
  22371655.717   -11620158.448 8  -9054662.309 6
  24540520.159    -3383778.694 6  -2636709.299 1
  22019400.492   -15786993.595 8 -12301544.153 8
 92  2 26  9 57 30.0030000  0  5 16 20 17 23  3
  23664268.469    -4258089.971 7  -3317981.289 5
  23388602.406      156371.820 7    121852.058 6
  22365433.231   -11652842.120 8  -9080130.101 6
  24523416.398    -3473668.653 6  -2706753.377 1
  22013869.610   -15816061.068 8 -12324194.118 7
 92  2 26  9 58  0.0030000  0  5 16 20 17 23  3
  23681944.527    -4165200.223 7  -3245599.672 5
  23408461.556      260684.746 7    203134.812 5
  22359253.307   -11685283.771 8  -9105409.271 5
  24506344.117    -3563366.927 6  -2776648.139 4
  22008380.121   -15844910.833 8 -12346674.442 7
 92  2 26  9 58 30.0030000  0  5 16 20 17 23  3
  23699681.452    -4071976.465 7  -3172957.816 4
  23428364.175      365357.769 7    284698.183 5
  22353128.856   -11717461.877 8  -9130483.076 6
  24489320.400    -3652849.244 6  -2846374.592 2
  22002937.677   -15873507.104 8 -12368957.239 6
 92  2 26  9 59  0.0030000  0  5 16 20 17 23  3
  23717478.039    -3978463.329 7  -3100090.390 4
  23448353.748      470346.530 7    366507.610 3
  22347052.952   -11749397.824 8  -9155368.217 5
  24472334.759    -3742140.123 6  -2915951.877 3
  21997538.423   -15901879.251 8 -12391065.399 8
 92  2 26  9 59 30.0030000  0  5 16 20 17 23  3
  23735325.877    -3884664.490 7  -3027000.425 5
  23468395.463      575632.794 7    448548.799 5
  22341021.127   -11781104.859 8  -9180074.978 6
  24455370.704    -3831249.616 6  -2985387.839 2
  21992179.339   -15930032.966 8 -12413003.338 7
 92  2 26 10  0  0.0030000  0  5 16 20 17 23  3
  23753239.974    -3790529.015 7  -2953648.118 5
  23488485.463      681225.536 7    530828.822 5
  22335040.571   -11812549.792 8  -9204577.510 6
  24438454.010    -3920138.866 6  -3054652.123 3
  21986875.711   -15957914.708 8 -12434729.358 8
 92  2 26 10  0 30.0030000  0  5 16 20 17 23  3
  23771214.937    -3696073.580 7  -2880046.436 3
  23508628.511      787083.554 7    613315.567 4
  22329101.686   -11843746.188 8  -9228886.362 6
  24421578.689    -4008809.864 6  -3123746.367 2
  21981622.131   -15985527.684 8 -12456245.951 7
 92  2 26 10  1  0.0030000  0  5 16 20 17 23  3
  23789252.844    -3601277.688 7  -2806179.479 3
  23528820.733      893194.924 7    695999.747 4
  22323224.558   -11874675.450 8  -9252987.056 6
  24404753.137    -4097229.485 6  -3192644.728 4
  21976421.042   -16012856.231 8 -12477540.902 7
 92  2 26 10  1 30.0030000  0  5 16 20 17 23  3
  23807350.412    -3506185.977 7  -2732082.079 4
  23549049.532      999511.437 7    778843.737 4
  22317375.000   -11905390.415 8  -9276920.748 6
  24387967.755    -4185457.713 6  -3261393.978 3
  21971266.404   -16039945.588 9 -12498649.469 8
 92  2 26 10  2  0.0030000  0  5 16 20 17 23  3
  23825502.547    -3410798.072 7  -2657753.852 4
  23569320.891     1106039.565 6    861852.618 4
  22311568.615   -11935882.329 8  -9300680.637 5
  24371217.152    -4273484.887 6  -3329986.549 3
  21966158.551   -16066792.293 9 -12519568.957 8
 92  2 26 10  2 30.0030000  0  5 16 20 17 23  3
  23843705.951    -3315127.915 7  -2583205.659 3
  23589632.142     1212792.754 6    945036.926 4
  22305819.798   -11966135.221 8  -9324254.273 5
  24354504.328    -4361308.885 6  -3398420.787 4
  21961091.444   -16093400.174 8 -12540302.359 7
 92  2 26 10  3  0.0030000  0  5 16 20 17 23  3
  23861976.504    -3219130.252 7  -2508402.293 3
  23610006.929     1319837.109 7   1028448.106 5
  22300115.060   -11996094.752 8  -9347599.312 6
  24337832.861    -4448890.387 6  -3466666.076 4
  21956085.221   -16119719.445 8 -12560810.861 7
 92  2 26 10  3 30.0030000  0  5 16 20 17 23  3
  23880290.821    -3122870.614 7  -2433394.753 3
  23630419.496     1427110.540 6   1112037.741 4
  22294454.366   -12025831.736 8  -9370770.945 5
  24321203.676    -4536306.024 6  -3534782.114 3
  21951118.261   -16145821.479 8 -12581150.089 7
 92  2 26 10  4  0.0030000  0  5 16 20 17 23  3
  23898659.706    -3026331.434 7  -2358169.406 4
  23650881.237     1534627.484 6   1195817.138 4
  22288839.549   -12055337.838 8  -9393762.680 6
  24304606.564    -4623530.402 6  -3602749.106 4
  21946198.364   -16171687.179 9 -12601305.164 7
 92  2 26 10  4 30.0030000  0  5 16 20 17 23  3
  23917087.939    -2929507.540 7  -2282722.243 5
  23671390.635     1642393.978 7   1279791.039 3
  22283270.609   -12084606.592 8  -9416569.497 6
  24288052.328    -4710554.528 6  -3670560.076 3
  21941324.029   -16197299.673 8 -12621262.937 7
 92  2 26 10  5  0.0030000  0  5 16 20 17 23  3
  23935569.848    -2832371.003 6  -2207031.424 4
  23691943.816     1750419.818 7   1363966.996 4
  22277746.341   -12113630.777 8  -9439185.720 6
  24271530.776    -4797353.531 6  -3738195.604 4
  21936499.481   -16222638.043 9 -12641007.100 7
 92  2 26 10  5 30.0030000  0  5 16 20 17 23  3
  23954105.714    -2734973.860 6  -2131137.532 4
  23712542.856     1858644.197 7   1448297.613 2
  22272261.930   -12142455.811 8  -9461646.778 5
  24255050.878    -4883963.322 6  -3805683.714 3
  21931720.494   -16247743.728 9 -12660569.960 7
 92  2 26 10  6  0.0030000  0  5 16 20 17 23  3
  23972688.346    -2637339.969 7  -2055059.208 5
  23733169.763     1967061.939 6   1532778.996 3
  22266812.000   -12171083.379 8  -9483953.971 6
  24238596.771    -4970379.480 6  -3873020.927 3
  21926990.665   -16272618.729 8 -12679953.076 7
 92  2 26 10  6 30.0030000  0  5 16 20 17 23  3
  23991317.762    -2539425.164 7  -1978761.953 4
  23753850.645     2075723.492 7   1617450.327 4
  22261421.732   -12199438.234 8  -9506048.638 6
  24222210.719    -5056537.984 6  -3940157.365 5
  21922312.698   -16297207.752 8 -12699113.324 7
 92  2 26 10  7  0.0030000  0  5 16 20 17 23  3
  24010011.919    -2441181.010 7  -1902208.065 5
  23774581.905     2184672.488 7   1702345.601 5
  22256083.937   -12227469.382 8  -9527891.078 6
  24205868.730    -5142398.123 6  -4007061.348 4
  21917696.190   -16321467.883 9 -12718017.301 7
 92  2 26 10  7 30.0030000  0  5 16 20 17 23  3
  24028770.536    -2342603.786 7  -1825394.647 5
  23795362.008     2293911.927 6   1787467.237 4
  22250811.180   -12255170.729 8  -9549476.538 6
  24189581.901    -5227958.480 6  -4073731.731 2
  21913138.752   -16345388.798 9 -12736656.956 8
 92  2 26 10  8  0.0030000  0  5 16 20 17 23  3
  24047587.595    -2243725.794 7  -1748346.887 4
  23816199.993     2403396.912 7   1872780.211 5
  22245592.692   -12282580.565 8  -9570834.825 6
  24173350.546    -5313270.874 6  -4140208.880 2
  21908646.368   -16369013.588 9 -12755065.870 7
 92  2 26 10  8 30.0030000  0  5 16 20 17 23  3
  24066452.641    -2144582.016 7  -1671091.998 4
  23837072.443     2513062.394 7   1958233.812 5
  22240426.974   -12309748.422 8  -9592004.538 6
  24157153.045    -5398397.080 6  -4206540.971 1
  21904195.637   -16392389.639 9 -12773280.958 7
 92  2 26 10  9  0.0030000  0  5 16 20 17 23  3
  24085372.551    -2045168.165 7  -1593626.676 4
  23857982.655     2622908.440 7   2043828.077 4
  22235301.426   -12336676.053 8  -9612987.092 6
  24140990.932    -5483342.328 6  -4272732.039 3
  21899800.975   -16415508.869 9 -12791295.933 7
 92  2 26 10  9 30.0030000  0  5 16 20 17 23  3
  24104348.214    -1945450.979 7  -1515924.998 3
  23878915.675     2732978.761 6   2129597.153 4
  22230229.834   -12363322.544 8  -9633750.595 6
  24124866.896    -5568045.257 6  -4338734.304 2
  21895457.895   -16438322.892 9 -12809073.078 7
 92  2 26 10 10  0.0030000  0  5 16 20 17 23  3
  24123368.533    -1845475.455 7  -1438021.991 4
  23899904.744     2843251.544 6   2215523.998 4
  22225206.510   -12389720.957 8  -9654320.776 6
  24108796.519    -5652534.042 6  -4404569.710 4
  21891166.363   -16460862.784 9 -12826636.622 8
 92  2 26 10 10 30.0030000  0  5 16 20 17 23  3
  24142436.543    -1745290.751 7  -1359955.989 4
  23920919.291     2953711.257 6   2301596.448 5
  22220223.967   -12415909.419 8  -9674727.371 6
  24092751.637    -5736828.905 6  -4470253.985 4
  21886926.099   -16483150.955 9 -12844004.024 8
 92  2 26 10 11  0.0030000  0  5 16 20 17 23  3
  24161547.707    -1644872.290 7  -1281707.868 4
  23941982.402     3064401.054 6   2387848.197 4
  22215276.184   -12441870.252 8  -9694956.556 6
  24076762.806    -5820874.860 6  -4535744.289 2
  21882740.996   -16505149.718 9 -12861145.905 8
 92  2 26 10 11 30.0030000  0  5 16 20 17 23  3
  24180701.747    -1544211.034 7  -1203270.560 5
  23963091.703     3175331.281 6   2474287.353 3
  22210393.160   -12467588.773 8  -9714996.942 6
  24060819.833    -5904649.485 6  -4601023.162 3
  21878612.257   -16526842.009 9 -12878048.971 7
 92  2 26 10 12  0.0030000  0  5 16 20 17 23  3
  24199899.255    -1443329.761 7  -1124661.787 4
  23984246.253     3286465.810 6   2560885.680 4
  22205543.116   -12493077.630 8  -9734858.353 6
  24044917.345    -5988181.247 6  -4666112.803 4
  21874539.568   -16548250.549 8 -12894730.936 8
 92  2 26 10 12 30.0030000  0  5 16 20 17 23  3
  24219137.841    -1342229.590 6  -1045882.457 4
  24005419.388     3397771.954 6   2647617.696 3
  22200727.851   -12518345.777 8  -9754547.831 6
  24029067.923    -6071471.350 6  -4731014.161 5
  21870514.553   -16569383.254 9 -12911197.960 8
 92  2 26 10 13  0.0030000  0  5 16 20 17 23  3
  24238427.381    -1240853.269 7   -966887.946 4
  24026645.606     3509277.924 6   2734505.449 3
  22195979.140   -12543341.348 8  -9774024.899 6
  24013276.959    -6154466.418 6  -4795685.621 3
  21866557.594   -16590190.943 9 -12927411.728 8
 92  2 26 10 13 30.0030000  0  5 16 20 17 23  3
  24257773.600    -1139194.753 6   -887673.548 2
  24047894.596     3620982.942 6   2821548.350 3
  22191277.493   -12568045.964 8  -9793275.217 6
  23997532.762    -6237179.503 6  -4860137.329 4
  21862658.500   -16610670.337 8 -12943369.673 7
 92  2 26 10 14  0.0040000  0  5 16 20 17 23  3
  24277171.667    -1037260.430 6   -808244.205 3
  24069189.153     3732861.134 6   2908726.117 4
  22186619.318   -12592510.550 8  -9812338.508 7
  23981848.509    -6319643.618 6  -4924395.034 3
  21858822.649   -16630847.886 9 -12959092.432 7
 92  2 26 10 14 30.0040000  0  5 16 20 17 23  3
  24296617.404     -935081.084 6   -728623.957 4
  24090509.794     3844891.110 6   2996022.189 3
  22181999.530   -12616770.782 8  -9831242.569 6
  23966195.751    -6401871.491 6  -4988468.641 3
  21855037.767   -16650738.159 8 -12974591.331 7
 92  2 26 10 15  0.0040000  0  5 16 20 17 23  3
  24316105.703     -832640.465 6   -648800.121 3
  24111858.006     3957104.476 6   3083461.213 2
  22177425.583   -12640805.957 8  -9849971.264 6
  23950592.150    -6483846.631 6  -5052345.324 4
  21851311.953   -16670313.836 8 -12989845.091 8
 92  2 26 10 15 30.0040000  0  5 16 20 17 23  3
  24335654.885     -729923.166 6   -568760.706 3
  24133248.797     4069511.444 6   3171051.006 4
  22172904.110   -12664590.741 8  -9868504.853 6
  23935048.212    -6565552.574 6  -5116012.281 4
  21847648.489   -16689560.180 8 -13004842.242 8
 92  2 26 10 16  0.0040000  0  5 16 20 17 23  3
  24355238.810     -626995.522 6   -488557.317 3
  24154671.662     4182063.203 6   3258753.655 3
  22168410.836   -12688166.127 8  -9886875.266 6
  23919548.039    -6647014.879 7  -5179489.363 4
  21844039.889   -16708522.884 8 -13019618.359 7
 92  2 26 10 16 30.0040000  0  5 16 20 17 23  3
  24374871.335     -523843.405 6   -408179.063 3
  24176126.914     4294813.530 6   3346611.068 2
  22163983.785   -12711454.632 8  -9905022.137 6
  23904097.930    -6728179.634 6  -5242734.581 4
  21840494.842   -16727149.420 8 -13034132.538 8
 92  2 26 10 17  0.0040000  0  5 16 20 17 23  3
  24394536.509     -420488.537 6   -327642.826 4
  24197617.241     4407736.452 7   3434602.939 2
  22159612.227   -12734458.138 8  -9922946.931 7
  23888717.081    -6809074.033 7  -5305769.136 5
  21837013.053   -16745462.674 8 -13048402.590 7
 92  2 26 10 17 30.0040000  0  5 16 20 17 23  3
  24414246.373     -316934.122 6   -246951.048 3
  24219135.436     4520821.483 6   3522721.096 3
  22155287.417   -12757173.933 8  -9940647.532 7
  23873363.210    -6889711.921 6  -5368603.814 4
  21833581.921   -16763475.444 9 -13062438.503 8
 92  2 26 10 18  0.0040000  0  5 16 20 17 23  3
  24433994.889     -213136.397 6   -166069.749 3
  24240702.212     4634139.370 6   3611020.749 2
  22151025.864   -12779560.357 8  -9958091.487 7
  23858067.798    -6970035.289 6  -5431193.433 5
  21830226.942   -16781121.513 9 -13076188.683 8
 92  2 26 10 18 30.0040000  0  5 16 20 17 23  3
  24453787.502     -109149.845 6    -85041.289 4
  24262294.169     4747611.804 6   3699440.836 2
  22146808.688   -12801703.715 8  -9975346.033 6
  23842833.845    -7050130.076 6  -5493604.933 3
  21826924.436   -16798464.986 9 -13089703.067 8
 92  2 26 10 19  0.0040000  0  5 16 20 17 23  3
  24473615.765       -4930.778 6     -3831.579 2
  24283922.388     4861250.527 7   3787990.441 3
  22142635.870   -12823605.901 8  -9992412.650 6
  23827641.563    -7129978.676 6  -5555824.584 4
  21823683.686   -16815490.349 8 -13102969.579 8
 92  2 26 10 19 30.0040000  0  5 16 20 17 23  3
  24493491.406       99499.830 6     77542.924 3
  24305567.411     4975040.222 6   3876657.706 2
  22138513.133   -12845294.387 8 -10009312.753 6
  23812499.643    -7209573.372 7  -5617846.375 3
  21820504.379   -16832199.114 8 -13115989.379 7
 92  2 26 10 20  0.0040000  0  5 16 20 17 23  3
  24513398.231      204137.045 6    159078.359 4
  24327247.492     5088987.746 6   3965448.014 2
  22134423.361   -12866783.810 8 -10026057.748 6
  23797404.803    -7288900.001 7  -5679659.308 4
  21817390.440   -16848579.363 8 -13128753.192 8
 92  2 26 10 20 30.0040000  0  5 16 20 17 23  3
  24533355.417      309010.258 6    240797.714 3
  24348969.261     5203095.721 6   4054363.293 4
  22130374.352   -12888048.446 8 -10042627.593 7
  23782375.001    -7367939.365 7  -5741248.392 5
  21814337.053   -16864615.029 8 -13141248.505 8
 92  2 26 10 21  0.0040000  0  5 16 20 17 23  3
  24553350.661      414074.979 6    322666.382 2
  24370707.207     5317332.600 6   4143378.988 3
  22126367.328   -12909101.822 8 -10059032.804 7
  23767371.286    -7446713.625 7  -5802630.915 4
  21811346.016   -16880335.100 8 -13153497.907 7
 92  2 26 10 21 30.0040000  0  5 16 20 17 23  3
  24573381.906      519332.333 6    404685.060 5
  24392468.850     5431703.329 6   4232499.043 2
  22122413.667   -12929918.295 8 -10075253.423 6
  23752439.222    -7525193.038 7  -5863783.690 5
  21808416.142   -16895718.557 8 -13165484.999 8
 92  2 26 10 22  0.0040000  0  5 16 20 17 23  3
  24593459.010      624838.799 6    486897.848 3
  24414267.051     5546248.419 6   4321754.934 3
  22118505.883   -12950449.313 8 -10091251.613 7
  23737561.428    -7603342.230 7  -5924679.132 4
  21805563.328   -16910725.590 9 -13177178.788 7
 92  2 26 10 22 30.0040000  0  5 16 20 17 23  3
  24613573.876      730557.603 6    569276.167 2
  24436088.043     5660917.147 6   4411107.140 5
  22114649.053   -12970716.013 8 -10107043.837 7
  23722754.377    -7681191.247 7  -5985340.679 2
  21802769.862   -16925391.380 8 -13188606.667 7
 92  2 26 10 23  0.0040000  0  5 16 20 17 23  3
  24633731.931      836486.743 6    651818.359 3
  24457932.120     5775704.576 6   4500551.837 2
  22110837.489   -12990720.755 8 -10122631.946 8
  23707994.704    -7758735.876 6  -6045765.040 4
  21800043.842   -16939717.521 9 -13199769.881 7
 92  2 26 10 23 30.0040000  0  5 16 20 17 23  3
  24653935.235      942670.501 6    734558.902 4
  24479801.693     5890648.554 6   4590118.574 2
  22107090.683   -13010437.590 8 -10137995.715 7
  23693300.067    -7835932.221 6  -6105917.998 4
  21797394.270   -16953663.867 9 -13210637.163 8
 92  2 26 10 24  0.0040000  0  5 16 20 17 23  3
  24674184.712     1049065.546 6    817464.173 3
  24501699.134     6005711.024 6   4679777.647 4
  22103380.750   -13029903.198 8 -10153163.720 6
  23678674.098    -7912827.062 6  -6165836.028 5
  21794802.878   -16967266.932 8 -13221236.946 8
 92  2 26 10 24 30.0040000  0  5 16 20 17 23  3
  24694466.873     1155633.207 6    900503.912 2
  24523605.858     6120862.855 5   4769506.272 3
  22099728.070   -13049134.765 8 -10168149.351 7
  23664088.298    -7989444.266 6  -6225537.717 4
  21792271.724   -16980550.906 9 -13231588.086 7
 92  2 26 10 25  0.0040000  0  5 16 20 17 23  3
  24714782.905     1262385.259 6    983687.284 3
  24545546.470     6236130.702 6   4859325.343 2
  22096117.079   -13068122.268 8 -10182944.807 7
  23649563.644    -8065779.148 6  -6285019.419 3
  21789806.828   -16993499.632 8 -13241677.997 7
 92  2 26 10 25 30.0040000  0  5 16 20 17 23  3
  24735130.417     1369335.026 6   1067024.731 1
  24567509.559     6351557.802 6   4949268.541 2
  22092550.743   -13086839.757 8 -10197529.851 7
  23635093.261    -8141800.702 6  -6344256.956 3
  21787417.178   -17006077.350 9 -13251478.810 7
 92  2 26 10 26  0.0040000  0  5 16 20 17 23  3
  24755510.317     1476431.845 6   1150476.799 3
  24589497.845     6467098.934 6   5039300.569 4
  22089029.377   -13105326.107 8 -10211934.807 7
  23620676.240    -8217564.817 6  -6403293.885 3
  21785081.798   -17018326.713 9 -13261023.766 8
 92  2 26 10 26 30.0040000  0  5 16 20 17 23  3
  24775924.681     1583720.651 6   1234078.488 4
  24611517.298     6582808.071 6   5129463.426 2
  22085567.079   -13123546.571 8 -10226132.570 7
  23606315.880    -8293025.752 6  -6462094.581 4
  21782825.869   -17030201.123 9 -13270276.550 8
 92  2 26 10 27  0.0040000  0  5 16 20 17 23  3
  24796375.324     1691192.203 6   1317822.476 2
  24633559.244     6698671.540 6   5219746.631 4
  22082141.357   -13141530.504 8 -10240146.021 7
  23592022.389    -8368182.556 7  -6520658.302 4
  21780635.884   -17041705.441 8 -13279240.949 7
 92  2 26 10 27 30.0040000  0  5 16 20 17 23  3
  24816866.748     1798842.539 6   1401705.951 3
  24655642.861     6814669.333 6   5310134.539 3
  22078762.698   -13159277.061 8 -10253974.505 7
  23577775.054    -8443026.973 7  -6578978.605 5
  21778519.940   -17052836.378 9 -13287914.403 8
 92  2 26 10 28  0.0040000  0  5 16 20 17 23  3
  24837386.337     1906667.130 6   1485725.030 2
  24677731.870     6930766.315 6   5400599.682 3
  22075436.791   -13176789.916 8 -10267620.881 7
  23563600.853    -8517556.621 7  -6637053.621 4
  21776468.458   -17063601.762 8 -13296302.997 8
 92  2 26 10 28 30.0040000  0  5 16 20 17 23  3
  24857942.205     2014725.886 6   1569926.636 1
  24699846.356     7046991.148 6   5491164.401 3
  22072150.165   -13194029.262 8 -10281054.132 7
  23549479.439    -8591707.786 6  -6694833.715 5
  21774499.428   -17073954.402 8 -13304369.985 8
 92  2 26 10 29  0.0040000  0  5 16 20 17 23  3
  24878540.652     2122961.268 6   1654265.889 2
  24721969.829     7163253.666 6   5581758.572 1
  22068909.712   -13211051.104 8 -10294317.914 7
  23535435.661    -8665547.773 7  -6752371.342 5
  21772594.248   -17083955.938 8 -13312163.391 8
 92  2 26 10 29 30.0040000  0  5 16 20 17 23  3
  24899170.857     2231405.088 6   1738767.576 3
  24744107.106     7279580.830 5   5672403.088 2
  22065725.919   -13227808.509 8 -10307375.639 7
  23521443.744    -8739049.998 7  -6809645.765 5
  21770766.407   -17093569.382 8 -13319654.384 7
 92  2 26 10 30  0.0040000  0  5 16 20 17 23  3
  24919852.646     2340052.054 6   1823427.553 2
  24766255.777     7395965.761 5   5763092.610 4
  22062581.390   -13244312.553 8 -10320235.930 7
  23507522.589    -8812235.262 7  -6866673.235 4
  21769012.922   -17102803.080 8 -13326849.468 8
 92  2 26 10 30 30.0040000  0  5 16 20 17 23  3
  24940569.510     2448931.826 6   1908268.922 2
  24788423.330     7512463.284 6   5853869.793 2
  22059497.727   -13260523.986 8 -10332868.213 7
  23493657.780    -8885083.025 7  -6923437.700 4
  21767334.682   -17111615.690 8 -13333716.432 8
 92  2 26 10 31  0.0040000  0  5 16 20 17 23  3
  24961335.234     2558032.837 6   1993282.715 3
  24810617.860     7629106.928 6   5944760.894 2
  22056472.819   -13276421.770 8 -10345256.097 7
  23479862.231    -8957579.299 7  -6979928.252 5
  21765739.785   -17119982.675 8 -13340236.156 8
 92  2 26 10 31 30.0040000  0  5 16 20 17 23  3
  24982118.932     2667244.646 6   2078382.803 2
  24832831.883     7745823.811 6   6035709.163 1
  22053486.895   -13292104.729 8 -10357476.582 7
  23466117.044    -9029808.091 7  -7036210.411 5
  21764215.648   -17127997.839 8 -13346481.737 9
 92  2 26 10 32  0.0040000  0  5 16 20 17 23  3
  25002926.031     2776602.798 6   2163596.944 2
  24855065.694     7862663.059 6   6126752.646 3
  22050552.222   -13307537.903 8 -10369502.411 7
  23452422.828    -9101720.375 6  -7092245.929 4
  21762763.458   -17135623.992 8 -13352424.194 8
 92  2 26 10 32 30.0040000  0  5 16 20 17 23  3
  25023764.906     2886104.047 6   2248922.643 2
  24877325.890     7979630.570 5   6217896.095 2
  22047662.815   -13322718.840 8 -10381331.708 7
  23438814.346    -9173290.066 7  -7148014.489 4
  21761388.311   -17142854.438 8 -13358058.292 8
 92  2 26 10 33  0.0040000  0  5 16 20 17 23  3
  25044623.570     2995719.197 6   2334337.021 3
  24899597.463     8096674.370 5   6309099.000 1
  22044815.097   -13337682.136 8 -10392991.403 7
  23425249.332    -9244547.602 7  -7203539.827 5
  21760082.407   -17149726.320 8 -13363413.001 8
 92  2 26 10 33 30.0040000  0  5 16 20 17 23  3
  25065507.712     3105490.648 6   2419873.174 3
  24921887.341     8213808.305 5   6400372.196 2
  22042016.221   -13352390.109 8 -10404452.147 8
  23411757.469    -9315470.666 7  -7258804.523 5
  21758845.762   -17156212.082 8 -13368466.829 7
 92  2 26 10 34  0.0040000  0  5 16 20 17 23  3
  25086425.724     3215400.905 6   2505517.579 3
  24944184.392     8330988.655 5   6491681.534 2
  22039262.333   -13366861.593 8 -10415728.627 7
  23398314.485    -9386087.265 7  -7313830.393 5
  21757683.473   -17162332.562 8 -13373236.028 7
 92  2 26 10 34 30.0040000  0  5 16 20 17 23  3
  25107370.732     3325469.603 6   2591285.346 3
  24966495.263     8448227.658 6   6583036.487 3
  22036562.697   -13381063.816 8 -10426795.276 7
  23384943.447    -9456376.240 7  -7368600.997 4
  21756590.723   -17168059.630 8 -13377698.690 8
 92  2 26 10 35  0.0040000  0  5 16 20 17 23  3
  25128351.408     3435710.338 6   2677187.212 4
  24988810.602     8565533.056 5   6674443.222 3
  22033908.344   -13394981.641 8 -10437640.343 7
  23371632.351    -9526321.515 7  -7423103.779 5
  21755582.816   -17173375.424 8 -13381840.852 8
 92  2 26 10 35 30.0040000  0  5 16 20 17 23  3
  25149353.059     3546072.540 6   2763183.768 2
  25011143.652     8682872.692 5   6765876.713 2
  22031311.839   -13408655.332 8 -10448295.157 8
  23358382.436    -9595938.012 7  -7477350.376 5
  21754641.481   -17178310.238 8 -13385686.162 8
 92  2 26 10 36  0.0040000  0  5 16 20 17 23  3
  25170371.811     3656553.757 6   2849273.060 2
  25033483.875     8800245.660 6   6857336.098 2
  22028753.114   -13422095.544 8 -10458768.035 7
  23345201.449    -9665207.400 7  -7531326.492 5
  21753775.078   -17182860.562 8 -13389231.872 8
 92  2 26 10 36 30.0040000  0  5 16 20 17 23  3
  25191423.544     3767141.942 6   2935445.699 2
  25055819.909     8917654.209 5   6948823.220 3
  22026237.560   -13435313.377 8 -10469067.650 7
  23332076.547    -9734130.680 7  -7585032.924 4
  21752982.419   -17187023.704 8 -13392475.875 7
 92  2 26 10 37  0.0040000  0  5 16 20 17 23  3
  25212479.169     3877859.482 5   3021719.135 3
  25078168.839     9035111.047 5   7040347.973 5
  22023765.457   -13448310.899 8 -10479195.590 7
  23319041.566    -9802701.196 7  -7638464.480 5
  21752266.524   -17190781.990 8 -13395404.413 8
 92  2 26 10 37 30.0040000  0  5 16 20 17 23  3
  25233579.152     3988722.730 5   3108106.057 2
  25100534.260     9152629.373 6   7131920.579 2
  22021334.154   -13461075.976 8 -10489142.416 7
  23306047.366    -9870913.730 7  -7691617.070 4
  21751633.954   -17194116.852 9 -13398003.021 8
 92  2 26 10 38  0.0040000  0  5 16 20 17 23  3
  25254685.749     4099617.419 5   3194517.485 2
  25122894.881     9270094.030 6   7223451.442 2
  22018928.013   -13473722.064 8 -10498996.520 8
  23293122.111    -9938897.938 7  -7744591.757 5
  21751054.763   -17197144.829 8 -13400362.477 8
 92  2 26 10 38 30.0040000  0  5 16 20 17 23  3
  25275811.523     4210644.590 6   3281032.205 2
  25145254.596     9387609.422 6   7315021.880 2
  22016564.154   -13486137.178 8 -10508670.627 7
  23280241.530   -10006562.427 7  -7797317.311 6
  21750560.399   -17199762.317 8 -13402402.086 7
 92  2 26 10 39  0.0040000  0  5 16 20 17 23  3
  25296972.373     4321817.515 6   3367660.482 4
  25167627.520     9505175.211 6   7406631.481 4
  22014250.656   -13498300.916 8 -10518148.884 7
  23267438.288   -10073886.110 7  -7849777.309 5
  21750140.686   -17201965.450 8 -13404118.809 8
 92  2 26 10 39 30.0040000  0  5 16 20 17 23  3
  25318144.617     4433111.997 5   3454383.374 3
  25190005.522     9622787.715 6   7498277.575 3
  22011983.629   -13510206.554 8 -10527426.012 7
  23254687.222   -10140860.646 7  -7901965.248 5
  21749799.534   -17203757.274 8 -13405515.032 7
 92  2 26 10 40  0.0040000  0  5 16 20 17 23  3
  25339341.135     4544511.320 6   3541188.058 2
  25212393.122     9740429.157 6   7589946.144 3
  22009766.648   -13521876.658 8 -10536519.614 8
  23242005.991   -10207511.279 7  -7953900.769 5
  21749530.906   -17205158.715 8 -13406607.070 8
 92  2 26 10 40 30.0040000  0  5 16 20 17 23  3
  25360571.245     4656030.227 6   3628085.920 2
  25234784.020     9858103.901 5   7681640.779 3
  22007595.266   -13533303.089 8 -10545423.323 7
  23229384.127   -10273816.537 7  -8005567.183 5
  21749338.447   -17206150.778 8 -13407380.112 7
 92  2 26 10 41  0.0040000  0  5 16 20 17 23  3
  25381802.244     4767629.088 6   3715046.010 1
  25257175.528     9975770.419 5   7773328.843 3
  22005457.439   -13544526.198 8 -10554168.611 8
  23216824.629   -10339803.816 7  -8056985.815 4
  21749225.126   -17206765.928 8 -13407859.453 8
 92  2 26 10 41 30.0040000  0  5 16 20 17 23  3
  25403071.913     4879375.004 6   3802120.834 2
  25279580.509    10093501.197 5   7865067.165 2
  22003370.289   -13555478.636 8 -10562702.982 8
  23204345.472   -10405417.884 7  -8108113.637 6
  21749196.053   -17206926.948 8 -13407984.985 7
 92  2 26 10 42  0.0040000  0  5 16 20 17 23  3
  25424362.278     4991278.956 6   3889318.720 3
  25301999.885    10211298.332 5   7956856.913 2
  22001343.393   -13566148.828 8 -10571017.423 8
  23191930.166   -10470650.916 7  -8158944.560 5
  21749252.104   -17206630.160 8 -13407753.677 9
 92  2 26 10 42 30.0040000  0  5 16 20 17 23  3
  25445661.333     5103209.721 6   3976537.489 2
  25324403.976    10329036.686 5   8048601.306 2
  21999346.478   -13576635.429 8 -10579188.796 8
  23179576.005   -10535603.076 7  -8209556.610 5
  21749373.819   -17205986.992 8 -13407252.521 8
 92  2 26 10 43  0.0040000  0  5 16 20 17 23  3
  25466991.869     5215264.971 6   4063853.365 2
  25346815.866    10446812.920 5   8140374.834 2
  21997403.222   -13586844.570 8 -10587143.972 8
  23167280.931   -10600190.495 7  -8259884.449 5
  21749581.284   -17204905.299 8 -13406409.646 8
 92  2 26 10 43 30.0040000  0  5 16 20 17 23  3
  25488319.106     5327415.105 5   4151243.025 2
  25369230.741    10564608.328 5   8232163.386 2
  21995507.919   -13596808.367 8 -10594907.968 8
  23155045.501   -10664436.630 7  -8309946.350 5
  21749863.978   -17203406.995 8 -13405242.132 8
 92  2 26 10 44  0.0040000  0  5 16 20 17 23  3
  25509679.917     5439649.498 5   4238698.474 2
  25391644.725    10682406.164 5   8323954.104 2
  21993651.913   -13606554.270 8 -10602502.178 9
  23142890.412   -10728340.444 7  -8359741.508 5
  21750229.124   -17201503.888 8 -13403759.181 7
 92  2 26 10 44 30.0040000  0  5 16 20 17 23  3
  25531061.722     5551985.793 5   4326233.320 2
  25414059.914    10800206.545 5   8415746.445 1
  21991836.375   -13616079.257 8 -10609924.245 8
  23130797.673   -10791899.911 7  -8409268.350 6
  21750672.220   -17199175.789 8 -13401945.093 7
 92  2 26 10 45  0.0040000  0  5 16 20 17 23  3
  25552464.204     5664418.675 5   4413843.278 2
  25436477.493    10918002.274 5   8507535.205 2
  21990061.304   -13625411.433 8 -10617196.074 7
  23118764.021   -10855132.305 7  -8458540.334 5
  21751194.766   -17196435.048 8 -13399809.460 7
 92  2 26 10 45 30.0040000  0  5 16 20 17 23  3
  25573882.270     5776955.468 5   4501534.341 2
  25458899.278    11035808.872 5   8599332.493 5
  21988328.498   -13634517.613 8 -10624291.802 8
  23106809.784   -10918001.490 7  -8507529.302 5
  21751797.043   -17193252.698 8 -13397329.700 8
 92  2 26 10 46  0.0040000  0  5 16 20 17 23  3
  25595301.243     5889578.544 5   4589292.557 2
  25481308.149    11153593.491 5   8691112.647 2
  21986638.863   -13643397.206 8 -10631210.964 8
  23094911.021   -10980525.343 7  -8556249.155 4
  21752486.275   -17189640.697 8 -13394515.154 8
 92  2 26 10 46 30.0040000  0  5 16 20 17 23  3
  25616748.992     6002253.976 5   4677091.553 2
  25503710.146    11271325.428 5   8782851.883 2
  21984988.805   -13652068.763 8 -10637968.016 8
  23083065.325   -11042731.546 7  -8604721.498 5
  21753248.046   -17185626.453 8 -13391387.168 8
 92  2 26 10 47  0.0040000  0  5 16 20 17 23  3
  25638199.445     6115028.553 5   4764967.690 2
  25526116.033    11389067.983 6   8874599.252 4
  21983390.016   -13660481.993 8 -10644523.782 8
  23071303.861   -11104543.178 7  -8652886.394 4
  21754098.553   -17181153.713 8 -13387901.935 7
 92  2 26 10 47 30.0040000  0  5 16 20 17 23  3
  25659686.474     6227911.960 5   4852928.731 2
  25548528.517    11506832.269 6   8966363.579 3
  21981842.793   -13668606.433 8 -10650854.508 7
  23059619.457   -11165939.211 7  -8700727.449 5
  21755042.592   -17176199.701 8 -13384041.653 7
 92  2 26 10 48  0.0040000  0  5 16 20 17 23  3
  25681181.896     6340876.718 5   4940953.306 3
  25570937.109    11624581.538 6   9058116.219 2
  21980345.930   -13676490.494 8 -10656997.926 7
  23048008.204   -11226968.763 7  -8748282.940 5
  21756068.490   -17170809.000 8 -13379841.106 7
 92  2 26 10 48 30.0040000  0  5 16 20 17 23  3
  25702700.091     6453941.715 5   5029055.900 1
  25593344.498    11742339.598 6   9149875.800 3
  21978889.239   -13684125.344 8 -10662947.159 8
  23036462.581   -11287611.005 7  -8795536.634 5
  21757182.809   -17164971.306 8 -13375292.238 6
 92  2 26 10 49  0.0040000  0  5 16 20 17 23  3
  25724223.696     6567071.545 5   5117209.045 2
  25615747.384    11860084.713 5   9241625.175 3
  21977482.611   -13691524.977 8 -10668713.100 8
  23025000.929   -11347897.310 7  -8842512.955 5
  21758372.983   -17158707.653 8 -13370411.486 8
 92  2 26 10 49 30.0040000  0  5 16 20 17 23  3
  25745782.969     6680295.357 5   5205435.357 3
  25638160.479    11977841.028 5   9333383.273 1
  21976123.937   -13698642.763 8 -10674259.423 8
  23013592.029   -11407797.327 7  -8889188.282 5
  21759654.911   -17151982.771 8 -13365171.323 7
 92  2 26 10 50  0.0040000  0  5 16 20 17 23  3
  25767337.740     6793599.623 5   5293724.308 3
  25660565.755    12095587.954 5   9425134.111 4
  21974820.144   -13705511.047 8 -10679611.333 8
  23002273.661   -11467324.238 7  -8935572.869 4
  21761016.866   -17144811.511 8 -13359583.330 7
 92  2 26 10 50 30.0040000  0  5 16 20 17 23  3
  25788903.015     6907002.419 5   5382090.082 3
  25682972.550    12213344.693 5   9516892.595 4
  21973567.917   -13712101.012 8 -10684746.355 8
  22991023.052   -11526447.100 7  -8981642.613 5
  21762473.261   -17137154.657 8 -13353616.939 8
 92  2 26 10 51  0.0040000  0  5 16 20 17 23  3
  25810496.473     7020463.586 5   5470501.341 2
  25705372.139    12331057.546 5   9608616.806 2
  21972356.453   -13718461.996 8 -10689702.964 8
  22979838.684   -11585207.539 7  -9027429.948 5
  21764014.778   -17129044.673 8 -13347297.477 7
 92  2 26 10 51 30.0040000  0  5 16 20 17 23  3
  25832095.306     7133945.984 5   5558929.211 3
  25727753.439    12448655.236 4   9700251.283 3
  21971176.469   -13724664.821 8 -10694536.323 8
  22968718.794   -11643659.189 7  -9072976.681 6
  21765637.561   -17120533.445 8 -13340665.354 7
 92  2 26 10 52  0.0040000  0  5 16 20 17 23  3
  25853700.752     7247514.444 5   5647424.067 3
  25750117.062    12566183.612 4   9791831.817 2
  21970034.562   -13730665.294 8 -10699212.002 8
  22957654.048   -11701764.895 7  -9118253.858 5
  21767341.278   -17111568.567 8 -13333679.727 7
 92  2 26 10 52 30.0040000  0  5 16 20 17 23  3
  25875337.085     7361194.299 5   5736005.682 4
  25772474.386    12683666.357 3   9883376.846 2
  21968938.514   -13736421.053 8 -10703697.002 9
  22946677.145   -11759489.485 7  -9163234.035 5
  21769140.640   -17102120.614 8 -13326317.681 8
 92  2 26 10 53  0.0040000  0  5 16 20 17 23  3
  25897006.678     7474943.164 5   5824641.113 2
  25794811.921    12801072.854 4   9974862.310 2
  21967883.543   -13741968.220 8 -10708019.451 8
  22935753.309   -11816863.261 7  -9207940.853 4
  21771021.843   -17092230.112 8 -13318610.799 8
 92  2 26 10 53 30.0040000  0  5 16 20 17 23  3
  25918653.481     7588789.956 5   5913352.922 2
  25817149.456    12918451.939 4  10066326.419 2
  21966875.357   -13747250.580 8 -10712135.558 8
  22924904.718   -11873850.328 7  -9252346.348 6
  21772998.360   -17081855.447 8 -13310526.644 8
 92  2 26 10 54  0.0040000  0  5 16 20 17 23  3
  25940322.795     7702701.466 5   6002115.059 2
  25839480.395    13035802.388 4  10157768.235 2
  21965919.609   -13752276.340 8 -10716051.728 8
  22914148.474   -11930462.576 7  -9296459.767 6
  21775056.439   -17071015.257 8 -13302079.742 7
 92  2 26 10 54 30.0040000  0  5 16 20 17 23  3
  25962017.272     7816644.004 5   6090901.403 3
  25861809.833    13153115.424 4  10249180.895 2
  21965006.142   -13757066.669 8 -10719784.439 8
  22903437.181   -11986708.455 7  -9340287.719 6
  21777206.253   -17059729.380 8 -13293285.553 7
 92  2 26 10 55  0.0040000  0  5 16 20 17 23  3
  25983715.641     7930658.228 5   6179743.542 1
  25884124.002    13270425.670 4  10340591.658 2
  21964147.836   -13761594.136 8 -10723312.329 9
  22892805.339   -12042559.222 7  -9383807.803 6
  21779443.301   -17047964.420 8 -13284118.044 7
 92  2 26 10 55 30.0040000  0  5 16 20 17 23  3
  26005430.221     8044747.873 5   6268644.626 2
  25906445.047    13387710.730 5  10431982.470 1
  21963334.795   -13765869.840 8 -10726644.035 8
  22882247.853   -12098014.047 7  -9427019.354 6
  21781777.495   -17035725.783 8 -13274581.450 8
 92  2 26 10 56  0.0040000  0  5 16 20 17 23  3
  26027145.987     8158917.474 5   6357607.911 2
  25928760.385    13504959.124 5  10523344.705 1
  21962569.132   -13769897.547 8 -10729782.497 8
  22871787.197   -12153053.514 7  -9469907.234 4
  21784195.920   -17023009.171 8 -13264672.388 7
 92  2 26 10 56 30.0040000  0  5 16 20 17 23  3
  26048889.325     8273156.691 5   6446625.352 1
  25951062.846    13622142.675 5  10614656.519 1
  21961841.842   -13773692.092 8 -10732739.282 8
  22861379.591   -12207682.504 7  -9512475.265 5
  21786703.970   -17009824.690 8 -13254398.781 7
 92  2 26 10 57  0.0040000  0  4 20 17 23  3
  25973336.827    13739220.505 5  10705886.177 2
  21961162.801   -13777280.062 8 -10735535.091 7
  22851064.645   -12261928.667 7  -9554744.988 5
  21789295.380   -16996198.786 8 -13243781.181 7
 92  2 26 10 57 30.0040000  0  4 20 17 23  3
  25995598.524    13856190.719 6  10797031.697 2
  21960523.338   -13780666.363 8 -10738173.763 8
  22840815.033   -12315802.850 7  -9596724.862 6
  21791971.336   -16982133.068 8 -13232820.898 8
 92  2 26 10 58  0.0040000  0  4 20 17 23  3
  26017845.824    13973118.632 5  10888144.239 1
  21959919.857   -13783795.337 8 -10740611.921 8
  22830639.183   -12369268.498 7  -9638386.406 6
  21794745.606   -16967569.028 8 -13221472.280 7
 92  2 26 10 58 30.0040000  0  4 20 17 23  3
  26040084.416    14089963.724 5  10979192.524 2
  21959368.238   -13786719.505 8 -10742890.486 8
  22820526.572   -12422389.206 7  -9679779.159 6
  21797600.532   -16952552.637 8 -13209771.197 7
 92  2 26 10 59  0.0040000  0  4 20 17 23  3
  26062314.039    14206758.293 5  11070201.191 1
  21958855.307   -13789397.055 8 -10744976.889 8
  22810492.522   -12475134.785 7  -9720879.608 6
  21800550.195   -16937042.332 8 -13197685.245 8
 92  2 26 10 59 30.0040000  0  4 20 17 23  3
  26084532.546    14323496.440 4  11161165.805 3
  21958398.425   -13791827.705 9 -10746870.888 8
  22800520.822   -12527509.649 7  -9761691.176 5
  21803597.875   -16921036.583 8 -13185213.243 8
 92  2 26 11  0  0.0040000  0  3 17 23  3
  21957970.616   -13794044.358 9 -10748598.141 9
  22790626.776   -12579535.646 7  -9802230.899 6
  21806734.011   -16904571.471 8 -13172383.294 7
 92  2 26 11  0 30.0040000  0  3 17 23  3
  21957592.574   -13796032.489 9 -10750147.324 9
  22780792.985   -12631187.030 7  -9842478.722 6
  21809954.379   -16887640.863 8 -13159190.606 7
 92  2 26 11  1  0.0040000  0  3 17 23  3
  21957267.599   -13797755.821 9 -10751490.165 8
  22771044.630   -12682420.484 7  -9882400.878 6
  21813268.890   -16870212.340 8 -13145609.930 8
 92  2 26 11  1 30.0040000  0  3 17 23  3
  21956982.497   -13799237.024 9 -10752644.343 8
  22761371.224   -12733251.415 7  -9922009.375 6
  21816680.530   -16852303.221 8 -13131654.787 8
 92  2 26 11  2  0.0040000  0  3 17 23  3
  21956752.259   -13800476.576 9 -10753610.227 8
  22751773.377   -12783678.025 7  -9961302.825 6
  21820178.199   -16833910.506 8 -13117322.810 7
 92  2 26 11  2 30.0040000  0  3 17 23  3
  21956554.094   -13801491.042 9 -10754400.707 9
  22742253.760   -12833736.832 7 -10000309.680 6
  21823764.621   -16815054.806 8 -13102630.046 7
 92  2 26 11  3  0.0040000  0  3 17 23  3
  21956405.104   -13802283.186 8 -10755017.962 9
  22732796.510   -12883430.300 8 -10039031.842 6
  21827445.482   -16795728.392 8 -13087570.503 7
 92  2 26 11  3 30.0040000  0  3 17 23  3
  21956298.379   -13802838.086 8 -10755450.338 8
  22723411.504   -12932734.379 8 -10077450.598 6
  21831218.062   -16775909.544 8 -13072127.257 8
 92  2 26 11  4  0.0040000  0  3 17 23  3
  21956236.308   -13803171.163 8 -10755709.872 8
  22714105.948   -12981658.814 8 -10115573.532 6
  21835079.097   -16755606.686 8 -13056306.859 7
 92  2 26 11  4 30.0040000  0  3 17 23  3
  21956213.222   -13803278.595 8 -10755793.591 8
  22704870.839   -13030178.485 8 -10153381.062 6
  21839038.447   -16734800.453 8 -13040094.217 7
 92  2 26 11  5  0.0040000  0  3 17 23  3
  21956226.117   -13803221.451 8 -10755749.058 8
  22695706.491   -13078332.336 8 -10190903.546 7
  21843082.657   -16713538.349 8 -13023526.346 7
 92  2 26 11  5 30.0040000  0  3 17 23  3
  21956276.793   -13802955.087 8 -10755541.507 9
  22686623.077   -13126089.738 8 -10228117.106 6
  21847223.978   -16691779.465 8 -13006571.369 8
 92  2 26 11  6  0.0040000  0  3 17 23  3
  21956370.326   -13802469.792 8 -10755163.376 8
  22677607.718   -13173459.280 8 -10265028.422 5
  21851462.444   -16669520.859 8 -12989227.021 8
 92  2 26 11  6 30.0040000  0  3 17 23  3
  21956508.532   -13801731.087 8 -10754587.755 9
  22668665.215   -13220427.224 8 -10301626.805 5
  21855796.554   -16646750.206 8 -12971483.664 7
 92  2 26 11  7  0.0040000  0  3 17 23  3
  21956698.303   -13800733.446 8 -10753810.368 8
  22659803.348   -13267007.578 8 -10337923.161 6
  21860220.289   -16623481.183 8 -12953351.965 7
 92  2 26 11  7 30.0040000  0  4 21 17 23  3
  25564475.974     -259943.398 5   -202553.582 4
  21956934.823   -13799482.179 9 -10752835.361 9
  22651009.538   -13313208.893 8 -10373924.187 6
  21864744.747   -16599719.894 8 -12934836.680 7
 92  2 26 11  8  0.0040000  0  4 21 17 23  3
  25547860.889     -347253.690 5   -270587.532 2
  21957228.022   -13797975.387 9 -10751661.239 8
  22642298.162   -13358998.996 7 -10409604.793 7
  21869365.146   -16575454.692 8 -12915928.742 7
 92  2 26 11  8 30.0040000  0  4 21 17 23  3
  25531278.767     -434423.809 5   -338512.244 3
  21957555.702   -13796226.473 9 -10750298.451 8
  22633664.440   -13404368.817 7 -10444957.888 5
  21874075.797   -16550687.010 8 -12896629.265 7
 92  2 26 11  9  0.0040000  0  4 21 17 23  3
  25514713.729     -521455.299 5   -406328.876 3
  21957929.538   -13794266.525 9 -10748771.213 8
  22625107.761   -13449330.592 7 -10479993.036 5
  21878880.575   -16525423.977 8 -12876943.789 8
 92  2 26 11  9 30.0040000  0  4 21 17 23  3
  25498175.984     -608345.103 5   -474035.197 2
  21958343.858   -13792091.154 9 -10747076.118 9
  22616631.126   -13493884.092 7 -10514710.035 6
  21883784.575   -16499657.200 8 -12856865.796 7
 92  2 26 11 10  0.0040000  0  4 21 17 23  3
  25481674.796     -695075.604 5   -541617.367 3
  21958802.834   -13789677.840 9 -10745195.603 8
  22608228.846   -13538009.764 7 -10549093.674 6
  21888786.016   -16473372.033 8 -12836383.858 8
 92  2 26 11 10 30.0040000  0  4 21 17 23  3
  25465203.605     -781614.299 5   -609050.093 1
  21959314.876   -13786993.193 9 -10743103.665 9
  22599917.709   -13581716.535 8 -10583150.892 6
  21893889.071   -16446555.681 8 -12815488.022 8
 92  2 26 11 11  0.0040000  0  4 21 17 23  3
  25448772.881     -867957.002 5   -676330.021 2
  21959878.186   -13784031.510 9 -10740795.853 8
  22591675.517   -13625017.471 7 -10616891.876 7
  21899092.865   -16419215.201 8 -12794183.762 7
 92  2 26 11 11 30.0040000  0  4 21 17 23  3
  25432373.027     -954119.270 5   -743469.376 2
  21960490.671   -13780808.895 9 -10738284.732 9
  22583509.461   -13667917.111 7 -10650320.169 6
  21904391.101   -16391366.549 8 -12772483.529 8
 92  2 26 11 12  0.0040000  0  4 21 17 23  3
  25416007.672    -1040162.212 5   -810515.812 2
  21961142.419   -13777397.365 9 -10735626.385 9
  22575414.759   -13710469.488 8 -10683477.854 6
  21909774.475   -16363072.653 8 -12750436.338 7
 92  2 26 11 12 30.0040000  0  4 21 17 23  3
  25399669.278    -1126008.291 5   -877408.851 1
  21961836.432   -13773739.450 9 -10732776.057 9
  22567399.507   -13752607.966 8 -10716313.016 5
  21915258.887   -16334259.900 8 -12727984.862 7
 92  2 26 11 13  0.0040000  0  4 21 17 23  3
  25383371.961    -1211642.325 4   -944136.665 2
  21962579.323   -13769834.141 8 -10729732.959 9
  22559464.910   -13794291.195 8 -10748793.446 6
  21920846.708   -16304898.071 8 -12705105.535 7
 92  2 26 11 13 30.0040000  0  4 21 17 23  3
  25367102.826    -1297104.814 4  -1010730.764 2
  21963362.384   -13765723.033 8 -10726529.495 9
  22551613.342   -13835556.544 8 -10780948.245 6
  21926531.972   -16275017.687 8 -12681822.132 7
 92  2 26 11 14  0.0040000  0  4 21 17 23  3
  25350884.943    -1382393.739 5  -1077189.535 2
  21964186.802   -13761387.179 8 -10723150.890 9
  22543834.925   -13876411.156 8 -10812783.010 7
  21932321.273   -16244607.793 8 -12658126.121 7
 92  2 26 11 14 30.0040000  0  4 21 17 23  3
  25334678.769    -1467503.938 5  -1143509.137 2
  21965057.707   -13756806.598 8 -10719581.602 9
  22536141.962   -13916857.699 8 -10844299.794 6
  21938210.094   -16213657.572 8 -12634009.087 7
 92  2 26 11 15  0.0040000  0  4 21 17 23  3
  25318499.869    -1552536.137 5  -1209768.003 3
  21965962.187   -13752066.273 8 -10715887.830 9
  22528500.546   -13956997.660 8 -10875577.680 6
  21944181.663   -16182267.993 8 -12609549.694 7
 92  2 26 11 15 30.0040000  0  4 21 17 23  3
  25302352.153    -1637401.509 5  -1275896.860 2
  21966911.619   -13747065.544 8 -10711991.154 9
  22520936.784   -13996753.739 8 -10906556.435 6
  21950255.159   -16150363.434 8 -12584689.019 7
 92  2 26 11 16  0.0040000  0  4 21 17 23  3
  25286232.008    -1722122.502 5  -1341913.192 1
  21967909.038   -13741825.509 8 -10707908.000 9
  22513439.577   -14036144.734 8 -10937250.707 6
  21956418.593   -16117968.296 8 -12559446.059 7
 92  2 26 11 16 30.0040000  0  4 21 17 23  3
  25270145.141    -1806648.262 5  -1407777.360 2
  21968958.599   -13736313.715 8 -10703613.104 9
  22506025.695   -14075111.124 8 -10967614.124 6
  21962683.343   -16085038.914 8 -12533786.811 7
 92  2 26 11 17  0.0040000  0  4 21 17 23  3
  25254101.742    -1890990.877 6  -1473498.820 1
  21970052.850   -13730568.919 9 -10699136.634 8
  22498690.688   -14113655.980 8 -10997649.073 7
  21969048.241   -16051596.884 8 -12507728.106 7
 92  2 26 11 17 30.0040000  0  4 21 17 23  3
  25238092.529    -1975102.466 5  -1539040.288 4
  21971197.462   -13724551.317 8 -10694447.586 9
  22491449.493   -14151721.602 8 -11027310.595 7
  21975518.659   -16017586.973 8 -12481226.903 7
 92  2 26 11 18  0.0040000  0  4 21 17 23  3
  25222127.691    -2059001.240 5  -1604415.967 4
  21972382.541   -13718303.195 8 -10689578.920 9
  22484292.252   -14189322.556 8 -11056610.021 7
  21982097.618   -15983028.066 8 -12454297.894 6
 92  2 26 11 18 30.0040000  0  4 21 17 23  3
  25206193.723    -2142733.409 6  -1669661.807 4
  21973612.293   -13711876.474 8 -10684571.087 9
  22477216.241   -14226515.644 8 -11085591.631 6
  21988766.795   -15947972.617 8 -12426981.966 7
 92  2 26 11 19  0.0040000  0  4 21 17 23  3
  25190294.829    -2226271.030 6  -1734756.049 3
  21974873.507   -13705233.376 8 -10679394.648 8
  22470216.697   -14263292.033 8 -11114248.556 6
  21995537.008   -15912397.024 8 -12399260.745 7
 92  2 26 11 19 30.0040000  0  4 21 17 23  3
  25174427.399    -2309639.682 5  -1799718.572 2
  21976176.410   -13698390.886 8 -10674062.828 9
  22463292.084   -14299688.982 8 -11142609.809 7
  22002400.458   -15876324.883 8 -12371152.611 7
 92  2 26 11 20  0.0040000  0  4 21 17 23  3
  25158607.956    -2392809.810 6  -1864526.414 3
  21977523.672   -13691316.331 8 -10668550.182 9
  22456437.638   -14335700.750 8 -11170670.913 7
  22009362.536   -15839736.099 8 -12342641.881 7
 92  2 26 11 20 30.0040000  0  4 21 17 23  3
  25142820.290    -2475779.944 6  -1929178.428 4
  21978921.609   -13683983.132 8 -10662836.005 9
  22449657.827   -14371333.370 8 -11198436.582 7
  22016426.838   -15802622.509 8 -12313722.218 7
 92  2 26 11 21  0.0040000  0  4 21 17 23  3
  25127051.803    -2558605.475 6  -1993717.778 2
  21980350.712   -13676442.257 8 -10656959.997 9
  22442943.071   -14406619.445 8 -11225932.215 7
  22023581.986   -15765028.533 8 -12284428.213 7
 92  2 26 11 21 30.0040000  0  4 21 17 23  3
  25111331.285    -2641263.374 6  -2058126.530 3
  21981828.100   -13668681.450 8 -10650912.602 9
  22436297.574   -14441528.239 8 -11253133.854 6
  22030833.668   -15726930.837 8 -12254741.710 8
 92  2 26 11 22  0.0040000  0  4 21 17 23  3
  25095620.662    -2723753.067 5  -2122404.204 3
  21983348.642   -13660686.502 8 -10644682.773 9
  22429730.918   -14476048.409 8 -11280032.663 6
  22038176.493   -15688324.593 8 -12224658.948 6
 92  2 26 11 22 30.0040000  0  4 21 17 23  3
  25079968.201    -2806069.405 6  -2186546.749 2
  21984915.357   -13652462.421 9 -10638274.400 9
  22423240.711   -14510145.997 8 -11306602.201 7
  22045620.930   -15649199.228 8 -12194171.666 7
 92  2 26 11 23  0.0040000  0  4 21 17 23  3
  25064337.029    -2888188.325 6  -2250535.459 3
  21986521.650   -13644024.365 9 -10631699.292 9
  22416836.254   -14543806.597 8 -11332831.215 7
  22053168.202   -15609545.014 8 -12163272.282 6
 92  2 26 11 23 30.0050000  0  4 21 17 23  3
  25048759.798    -2970108.129 6  -2314369.042 3
  21988166.004   -13635379.602 9 -10624963.100 9
  22410510.623   -14577051.041 8 -11358735.966 7
  22060812.622   -15569364.864 8 -12131963.101 7
 92  2 26 11 24  0.0050000  0  4 21 17 23  3
  25033187.992    -3051873.721 5  -2378082.480 3
  21989841.243   -13626578.662 9 -10618105.228 9
  22404253.062   -14609925.056 8 -11384352.063 6
  22068552.055   -15528706.025 8 -12100280.912 8
 92  2 26 11 24 30.0050000  0  4 21 17 23  3
  25017665.325    -3133437.377 5  -2441638.555 4
  21991554.557   -13617583.805 9 -10611096.238 9
  22398074.935   -14642396.057 8 -11409654.120 7
  22076388.931   -15487519.126 8 -12068187.240 6
 92  2 26 11 25  0.0050000  0  4 21 17 23  3
  25002171.155    -3214810.883 5  -2505046.451 2
  21993303.855   -13608374.207 9 -10603919.933 9
  22391970.569   -14674485.748 8 -11434659.058 7
  22084326.232   -15445807.493 8 -12035684.678 6
 92  2 26 11 25 30.0050000  0  4 21 17 23  3
  24986737.833    -3295992.407 5  -2568304.669 1
  21995107.998   -13598902.213 9 -10596539.162 8
  22385938.134   -14706165.779 8 -11459344.780 8
  22092368.776   -15403547.797 8 -12002755.062 7
 92  2 26 11 26  0.0050000  0  4 21 17 23  3
  24971317.111    -3376995.371 5  -2631423.856 2
  21996958.017   -13589168.895 9 -10588954.757 9
  22379989.354   -14737444.702 8 -11483717.959 7
  22100512.932   -15360753.579 8 -11969408.946 7
 92  2 26 11 26 30.0050000  0  4 21 17 23  3
  24955930.276    -3457848.051 5  -2694425.947 2
  21998857.805   -13579198.288 9 -10581185.449 9
  22374105.036   -14768351.772 8 -11507801.368 6
  22108749.138   -15317458.948 8 -11935672.890 7
 92  2 26 11 27  0.0050000  0  4 21 17 23  3
  24940579.390    -3538508.114 5  -2757277.928 1
  22000805.564   -13568967.348 9 -10573213.288 9
  22368306.451   -14798835.486 7 -11531554.880 6
  22117088.457   -15273630.100 8 -11901520.548 7
 92  2 26 11 27 30.0050000  0  4 21 17 23  3
  24925275.898    -3618956.235 6  -2819964.781 3
  22002797.977   -13558494.692 9 -10565052.786 9
  22362584.612   -14828893.213 7 -11554976.464 7
  22125531.222   -15229272.499 8 -11866956.193 7
 92  2 26 11 28  0.0050000  0  4 21 17 23  3
  24910033.237    -3699136.711 6  -2882443.065 2
  22004842.863   -13547741.895 9 -10556673.968 8
  22356954.805   -14858485.472 8 -11578035.336 7
  22134083.399   -15184345.256 8 -11831947.968 7
 92  2 26 11 28 30.0050000  0  4 21 17 23  3
  24894804.694    -3779082.526 6  -2944738.468 2
  22006931.811   -13536759.382 9 -10548116.165 9
  22351404.153   -14887642.801 8 -11600755.313 7
  22142732.111   -15138882.066 8 -11796522.125 7
 92  2 26 11 29  0.0050000  0  4 21 17 23  3
  24879640.577    -3858778.645 6  -3006839.292 2
  22009071.435   -13525525.354 9 -10539362.377 9
  22345941.921   -14916347.985 8 -11623122.981 7
  22151491.143   -15092863.669 8 -11760663.646 6
 92  2 26 11 29 30.0050000  0  4 21 17 23  3
  24864519.649    -3938252.588 6  -3068767.010 2
  22011257.825   -13514045.583 9 -10530417.113 9
  22340556.748   -14944626.829 8 -11645158.425 7
  22160347.303   -15046305.721 8 -11724384.748 6
 92  2 26 11 30  0.0050000  0  4 21 17 23  3
  24849442.190    -4017517.606 6  -3130531.962 3
  22013482.292   -13502332.119 9 -10521289.722 9
  22335259.421   -14972484.035 8 -11666865.320 7
  22169310.799   -14999207.367 8 -11687684.751 7
 92  2 26 11 30 30.0050000  0  4 21 17 23  3
  24834390.801    -4096585.747 6  -3192143.503 4
  22015754.415   -13490403.108 9 -10511994.389 9
  22330039.136   -14999929.862 8 -11688251.657 8
  22178375.629   -14951576.011 8 -11650569.432 7
 92  2 26 11 31  0.0050000  0  4 21 17 23  3
  24819372.114    -4175450.408 6  -3253596.475 3
  22018069.710   -13478234.671 9 -10502512.484 9
  22324892.299   -15026964.537 8 -11709317.614 7
  22187542.089   -14903403.960 8 -11613032.781 7
 92  2 26 11 31 30.0050000  0  4 21 17 23  3
  24804416.667    -4254113.347 6  -3314892.253 4
  22020432.678   -13465831.497 9 -10492847.676 9
  22319823.708   -15053603.164 8 -11730074.966 7
  22196811.958   -14854692.368 8 -11575075.710 6
 92  2 26 11 32  0.0050000  0  4 21 17 23  3
  24789484.900    -4332574.003 6  -3376030.365 3
  22022837.912   -13453182.541 9 -10482991.340 8
  22314831.271   -15079846.949 8 -11750524.633 7
  22206186.180   -14805439.606 8 -11536696.944 7
 92  2 26 11 32 30.0050000  0  4 21 17 23  3
  24774581.908    -4410835.013 6  -3437012.935 2
  22025290.802   -13440284.815 8 -10472941.162 9
  22309913.468   -15105694.368 8 -11770665.451 8
  22215660.811   -14755649.403 8 -11497899.412 7
 92  2 26 11 33  0.0050000  0  4 21 17 23  3
  24759733.186    -4488891.812 6  -3497836.384 2
  22027791.680   -13427143.425 8 -10462701.126 9
  22305066.129   -15131154.049 8 -11790504.132 7
  22225233.494   -14705325.180 8 -11458685.746 6
 92  2 26 11 33 30.0050000  0  4 21 17 23  3
  24744918.352    -4566728.289 6  -3558488.192 4
  22030335.712   -13413760.868 8 -10452273.160 9
  22300299.724   -15156208.837 8 -11810027.316 7
  22234915.591   -14654460.793 8 -11419051.180 6
 92  2 26 11 34  0.0050000  0  4 21 17 23  3
  24730143.078    -4644387.294 5  -3619001.675 4
  22032916.634   -13400208.742 9 -10441713.045 8
  22295599.281   -15180898.382 8 -11829265.893 7
  22244685.217   -14603116.710 8 -11379042.805 7
 92  2 26 11 34 30.0050000  0  4 21 17 23  3
  24715404.083    -4721797.095 5  -3679320.968 2
  22035533.818   -13386453.071 9 -10430994.338 9
  22290979.179   -15205175.288 8 -11848182.928 8
  22254556.788   -14551245.225 8 -11338623.497 7
 92  2 26 11 35  0.0050000  0  4 21 17 23  3
  24700735.535    -4798922.501 5  -3739418.619 2
  22038198.972   -13372447.179 8 -10420080.648 9
  22286446.607   -15229020.488 8 -11866763.566 7
  22264534.491   -14498817.075 8 -11297770.395 6
 92  2 26 11 35 30.0050000  0  4 21 17 23  3
  24686100.264    -4875788.203 5  -3799313.925 3
  22040909.689   -13358202.201 9 -10408980.671 9
  22281986.297   -15252445.628 8 -11885016.885 8
  22274612.899   -14445845.206 8 -11256493.621 6
 92  2 26 11 36  0.0050000  0  4 21 17 23  3
  24671536.644    -4952386.150 6  -3859000.604 3
  22043670.784   -13343697.588 8 -10397678.371 9
  22277611.736   -15275440.309 8 -11902934.798 8
  22284798.347   -14392306.251 8 -11214774.977 6
 92  2 26 11 36 30.0050000  0  4 21 17 23  3
  24657003.003    -5028768.604 6  -3918519.394 4
  22046478.647   -13328943.777 8 -10386181.901 9
  22273309.717   -15298037.524 8 -11920542.983 7
  22295091.131   -14338229.510 8 -11172637.279 7
 92  2 26 11 37  0.0050000  0  4 21 17 23  3
  24642493.060    -5104969.413 6  -3977896.645 2
  22049333.572   -13313939.870 8 -10374490.543 9
  22269084.740   -15320232.288 8 -11937837.575 7
  22305483.434   -14283622.908 8 -11130086.699 6
 92  2 26 11 37 30.0050000  0  4 21 17 23  3
  24628032.867    -5180978.900 6  -4037124.772 2
  22052237.061   -13298678.731 8 -10362598.748 9
  22264943.105   -15341990.530 8 -11954792.021 7
  22315978.570   -14228466.412 8 -11087107.617 6
 92  2 26 11 38  0.0050000  0  4 21 17 23  3
  24613606.249    -5256773.123 6  -4096185.161 1
  22055195.711   -13283138.271 8 -10350489.302 9
  22260891.706   -15363292.123 8 -11971390.648 8
  22326582.823   -14172749.050 8 -11043691.492 6
 92  2 26 11 38 30.0050000  0  4 21 17 23  3
  24599215.316    -5332410.858 6  -4155123.613 2
  22058190.029   -13267392.985 8 -10338220.248 9
  22256912.567   -15384205.796 8 -11987686.996 8
  22337276.718   -14116547.018 8 -10999897.729 6
 92  2 26 11 39  0.0050000  0  4 21 17 23  3
  24584867.258    -5407797.311 6  -4213866.289 3
  22061238.320   -13251383.926 9 -10325745.652 9
  22253020.663   -15404664.916 8 -12003629.138 7
  22348077.949   -14059782.786 8 -10955665.875 6
 92  2 26 11 39 30.0050000  0  4 21 17 23  3
  24570569.248    -5482940.858 6  -4272419.699 3
  22064325.281   -13235144.476 8 -10313091.537 9
  22249206.098   -15424703.669 8 -12019243.728 8
  22358984.702   -14002474.712 8 -10911010.257 6
 92  2 26 11 40  0.0050000  0  4 21 17 23  3
  24556317.411    -5557843.579 6  -4330785.439 3
  22067457.525   -13218702.787 9 -10300279.831 9
  22245468.575   -15444348.090 8 -12034551.054 8
  22369989.786   -13944642.115 8 -10865945.903 6
 92  2 26 11 40 30.0050000  0  4 21 17 23  3
  24542118.937    -5632464.852 6  -4388931.853 2
  22070632.627   -13202021.101 8 -10287281.108 9
  22241811.411   -15463561.853 8 -12049522.807 8
  22381105.191   -13886239.785 8 -10820437.618 6
 92  2 26 11 41  0.0050000  0  4 21 17 23  3
  24527968.136    -5706857.377 6  -4446900.025 1
  22073843.991   -13185140.461 8 -10274127.372 9
  22238229.195   -15482392.206 8 -12064195.797 8
  22392315.630   -13827313.626 8 -10774521.150 6
 92  2 26 11 41 30.0050000  0  4 21 17 23  3
  24513850.020    -5781033.811 6  -4504699.803 4
  22077093.448   -13168057.765 9 -10260816.180 9
  22234713.535   -15500853.532 8 -12078581.222 8
  22403628.292   -13767876.537 8 -10728206.537 6
 92  2 26 11 42  0.0050000  0  4 21 17 23  3
  24499782.562    -5854953.918 6  -4562299.861 3
  22080393.564   -13150721.870 8 -10247307.683 9
  22231277.011   -15518909.706 8 -12092650.952 8
  22415040.490   -13707894.634 8 -10681467.417 6
 92  2 26 11 42 30.0050000  0  4 21 17 23  3
  24485746.567    -5928639.634 6  -4619717.293 5
  22083741.336   -13133121.530 8 -10233593.130 9
  22227917.827   -15536567.866 8 -12106410.536 8
  22426558.524   -13647370.452 8 -10634305.739 6
 92  2 26 11 43  0.0050000  0  4 21 17 23  3
  24471795.432    -6002064.721 6  -4676931.626 3
  22087148.194   -13115234.702 8 -10219655.340 9
  22224639.594   -15553798.497 8 -12119836.984 8
  22438184.766   -13586275.632 8 -10586699.411 6
 92  2 26 11 43 30.0050000  0  4 21 17 23  3
  24457867.662    -6075243.377 6  -4733953.917 2
  22090600.301   -13097075.056 8 -10205504.983 9
  22221438.421   -15570610.854 8 -12132937.509 8
  22449915.047   -13524622.953 8 -10538658.377 6
 92  2 26 11 44  0.0050000  0  4 21 17 23  3
  24443980.989    -6148205.159 6  -4790807.213 2
  22094103.676   -13078671.113 8 -10191164.249 9
  22218318.776   -15587015.606 8 -12145720.408 8
  22461750.849   -13462438.578 8 -10490203.040 6
 92  2 26 11 44 30.0050000  0  4 21 17 23  3
  24430135.375    -6220954.760 6  -4847495.199 2
  22097645.721   -13060045.089 8 -10176650.470 9
  22215275.877   -15603022.130 8 -12158193.005 8
  22473681.702   -13399739.810 8 -10441346.876 6
 92  2 26 11 45  0.0050000  0  4 21 17 23  3
  24416349.110    -6293429.136 6  -4903968.713 4
  22101242.630   -13041156.204 8 -10161931.853 9
  22212312.742   -15618588.804 8 -12170322.865 9
  22485717.467   -13336484.238 8 -10392056.852 6
 92  2 26 11 45 30.0050000  0  4 21 17 23  3
  24402610.518    -6365622.082 6  -4960222.946 3
  22104887.806   -13022006.376 8 -10147009.911 9
  22209429.635   -15633718.715 8 -12182112.400 9
  22497858.159   -13272682.030 8 -10342340.852 6
 92  2 26 11 46  0.0050000  0  4 21 17 23  3
  24388920.509    -6437534.381 6  -5016258.501 4
  22108581.843   -13002602.891 8 -10131890.318 9
  22206630.777   -15648429.580 8 -12193575.407 9
  22510103.483   -13208345.281 8 -10292208.337 6
 92  2 26 11 46 30.0050000  0  4 21 17 23  3
  24375294.628    -6509150.374 7  -5072063.162 3
  22112323.553   -12982925.155 9 -10116557.014 9
  22203915.855   -15662706.708 8 -12204700.425 8
  22522449.529   -13143451.137 8 -10241641.490 7
 92  2 26 11 47  0.0050000  0  4 21 17 23  3
  24361709.232    -6580533.493 6  -5127686.332 2
  22116112.641   -12963016.442 9 -10101043.743 9
  22201274.380   -15676596.159 8 -12215523.365 8
  22534897.817   -13078037.632 8 -10190669.953 6
 92  2 26 11 47 30.0050000  0  4 21 17 23  3
  24348163.117    -6651685.064 6  -5183129.088 4
  22119946.978   -12942873.648 9 -10085348.061 9
  22198706.057   -15690080.018 8 -12226030.253 8
  22547446.827   -13012091.337 8 -10139283.247 6
 92  2 26 11 48  0.0050000  0  4 21 17 23  3
  24334667.363    -6722606.547 6  -5238392.560 3
  22123826.597   -12922471.336 9 -10069450.164 9
  22196217.185   -15703148.160 8 -12236213.211 8
  22560102.265   -12945588.707 8 -10087463.019 6
 92  2 26 11 48 30.0050000  0  4 21 17 23  3
  24321217.764    -6793300.500 6  -5293478.735 5
  22127759.265   -12901811.418 9 -10053351.530 8
  22193814.936   -15715789.850 8 -12246063.875 8
  22572862.336   -12878521.174 8 -10035202.622 6
 92  2 26 11 49  0.0050000  0  4 21 17 23  3
  24307804.166    -6863771.570 6  -5348391.270 5
  22131733.919   -12880920.442 9 -10037072.847 8
  22191484.651   -15728028.340 8 -12255600.339 7
  22585731.522   -12810911.023 8  -9982519.426 6
 92  2 26 11 49 30.0050000  0  4 21 17 23  3
  24294434.019    -6934009.825 6  -5403122.374 2
  22135755.339   -12859793.300 9 -10020610.153 9
  22189232.613   -15739863.904 8 -12264822.840 8
  22598697.540   -12742768.753 8  -9929421.574 6
 92  2 26 11 50  0.0050000  0  4 21 17 23  3
  24281120.829    -7003968.709 6  -5457635.754 2
  22139828.011   -12838375.368 9 -10003920.855 9
  22187065.122   -15751263.299 8 -12273705.478 8
  22611776.601   -12674060.373 8  -9875882.585 5
 92  2 26 11 50 30.0050000  0  4 21 17 23  3
  24267866.708    -7073635.483 6  -5511921.511 2
  22143957.657   -12816681.309 9  -9987016.399 8
  22184976.156   -15762231.243 8 -12282251.917 8
  22624955.162   -12604797.555 8  -9821911.565 5
 92  2 26 11 51  0.0050000  0  4 21 17 23  3
  24254662.355    -7143036.618 6  -5566000.295 3
  22148134.663   -12794738.372 8  -9969917.995 9
  22182965.158   -15772803.954 8 -12290490.383 9
  22638232.370   -12535016.238 8  -9767536.550 6
 92  2 26 11 51 30.0050000  0  4 21 17 23  3
  24241511.347    -7212164.876 6  -5619866.455 5
  22152360.844   -12772528.330 9  -9952611.477 9
  22181029.685   -15782964.741 8 -12298407.865 8
  22651611.818   -12464699.458 8  -9712744.264 5
 92  2 26 11 52  0.0050000  0  4 21 17 23  3
  24228406.530    -7281031.433 6  -5673528.693 5
  22156633.181   -12750080.388 8  -9935119.574 9
  22179176.681   -15792715.920 8 -12306006.161 8
  22665097.678   -12393850.796 8  -9657537.539 5
 92  2 26 11 52 30.0050000  0  4 21 17 23  3
  24215346.665    -7349641.990 6  -5726991.466 4
  22160942.704   -12727428.171 9  -9917468.508 9
  22177398.015   -15802063.278 8 -12313289.814 8
  22678675.588   -12322482.145 8  -9601925.620 6
 92  2 26 11 53  0.0050000  0  4 21 17 23  3
  24202343.164    -7418000.300 6  -5780257.647 3
  22165292.991   -12704574.915 9  -9899660.769 9
  22175697.875   -15810998.857 8 -12320252.588 8
  22692354.203   -12250597.938 8  -9545911.983 6
 92  2 26 11 53 30.0050000  0  4 21 17 23  3
  24189368.456    -7486105.054 6  -5833326.274 3
  22169680.150   -12681520.676 9  -9881696.432 9
  22174075.407   -15819523.298 8 -12326895.003 8
  22706131.778   -12178202.515 8  -9489499.993 6
 92  2 26 11 54  0.0050000  0  4 21 17 23  3
  24176473.182    -7553946.322 6  -5886189.568 4
  22174105.979   -12658250.819 8  -9863564.083 9
  22172528.776   -15827636.542 8 -12333217.000 8
  22720003.462   -12105295.257 8  -9432689.162 6
 92  2 26 11 54 30.0050000  0  4 21 17 23  3
  24163601.884    -7621526.787 6  -5938849.659 4
  22178581.890   -12634741.402 9  -9845245.058 9
  22171062.190   -15835359.202 8 -12339234.643 8
  22733975.903   -12031881.289 8  -9375483.492 5
 92  2 26 11 55  0.0050000  0  4 21 17 23  3
  24150792.063    -7688858.723 6  -5991316.094 4
  22183105.161   -12610971.866 8  -9826723.350 9
  22169664.253   -15842703.539 8 -12344957.494 8
  22748043.362   -11957958.632 8  -9317881.460 6
 92  2 26 11 55 30.0050000  0  4 21 17 23  3
  24138030.492    -7755944.600 6  -6043590.786 4
  22187681.795   -12586921.672 8  -9807982.943 9
  22168334.686   -15849674.616 8 -12350389.488 8
  22762210.652   -11883512.058 8  -9259871.168 5
 92  2 26 11 56  0.0050000  0  4 21 17 23  3
  24125309.388    -7822789.040 6  -6095677.373 4
  22192309.680   -12562592.618 8  -9789025.239 9
  22167077.956   -15856280.328 8 -12355536.790 8
  22776477.776   -11808534.368 8  -9201447.017 5
 92  2 26 11 56 30.0050000  0  4 21 17 23  3
  24112643.461    -7889367.961 6  -6147557.009 3
  22196999.042   -12537964.013 8  -9769834.123 9
  22165898.566   -15862487.343 8 -12360373.418 8
  22790851.922   -11732995.053 8  -9142585.230 5
 92  2 26 11 57  0.0050000  0  4 21 17 23  3
  24100009.312    -7955729.081 6  -6199266.944 5
  22201732.152   -12513098.711 8  -9750458.564 9
  22164787.528   -15868330.546 8 -12364926.550 8
  22805322.305   -11656945.057 8  -9083325.531 6
 92  2 26 11 57 30.0050000  0  4 21 17 23  3
  24087425.227    -8021848.848 6  -6250788.825 4
  22206505.450   -12487988.404 8  -9730892.096 9
  22163745.454   -15873793.571 8 -12369183.442 8
  22819896.710   -11580376.228 8  -9023661.538 4
 92  2 26 11 58  0.0050000  0  4 21 17 23  3
  24074896.895    -8087717.021 6  -6302114.660 4
  22211327.922   -12462653.811 8  -9711150.855 9
  22162780.422   -15878881.195 8 -12373147.804 8
  22834559.569   -11503306.320 8  -8963607.080 5
 92  2 26 11 58 30.0050000  0  4 21 17 23  3
  24062426.725    -8153273.500 6  -6353197.642 4
  22216202.850   -12437030.393 8  -9691184.561 9
  22161892.450   -15883527.817 8 -12376768.537 8
  22849331.231   -11425683.929 8  -8903122.114 5
 92  2 26 11 59  0.0050000  0  4 21 17 23  3
  24049991.630    -8218616.779 6  -6404114.487 4
  22221114.039   -12411221.551 8  -9671073.781 9
  22161072.813   -15887840.738 8 -12380129.249 8
  22864189.550   -11347610.172 8  -8842285.457 5
 92  2 26 11 59 30.0050000  0  4 21 17 23  3
  24037612.306    -8283658.024 7  -6454795.960 4
  22226083.407   -12385130.876 9  -9650743.392 9
  22160328.718   -15891734.436 8 -12383163.279 8
  22879151.001   -11268985.458 8  -8781019.484 5
 92  2 26 12  0  0.0050000  0  4 21 17 23  3
  24025288.142    -8348426.181 7  -6505264.651 5
  22231095.040   -12358779.358 9  -9630209.732 9
  22159668.873   -15895227.202 8 -12385884.904 8
  22894213.767   -11189821.523 8  -8719333.322 4
 92  2 26 12  0 30.0050000  0  4 21 17 23  3
  24013003.241    -8412965.572 7  -6555555.075 3
  22236154.626   -12332190.036 8  -9609490.792 9
  22159071.099   -15898354.277 8 -12388321.575 9
  22909379.664   -11110146.592 8  -8657248.970 5
 92  2 26 12  1  0.0050000  0  4 21 17 23  3
  24000772.314    -8477264.554 7  -6605658.158 2
  22241257.105   -12305377.974 9  -9588598.272 8
  22158545.864   -15901115.624 8 -12390473.260 9
  22924635.813   -11029963.123 8  -8594768.392 5
 92  2 26 12  1 30.0050000  0  4 21 17 23  3
  23988581.243    -8541329.875 7  -6655579.169 4
  22246399.439   -12278358.049 9  -9567543.790 9
  22158087.482   -15903528.809 8 -12392353.660 9
  22939988.183   -10949294.294 8  -8531909.614 5
 92  2 26 12  2  0.0050000  0  4 21 17 23  3
  23976443.849    -8605114.395 7  -6705281.395 3
  22251588.541   -12251095.027 9  -9546299.883 9
  22157701.047   -15905549.329 8 -12393928.072 8
  22955432.289   -10868112.877 8  -8468651.386 3
 92  2 26 12  2 30.0050000  0  4 21 17 23  3
  23964374.213    -8668600.184 7  -6754750.837 5
  22256819.017   -12223600.286 8  -9524875.411 9
  22157393.749   -15907171.192 8 -12395191.854 8
  22970979.526   -10786427.029 8  -8405000.087 5
 92  2 26 12  3  0.0050000  0  4 21 17 23  3
  23952337.839    -8731767.765 6  -6803972.330 2
  22262097.777   -12195863.904 8  -9503262.644 9
  22157168.309   -15908365.490 8 -12396122.465 9
  22986621.500   -10704223.424 8  -8340945.361 5
 92  2 26 12  3 30.0050000  0  4 21 17 23  3
  23940372.521    -8794640.525 7  -6852964.078 4
  22267423.287   -12167867.945 8  -9481447.615 9
  22157019.913   -15909143.104 8 -12396728.385 9
  23002364.493   -10621506.462 8  -8276490.644 5
 92  2 26 12  4  0.0050000  0  4 21 17 23  3
  23928466.272    -8857211.197 7  -6901720.425 4
  22272805.161   -12139597.149 8  -9459418.429 9
  22156954.265   -15909486.484 8 -12396995.943 9
  23018206.132   -10538260.888 8  -8211623.961 4
 92  2 26 12  4 30.0050000  0  4 21 17 23  3
  23916617.574    -8919503.286 7  -6950259.689 2
  22278233.209   -12111059.914 8  -9437181.632 9
  22156969.551   -15909410.990 8 -12396937.109 9
  23034142.788   -10454494.275 8  -8146351.303 4
 92  2 26 12  5  0.0050000  0  4 21 17 23  3
  23904800.357    -8981594.162 7  -6998642.176 5
  22283706.818   -12082293.512 8  -9414766.260 9
  22157048.688   -15908983.059 8 -12396603.643 9
  23050172.104   -10370267.146 8  -8080719.796 5
 92  2 26 12  5 30.0050000  0  4 21 17 23  3
  23893038.299    -9043426.340 7  -7046823.086 4
  22289237.089   -12053241.396 8  -9392128.248 8
  22157208.776   -15908161.743 8 -12395963.641 9
  23066296.140   -10285525.923 8  -8014687.718 5
 92  2 26 12  6  0.0050000  0  4 21 17 23  3
  23881319.710    -9104967.621 7  -7094777.330 4
  22294818.611   -12023898.053 8  -9369263.308 9
  22157441.423   -15906928.899 8 -12395002.975 9
  23082526.291   -10200247.915 8  -7948237.344 5
 92  2 26 12  6 30.0050000  0  4 21 17 23  3
  23869653.891    -9166224.778 7  -7142510.169 4
  22300456.218   -11994279.020 8  -9346183.544 9
  22157749.908   -15905312.383 8 -12393743.338 8
  23098852.104   -10114449.367 8  -7881381.344 5
 92  2 26 12  7  0.0050000  0  4 21 17 23  3
  23858063.910    -9227176.392 7  -7190004.922 3
  22306147.467   -11964382.521 8  -9322887.579 9
  22158125.244   -15903321.644 8 -12392192.097 8
  23115278.029   -10028131.698 8  -7814120.860 5
 92  2 26 12  7 30.0050000  0  4 21 17 23  3
  23846526.995    -9287835.602 7  -7237271.803 3
  22311882.812   -11934246.302 8  -9299404.812 8
  22158571.935   -15900984.972 8 -12390371.307 8
  23131799.581    -9941312.377 8  -7746469.483 6
 92  2 26 12  8  0.0050000  0  4 21 17 23  3
  23835042.239    -9348193.305 7  -7284303.771 3
  22317665.500   -11903849.430 8  -9275718.942 8
  22159084.588   -15898281.441 8 -12388264.645 9
  23148419.186    -9853975.078 7  -7678414.484 5
 92  2 26 12  8 30.0050000  0  4 21 17 23  3
  23823605.453    -9408285.439 7  -7331128.801 4
  22323491.674   -11873221.708 8  -9251853.188 8
  22159666.779   -15895232.086 8 -12385888.524 9
  23165128.711    -9766156.413 8  -7609984.369 5
 92  2 26 12  9  0.0050000  0  4 21 17 23  3
  23812232.536    -9468072.025 7  -7377715.738 5
  22329375.399   -11842304.294 8  -9227761.695 8
  22160326.624   -15891759.641 8 -12383182.705 9
  23181943.479    -9677799.477 8  -7541134.833 5
 92  2 26 12  9 30.0050000  0  4 21 17 23  3
  23800897.380    -9527581.277 7  -7424086.593 5
  22335313.988   -11811107.801 8  -9203452.741 8
  22161069.812   -15887864.877 8 -12380147.817 8
  23198858.063    -9588916.981 8  -7471875.804 3
 92  2 26 12 10  0.0050000  0  4 21 17 23  3
  23789614.994    -9586896.113 7  -7470305.922 4
  22341285.557   -11779716.522 8  -9178992.005 8
  22161874.162   -15883629.953 8 -12376847.868 9
  23215852.394    -9499604.484 8  -7402281.669 4
 92  2 26 12 10 30.0050000  0  4 21 17 23  3
  23778377.264    -9645980.873 7  -7516345.951 4
  22347296.982   -11748118.483 8  -9154370.156 9
  22162747.144   -15879041.215 8 -12373272.224 9
  23232930.084    -9409839.627 8  -7332335.048 4
 92  2 26 12 11  0.0050000  0  4 21 17 23  3
  23767186.613    -9704747.664 7  -7562138.232 3
  22353370.182   -11716217.473 8  -9129512.232 8
  22163702.892   -15874020.953 8 -12369360.312 8
  23250117.187    -9319535.523 8  -7261968.225 5
 92  2 26 12 11 30.0050000  0  4 21 17 23  3
  23756062.518    -9763198.569 7  -7607684.382 5
  22359493.742   -11684031.169 8  -9104431.982 8
  22164734.165   -15868593.112 8 -12365130.816 9
  23267402.309    -9228710.391 8  -7191195.451 4
 92  2 26 12 12  0.0050000  0  4 21 17 23  3
  23745002.570    -9821349.974 7  -7652997.156 5
  22365670.072   -11651587.814 8  -9079151.451 8
  22165842.202   -15862785.956 8 -12360605.752 9
  23284783.389    -9137389.391 8  -7120036.253 4
 92  2 26 12 12 30.0050000  0  4 21 17 23  3
  23733994.799    -9879182.141 7  -7698061.194 5
  22371901.248   -11618843.966 8  -9053636.764 9
  22167023.686   -15856566.765 8 -12355759.630 8
  23302255.279    -9045540.965 8  -7048466.072 4
 92  2 26 12 13  0.0050000  0  4 21 17 23  3
  23723037.091    -9936753.351 7  -7742921.860 3
  22378179.802   -11585841.739 8  -9027920.754 9
  22168275.617   -15849979.521 8 -12350626.692 9
  23319826.113    -8953223.222 8  -6976530.197 5
 92  2 26 12 13 30.0050000  0  4 21 17 23  3
  23712148.016    -9993986.566 7  -7787519.158 5
  22384522.816   -11552520.629 8  -9001956.254 8
  22169612.095   -15842966.198 8 -12345161.765 9
  23337494.685    -8860370.702 8  -6904177.631 5
 92  2 26 12 14  0.0050000  0  4 21 17 23  3
  23701302.723   -10050957.538 7  -7831912.094 4
  22390909.299   -11518950.855 8  -8975798.004 9
  22171010.625   -15835615.683 8 -12339434.086 8
  23355253.789    -8767063.399 8  -6831470.685 4
 92  2 26 12 14 30.0050000  0  4 21 17 23  3
  23690522.485   -10107643.228 7  -7876082.738 3
  22397352.443   -11485097.718 8  -8949418.935 9
  22172478.712   -15827905.481 8 -12333426.135 9
  23373101.035    -8673280.959 8  -6758393.451 3
 92  2 26 12 15  0.0050000  0  4 21 17 23  3
  23679791.421   -10164023.914 7  -7920015.738 4
  22403847.746   -11450969.572 8  -8922825.588 8
  22174012.150   -15819836.200 8 -12327138.360 8
  23391032.826    -8579018.155 7  -6684941.959 4
 92  2 26 12 15 30.0050000  0  4 21 17 23  3
  23669121.503   -10220090.464 7  -7963703.948 5
  22410395.800   -11416558.393 8  -8896011.674 8
  22175618.442   -15811404.484 8 -12320568.192 8
  23409066.841    -8484262.789 7  -6611106.670 5
 92  2 26 12 16  0.0050000  0  4 21 17 23  3
  23658503.167   -10275859.275 7  -8007160.161 5
  22416993.047   -11381866.692 8  -8868979.188 9
  22177296.682   -15802599.055 8 -12313706.807 9
  23427188.089    -8389019.954 7  -6536891.517 2
 92  2 26 12 16 30.0050000  0  4 21 17 23  3
  23647951.056   -10331335.111 7  -8050388.061 5
  22423645.733   -11346907.431 8  -8841738.215 9
  22179040.569   -15793418.358 8 -12306553.019 9
  23445410.078    -8293296.140 7  -6462301.539 4
 92  2 26 12 17  0.0050000  0  4 21 17 23  3
  23637450.527   -10386514.408 7  -8093384.898 4
  22430350.299   -11311683.629 8  -8814291.109 8
  22180859.109   -15783862.745 8 -12299107.070 8
  23463716.612    -8197087.772 7  -6387334.004 5
 92  2 26 12 17 30.0050000  0  4 21 17 23  3
  23627007.566   -10441411.919 7  -8136162.167 5
  22437105.523   -11276186.888 8  -8786631.314 8
  22182750.206   -15773937.691 8 -12291373.254 9
  23482112.475    -8100402.998 7  -6311995.280 3
 92  2 26 12 18  0.0050000  0  4 21 17 23  3
  23616611.669   -10496031.957 7  -8178723.213 4
  22443911.701   -11240419.912 8  -8758760.952 8
  22184707.842   -15763644.174 8 -12283352.326 9
  23500600.370    -8003249.350 7  -6236291.180 4
 92  2 26 12 18 30.0050000  0  4 21 17 23  3
  23606269.116   -10550383.523 7  -8221075.070 5
  22450766.460   -11204397.716 8  -8730691.711 8
  22186736.534   -15752991.292 8 -12275051.384 9
  23519179.407    -7905631.795 7  -6160225.582 3
 92  2 26 12 19  0.0050000  0  4 21 17 23  3
  23595976.350   -10604471.442 7  -8263221.492 4
  22457670.377   -11168121.847 8  -8702424.812 9
  22188829.391   -15741976.655 8 -12266468.542 9
  23537841.490    -7807549.620 7  -6083797.951 3
 92  2 26 12 19 30.0050000  0  4 21 17 23  3
  23585733.334   -10658294.537 7  -8305161.556 5
  22464618.967   -11131601.055 8  -8673967.054 7
  22190997.493   -15730595.141 8 -12257599.829 9
  23556593.512    -7709005.039 7  -6007010.000 4
 92  2 26 12 20  0.0050000  0  4 21 17 23  3
  23575546.996   -10711849.837 7  -8346892.900 4
  22471613.119   -11094849.873 8  -8645329.780 8
  22193232.448   -15718843.155 8 -12248442.430 9
  23575435.158    -7609995.978 7  -5929860.142 2
 92  2 26 12 20 30.0050000  0  4 21 17 23  3
  23565403.516   -10765134.567 7  -8388413.426 4
  22478648.663   -11057871.305 8  -8616515.317 8
  22195536.644   -15706734.386 8 -12239007.030 9
  23594363.758    -7510527.430 7  -5852352.224 4
 92  2 26 12 21  0.0050000  0  4 21 17 23  3
  23555316.400   -10818134.833 7  -8429712.326 5
  22485735.144   -11020645.780 8  -8587508.432 9
  22197906.506   -15694275.362 8 -12229298.686 8
  23613375.404    -7410608.697 7  -5774493.495 3
 92  2 26 12 21 30.0050000  0  4 21 17 23  3
  23545278.145   -10870888.620 7  -8470819.160 5
  22492862.720   -10983191.953 8  -8558323.632 8
  22200338.421   -15681498.773 8 -12219342.898 9
  23632471.875    -7310272.894 7  -5696309.784 4
 92  2 26 12 22  0.0050000  0  4 21 17 23  3
  23535290.565   -10923357.418 7  -8511703.930 4
  22500042.141   -10945457.611 8  -8528920.260 8
  22202836.594   -15668374.180 8 -12209115.938 9
  23651649.612    -7209485.542 7  -5617774.243 5
 92  2 26 12 22 30.0050000  0  4 21 17 23  3
  23525363.224   -10975530.333 7  -8552358.104 4
  22507278.537   -10907427.662 8  -8499286.537 8
  22205400.729   -15654896.973 8 -12198614.224 9
  23670916.362    -7108251.542 7  -5538890.658 3
 92  2 26 12 23  0.0050000  0  4 21 17 23  3
  23515498.860   -11027366.481 7  -8592749.844 5
  22514579.080   -10869057.858 8  -8469387.999 8
  22208043.983   -15641019.010 8 -12187800.217 9
  23690268.863    -7006526.168 7  -5459624.143 4
 92  2 26 12 23 30.0050000  0  4 21 17 23  3
  23505693.844   -11078897.390 7  -8632903.781 5
  22521932.985   -10830408.078 8  -8439271.300 7
  22210750.826   -15626781.519 8 -12176706.062 9
  23709717.009    -6904344.214 7  -5380001.875 4
 92  2 26 12 24  0.0050000  0  4 21 17 23  3
  23495944.303   -11130137.970 7  -8672831.498 4
  22529330.377   -10791532.006 8  -8408978.245 8
  22213521.502   -15612223.411 8 -12165362.082 9
  23729238.881    -6801741.358 7  -5300051.640 4
 92  2 26 12 24 30.0050000  0  4 21 17 23  3
  23486248.107   -11181107.669 7  -8712548.113 4
  22536768.218   -10752458.355 8  -8378531.264 8
  22216348.542   -15597372.700 8 -12153790.102 9
  23748842.910    -6698740.865 7  -5219791.581 4
 92  2 26 12 25  0.0050000  0  4 21 17 23  3
  23476600.196   -11231791.661 7  -8752042.093 5
  22544243.246   -10713172.015 8  -8347918.537 8
  22219231.038   -15582222.062 8 -12141984.399 8
  23768522.497    -6595318.757 7  -5139202.953 4
 92  2 26 12 25 30.0050000  0  4 21 17 23  3
  23467010.132   -11282158.576 7  -8791289.006 4
  22551764.743   -10673638.913 8  -8317113.530 8
  22222177.106   -15566742.556 8 -12129922.435 9
  23788291.709    -6491443.650 7  -5058261.318 4
 92  2 26 12 26  0.0050000  0  4 21 17 23  3
  23457489.624   -11332214.056 7  -8830293.257 5
  22559344.385   -10633823.563 8  -8286088.585 8
  22225183.430   -15550933.536 8 -12117603.715 9
  23808142.763    -6387109.439 7  -4976962.012 5
 92  2 26 12 26 30.0050000  0  4 21 17 23  3
  23448017.978   -11381993.195 7  -8869082.185 5
  22566971.404   -10593727.779 8  -8254845.130 8
  22228252.993   -15534811.644 8 -12105041.202 9
  23828081.068    -6282339.829 7  -4895323.401 4
 92  2 26 12 27  0.0050000  0  4 21 17 23  3
  23438596.099   -11431500.344 7  -8907659.182 6
  22574661.680   -10553337.615 8  -8223372.279 8
  22231384.330   -15518356.551 8 -12092219.051 9
  23848100.900    -6177123.804 7  -4813336.912 4
 92  2 26 12 27 30.0050000  0  4 21 17 23  3
  23429226.990   -11480741.484 7  -8946028.892 4
  22582398.426   -10512650.283 8  -8191667.868 8
  22234581.314   -15501558.349 8 -12079129.531 9
  23868206.779    -6071466.660 7  -4731006.690 4
 92  2 26 12 28  0.0050000  0  4 21 17 23  3
  23419907.631   -11529736.404 7  -8984206.745 4
  22590196.335   -10471690.045 8  -8159750.803 8
  22237840.055   -15484424.009 8 -12065778.099 9
  23888389.404    -5965390.595 7  -4648350.072 3
 92  2 26 12 28 30.0050000  0  4 21 17 23  3
  23410638.652   -11578439.878 8  -9022157.489 5
  22598046.403   -10430432.593 8  -8127602.145 8
  22241180.952   -15466896.408 8 -12052120.229 9
  23908669.175    -5858852.658 7  -4565333.564 4
 92  2 26 12 29  0.0050000  0  4 21 17 23  3
  23401420.626   -11626850.316 7  -9059879.890 5
  22605954.929   -10388896.279 8  -8095236.192 8
  22244582.994   -15448988.268 8 -12038165.832 9
  23929027.175    -5751862.569 7  -4481964.687 2
 92  2 26 12 29 30.0050000  0  4 21 17 23  3
  23392279.958   -11674906.530 8  -9097326.256 6
  22613912.612   -10347057.188 8  -8062634.317 8
  22248071.676   -15430659.966 8 -12023884.035 9
  23949478.428    -5644386.027 7  -4398216.765 2
 92  2 26 12 30  0.0050000  0  4 21 17 23  3
  23383170.770   -11722756.034 8  -9134611.569 6
  22621902.089   -10305070.317 8  -8029917.267 8
  22251609.237   -15412079.181 8 -12009405.501 9
  23969991.124    -5536581.830 7  -4314213.528 4
 92  2 26 12 30 30.0050000  0  4 21 17 23  3
  23374125.135   -11770307.630 8  -9171664.713 5
  22629938.613   -10262839.971 8  -7997010.520 7
  22255207.035   -15393170.638 8 -11994671.574 9
  23990585.069    -5428364.528 7  -4229888.426 4
 92  2 26 12 31  0.0050000  0  4 21 17 23  3
  23365136.459   -11817537.335 8  -9208467.030 5
  22638021.327   -10220347.555 8  -7963899.546 8
  22258873.501   -15373920.805 8 -11979671.715 9
  24011263.856    -5319725.380 7  -4145234.569 2
 92  2 26 12 31 30.0050000  0  4 21 17 23  3
  23356210.725   -11864454.107 8  -9245025.519 6
  22646163.389   -10177585.769 8  -7930578.685 7
  22262593.625   -15354343.810 8 -11964416.901 9
  24032009.181    -5210676.172 7  -4060261.173 2
 92  2 26 12 32  0.0050000  0  4 21 17 23  3
  23347341.669   -11911047.812 8  -9281332.259 6
  22654359.721   -10134505.016 8  -7897009.269 8
  22266386.308   -15334415.982 8 -11948888.738 9
  24052845.962    -5101194.031 7  -3974950.459 4
 92  2 26 12 32 30.0050000  0  4 21 17 23  3
  23338532.869   -11957336.187 8  -9317401.085 6
  22662617.199   -10091126.299 8  -7863207.683 8
  22270240.730   -15314143.644 8 -11933092.108 9
  24073758.879    -4991296.891 7  -3889316.383 4
 92  2 26 12 33  0.0060000  0  4 21 17 23  3
  23329787.625   -12003317.618 8  -9353230.716 5
  22670928.951   -10047440.894 8  -7829167.115 8
  22274170.714   -15293511.041 8 -11917014.772 9
  24094751.250    -4880975.917 7  -3803352.017 3
 92  2 26 12 33 30.0060000  0  4 21 17 23  3
  23321081.049   -12049025.914 8  -9388847.529 5
  22679292.561   -10003478.132 8  -7794910.438 7
  22278159.153   -15272556.149 8 -11900686.271 8
  24115814.972    -4770267.926 7  -3717086.102 2
 92  2 26 12 34  0.0060000  0  4 21 17 23  3
  23312438.340   -12094456.631 8  -9424248.038 6
  22687710.127    -9959245.224 8  -7760443.232 8
  22282209.942   -15251266.368 8 -11884096.834 9
  24136962.925    -4659158.926 7  -3630507.708 3
 92  2 26 12 34 30.0060000  0  4 21 17 23  3
  23303850.774   -12139574.409 8  -9459404.730 6
  22696180.166    -9914738.108 8  -7725762.371 8
  22286325.803   -15229633.210 8 -11867239.833 9
  24158184.030    -4547631.987 7  -3543603.690 4
 92  2 26 12 35  0.0060000  0  4 21 17 23  3
  23295329.187   -12184379.925 8  -9494318.076 5
  22704704.161    -9869953.872 8  -7690865.573 7
  22290504.606   -15207669.345 8 -11850125.145 9
  24179483.696    -4435691.469 7  -3456377.351 2
 92  2 26 12 35 30.0060000  0  4 21 17 23  3
  23286852.848   -12228897.600 8  -9529007.140 5
  22713273.736    -9824918.308 8  -7655772.940 8
  22294741.571   -15185409.878 8 -11832780.106 9
  24200861.888    -4323361.776 7  -3368847.702 2
 92  2 26 12 36  0.0060000  0  4 21 17 23  3
  23278444.269   -12273101.537 8  -9563451.745 6
  22721893.952    -9779603.052 8  -7620462.354 7
  22299038.199   -15162831.137 8 -11815186.286 9
  24222311.138    -4210622.606 7  -3280999.065 2
 92  2 26 12 36 30.0060000  0  4 21 17 23  3
  23270093.258   -12316986.955 8  -9597648.166 6
  22730574.458    -9733990.156 8  -7584919.857 8
  22303397.787   -15139930.938 8 -11797341.977 9
  24243849.435    -4097472.727 7  -3192830.365 4
 92  2 26 12 37  0.0060000  0  4 21 17 23  3
  23261809.377   -12360535.257 8  -9631581.889 6
  22739323.002    -9688031.701 8  -7549108.078 8
  22307824.209   -15116661.780 8 -11779210.172 9
  24265463.275    -3983868.988 7  -3104307.985 2
 92  2 26 12 37 30.0060000  0  4 21 17 23  3
  23253565.388   -12403841.422 8  -9665326.943 5
  22748113.201    -9641828.258 8  -7513105.415 7
  22312301.307   -15093121.315 8 -11760866.956 9
  24287146.950    -3869910.316 7  -3015508.984 3
 92  2 26 12 38  0.0060000  0  4 21 17 23  3
  23245373.262   -12446887.052 8  -9698868.960 5
  22756952.888    -9595380.555 8  -7476912.405 7
  22316838.067   -15069297.900 8 -11742303.255 9
  24308901.090    -3755589.397 6  -2926427.781 2
 92  2 26 12 38 30.0060000  0  4 21 17 23  3
  23237227.901   -12489688.802 7  -9732220.945 5
  22765833.042    -9548710.367 8  -7440546.030 7
  22321419.796   -15045205.694 8 -11723530.106 9
  24330729.288    -3640918.871 7  -2837074.186 1
 92  2 26 12 39  0.0060000  0  4 21 17 23  3
  23229139.202   -12532199.772 8  -9765346.338 5
  22774766.558    -9501767.862 8  -7403967.466 7
  22326066.283   -15020786.984 8 -11704502.548 9
  24352625.525    -3525851.433 7  -2747411.387 3
 92  2 26 12 39 30.0060000  0  4 21 17 23  3
  23221111.055   -12574409.317 8  -9798236.869 6
  22783751.937    -9454551.078 8  -7367175.176 7
  22330776.323   -14996041.829 8 -11685220.613 9
  24374595.227    -3410395.579 6  -2657445.840 3
 92  2 26 12 40  0.0060000  0  4 21 17 23  3
  23213138.678   -12616292.909 8  -9830873.405 5
  22792795.774    -9407022.935 8  -7330140.253 7
  22335554.717   -14970939.521 9 -11665660.364 9
  24396642.251    -3294521.687 6  -2567154.521 2
 92  2 26 12 40 30.0060000  0  4 21 17 23  3
  23205219.368   -12657897.697 8  -9863292.678 5
  22801893.882    -9359202.896 8  -7292877.913 6
  22340392.161   -14945516.206 9 -11645850.004 9
  24418765.445    -3178274.574 6  -2476572.397 3
 92  2 26 12 41  0.0060000  0  4 21 17 23  3
  23197352.199   -12699217.058 7  -9895489.563 5
  22811052.245    -9311091.609 8  -7255388.602 7
  22345291.676   -14919774.437 9 -11625791.484 9
  24440949.784    -3061660.778 6  -2385704.605 2
 92  2 26 12 41 30.0060000  0  4 21 17 23  3
  23189550.713   -12740226.801 7  -9927445.207 6
  22820260.969    -9262685.519 8  -7217669.599 7
  22350250.243   -14893717.022 9 -11605487.011 9
  24463216.262    -2944669.125 6  -2294542.276 2
 92  2 26 12 42  0.0060000  0  4 21 17 23  3
  23181816.358   -12780894.548 7  -9959134.332 6
  22829533.840    -9213965.243 8  -7179705.740 7
  22355271.159   -14867320.875 9 -11584918.574 9
  24485556.502    -2827272.639 6  -2203064.529 2
 92  2 26 12 42 30.0060000  0  4 21 17 23  3
  23174134.179   -12821263.416 8  -9990590.591 6
  22838853.495    -9164982.512 8  -7141537.392 7
  22360354.757   -14840622.836 9 -11564114.916 9
  24507963.297    -2709516.230 6  -2111306.350 3
 92  2 26 12 43  0.0060000  0  4 21 17 23  3
  23166505.362   -12861357.066 8 -10021832.378 5
  22848220.214    -9115773.063 8  -7103192.373 7
  22365481.194   -14813657.169 9 -11543102.713 9
  24530434.832    -2591421.423 6  -2019284.518 1
 92  2 26 12 43 30.0060000  0  4 21 17 23  3
  23158934.411   -12901124.964 8 -10052820.318 5
  22857636.089    -9066283.420 8  -7064629.037 7
  22370679.003   -14786376.944 9 -11521845.396 8
  24552987.023    -2472941.030 6  -1926962.171 1
 92  2 26 12 44  0.0060000  0  4 21 17 23  3
  23151418.009   -12940609.058 7 -10083587.132 6
  22867102.641    -9016544.646 8  -7025871.558 7
  22375922.375   -14758805.448 9 -11500361.109 9
  24575598.561    -2354109.439 6  -1834366.117 2
 92  2 26 12 44 30.0060000  0  4 21 17 23  3
  23143954.969   -12979868.062 8 -10114178.546 6
  22876606.047    -8966600.610 8  -6986954.143 7
  22381215.201   -14731004.719 9 -11478698.208 8
  24598265.870    -2234984.152 6  -1741541.296 3
 92  2 26 12 45  0.0060000  0  4 21 17 23  3
  23136548.294   -13018802.962 8 -10144517.424 6
  22886164.944    -8916352.611 8  -6947799.868 7
  22386562.000   -14702891.076 9 -11456791.473 9
  24621008.722    -2115482.910 6  -1648423.526 2
 92  2 26 12 45 30.0060000  0  4 21 17 23  3
  23129197.687   -13057428.146 8 -10174614.947 6
  22895784.080    -8865822.530 8  -6908425.803 7
  22391969.054   -14674473.200 9 -11434647.683 9
  24643816.645    -1995629.287 6  -1555031.121
 92  2 26 12 46  0.0060000  0  4 21 17 23  3
  23121894.439   -13095771.694 8 -10204493.008 5
  22905445.795    -8815036.660 8  -6868852.403 6
  22397429.489   -14645772.516 9 -11412283.502 9
  24666684.213    -1875448.087 6  -1461383.441 2
 92  2 26 12 46 30.0060000  0  4 21 17 23  3
  23114660.155   -13133781.390 8 -10234110.921 6
  22915168.655    -8763947.292 8  -6829042.514 6
  22402954.664   -14616751.406 9 -11389669.663 9
  24689618.929    -1754898.374 6  -1367448.618 2
 92  2 26 12 47  0.0060000  0  4 21 17 23  3
  23107494.519   -13171456.295 8 -10263467.956 6
  22924948.786    -8712565.054 8  -6789004.413 7
  22408537.984   -14587400.135 9 -11366798.541 9
  24712634.598    -1633979.202 6  -1273225.966 3
 92  2 26 12 47 30.0060000  0  4 21 17 23  3
  23100388.232   -13208802.634 8 -10292568.986 6
  22934778.075    -8660899.549 8  -6748745.595 7
  22414187.876   -14557723.095 9 -11343673.586 9
  24735716.227    -1512696.242 6  -1178719.942 2
 92  2 26 12 48  0.0060000  0  4 21 17 23  3
  23093345.813   -13245806.748 8 -10321403.341 6
  22944669.138    -8608916.096 8  -6708239.014 7
  22419899.227   -14527703.652 9 -11320281.799 9
  24758871.584    -1391032.817 7  -1083917.132 2
 92  2 26 12 48 30.0060000  0  4 21 17 23  3
  23086366.633   -13282515.948 8 -10350007.872 5
  22954617.454    -8556646.906 8  -6667509.789 7
  22425667.240   -14497388.383 9 -11296659.511 8
  24782077.320    -1269034.301 6   -988853.405 3
 92  2 26 12 49  0.0060000  0  4 21 17 23  3
  23079428.846   -13318934.261 8 -10378385.756 6
  22964624.823    -8504069.657 8  -6626540.519 7
  22431493.693   -14466768.413 8 -11272799.794 9
  24805368.196    -1146693.562 6   -893523.051
 92  2 26 12 49 30.0060000  0  4 21 17 23  3
  23072547.404   -13355103.296 8 -10406569.384 6
  22974681.366    -8451203.299 8  -6585345.968 7
  22437372.636   -14435885.024 9 -11248734.821 8
  24828700.149    -1024047.917 6   -797955.088 1
 92  2 26 12 50  0.0060000  0  4 21 17 23  3
  23065708.245   -13391025.206 8 -10434560.470 6
  22984798.147    -8398032.725 8  -6543914.360 7
  22443300.423   -14404740.701 9 -11224466.513 9
  24852094.748     -901084.248 6   -702139.226 1
 92  2 26 12 50 30.0060000  0  4 21 17 23  3
  23058917.650   -13426736.086 8 -10462387.118 6
  22994969.512    -8344604.458 8  -6502281.963 7
  22449265.989   -14373384.970 9 -11200033.479 9
  24875555.606     -777842.976 6   -606107.119 3
 92  2 26 12 51  0.0060000  0  4 21 17 23  3
  23052173.211   -13462182.433 8 -10490007.620 6
  23005190.943    -8290876.932 8  -6460416.363 7
  22455281.324   -14341765.760 9 -11175395.134 9
  24899064.435     -654277.048 6   -509822.077 3
 92  2 26 12 51 30.0060000  0  5 11 21 17 23  3
  26991330.099     -219228.457 5   -170827.438 2
  23045489.934   -13497295.093 8 -10517368.097 6
  23015478.020    -8236819.419 8  -6418293.646 7
  22461359.025   -14309829.544 9 -11150509.769 9
  24922650.603     -530337.924 6   -413246.195 2
 92  2 26 12 52  0.0060000  0  5 11 21 17 23  3
  26972073.818     -320362.521 4   -249633.255 1
  23038857.334   -13532119.772 8 -10544504.182 6
  23025815.460    -8182506.702 8  -6375972.054 6
  22467485.587   -14277637.327 9 -11125424.913 9
  24946292.839     -406088.581 6   -316428.546 2
 92  2 26 12 52 30.0060000  0  5 11 21 17 23  3
  26952848.425     -421481.999 4   -328427.655 1
  23032294.568   -13566635.537 8 -10571399.563 6
  23036197.868    -8127937.110 8  -6333450.311 7
  22473665.198   -14245167.776 9 -11100123.961 9
  24969988.437     -281530.764 6   -219370.526 2
 92  2 26 12 53  0.0060000  0  5 11 21 17 23  3
  26933611.654     -522559.350 4   -407189.213 2
  23025791.483   -13600807.858 8 -10598027.329 6
  23046632.453    -8073090.977 8  -6290713.076 6
  22479902.394   -14212383.988 9 -11074578.158 9
  24993758.687     -156641.130 6   -122054.031 2
 92  2 26 12 53 30.0060000  0  5 11 21 17 23  3
  26914362.580     -623680.809 4   -485985.157 2
  23019338.148   -13634724.886 8 -10624456.153 6
  23057111.099    -8018054.545 8  -6247827.558 6
  22486181.541   -14179380.793 9 -11048861.390 9
  25017573.296      -31511.654 6    -24550.645 1
 92  2 26 12 54  0.0060000  0  5 11 21 17 23  3
  26895127.886     -724772.451 3   -564757.853 1
  23012944.162   -13668321.864 8 -10650635.579 6
  23067635.901    -7962741.055 8  -6204726.140 7
  22492518.256   -14146086.526 9 -11022917.807 9
  25041440.378       93926.817 6     73193.589 2
 92  2 26 12 54 30.0060000  0  5 11 21 17 23  3
  26875906.401     -825824.706 4   -643499.901 1
  23006610.448   -13701592.490 8 -10676560.723 7
  23078215.288    -7907138.660 8  -6161399.619 6
  22498911.335   -14112498.118 9 -10996745.016 9
  25065376.108      219678.324 6    171181.750 3
 92  2 26 12 55  0.0060000  0  5 11 21 17 23  3
  26856680.711     -926824.572 4   -722201.035 2
  23000336.100   -13734546.017 8 -10702238.779 7
  23088854.022    -7851238.479 8  -6117841.047 6
  22505356.870   -14078621.998 9 -10970348.044 9
  25089362.200      345750.549 6    269419.788 3
 92  2 26 12 55 30.0060000  0  5 11 21 17 23  3
  26837464.304    -1027800.242 4   -800883.322 1
  22994122.898   -13767226.067 8 -10727703.732 6
  23099541.024    -7795069.583 8  -6074073.105 7
  22511850.375   -14044496.602 9 -10943756.838 9
  25113404.046      472109.994 6    367881.602 3
 92  2 26 12 56  0.0060000  0  5 11 21 17 23  3
  26818250.917    -1128765.360 4   -879557.420 2
  22987949.272   -13799656.069 8 -10752973.827 6
  23110275.386    -7738649.053 8  -6030109.058 7
  22518388.535   -14010136.815 9 -10916982.970 9
  25137505.275      598737.804 6    466552.517 2
 92  2 26 12 56 30.0060000  0  4 21 17 23  3
  22981819.709   -13831840.290 8 -10778052.412 6
  23121062.221    -7681966.964 8  -5985941.210 6
  22524971.089   -13975531.019 9 -10890017.423 9
  25161659.552      725643.952 6    565440.431 2
 92  2 26 12 57  0.0060000  0  5 11 21 17 23  3
  26779837.613      -36989.73715    -28823.652 3
  22975754.013   -13863759.103 8 -10802924.188 7
  23131904.512    -7624996.621 8  -5941548.755 6
  22531609.099   -13940657.442 9 -10862843.213 9
  25185858.484      852845.974 6    664558.897 2
 92  2 26 12 57 30.0060000  0  5 11 21 17 23  3
  26760648.795     -137851.151 5   -107416.854 2
  22969729.395   -13895410.474 8 -10827587.577 7
  23142795.978    -7567756.420 8  -5896946.028 6
  22538293.562   -13905531.128 9 -10835472.060 9
  25210119.191      980318.543 6    763888.083 2
 92  2 26 12 58  0.0060000  0  5 11 21 17 23  3
  26741463.868     -238672.014 5   -185978.589 1
  22963760.828   -13926777.431 8 -10852029.348 7
  23153744.402    -7510227.600 8  -5852118.388 6
  22545028.107   -13870145.000 9 -10807898.450 9
  25234419.474     1108067.989 6    863433.032 1
 92  2 26 12 58 30.0060000  0  5 11 21 17 23  3
  26722295.136     -339426.168 5   -264488.296 2
  22957854.313   -13957823.956 8 -10876221.410 6
  23164748.579    -7452391.960 8  -5807051.673 6
  22551818.703   -13834471.787 9 -10780101.144 9
  25258795.299     1236114.889 6    963209.731 2
 92  2 26 12 59  0.0060000  0  5 11 21 17 23  3
  26703133.610     -440115.745 5   -342947.797 2
  22952006.553   -13988541.269 8 -10900156.954 7
  23175811.825    -7394258.395 8  -5761752.813 6
  22558659.973   -13798516.609 9 -10752084.125 9
  25283214.889     1364451.642 6   1063212.516 2
 92  2 26 12 59 30.0060000  0  5 11 21 17 23  3
  26683986.760     -540719.354 5   -421340.192 2
  22946228.350   -14018921.220 8 -10923829.626 7
  23186934.123    -7335814.254 8  -5716211.937 6
  22565557.591   -13762254.625 9 -10723828.032 8
  25307689.343     1493094.245 6   1163453.351 3
 92  2 26 13  0  0.0060000  0  5 11 21 17 23  3
  26664852.806     -641306.396 5   -499719.755 2
  22940492.725   -14049052.279 8 -10947308.363 7
  23198096.887    -7277136.493 8  -5670489.031 6
  22572503.475   -13725765.440 9 -10695394.899 9
  25332218.364     1621967.896 6   1263874.308 2
 92  2 26 13  0 30.0060000  0  5 11 21 17 23  3
  26645720.649     -741841.149 5   -578058.444 2
  22934813.464   -14078902.263 8 -10970568.086 7
  23209312.422    -7218209.408 8  -5624571.824 6
  22579497.645   -13689015.277 9 -10666758.422 9
  25356791.761     1751102.965 5   1364498.896 2
 92  2 26 13  1  0.0060000  0  5 11 21 17 23  3
  26626604.389     -842293.428 5   -656332.955 2
  22929190.847   -14108444.778 8 -10993588.202 6
  23220579.224    -7159008.076 8  -5578440.946 6
  22586540.971   -13651993.738 9 -10637910.474 9
  25381431.398     1880524.279 6   1465346.742 2
 92  2 26 13  1 30.0060000  0  5 11 21 17 23  3
  26607489.316     -942721.615 5   -734588.637 2
  22923616.514   -14137739.007 8 -11016414.837 6
  23231886.198    -7099587.692 8  -5532139.366 6
  22593623.858   -13614770.480 9 -10608905.341 9
  25406093.233     2010167.658 5   1566367.494 2
 92  2 26 13  2  0.0060000  0  5 11 21 17 23  3
  26588395.235    -1043067.454 5   -812780.248 1
  22918098.232   -14166729.284 8 -11039004.627 6
  23243246.830    -7039884.641 8  -5485617.522 6
  22600755.919   -13577294.139 9 -10579702.995 9
  25430815.916     2140086.097 5   1667602.555 3
 92  2 26 13  2 30.0060000  0  5 11 21 17 23  3
  26569321.240    -1143300.928 5   -890884.277 1
  22912642.910   -14195387.957 8 -11061336.050 7
  23254669.219    -6979863.290 8  -5438847.643 5
  22607942.547   -13539528.739 9 -10550275.414 9
  25455598.558     2270303.922 6   1769070.914 2
 92  2 26 13  3  0.0060000  0  5 11 21 17 23  3
  26550256.545    -1243507.806 5   -968967.545 1
  22907234.058   -14223813.797 8 -11083486.032 6
  23266139.282    -6919590.172 7  -5391881.601 6
  22615168.141   -13501561.168 9 -10520690.304 9
  25480414.181     2400729.984 5   1870701.635 1
 92  2 26 13  3 30.0060000  0  5 11 21 17 23  3
  26531204.136    -1343605.040 5  -1046965.405
  22901881.256   -14251936.928 8 -11105400.118 6
  23277672.306    -6858973.332 7  -5344647.723 6
  22622449.803   -13463292.067 9 -10490870.248 9
  25505289.763     2531441.356 6   1972554.574 2
 92  2 26 13  4  0.0060000  0  5 11 21 17 23  3
  26512178.094    -1443598.488 5  -1124882.377 2
  22896588.727   -14279763.766 8 -11127083.334 5
  23289269.773    -6798032.718 7  -5297161.549 5
  22629787.532   -13424719.238 9 -10460813.486 9
  25530216.597     2662426.721 6   2074621.013 2
 92  2 26 13  4 30.0060000  0  5 11 21 17 23  3
  26493158.368    -1543536.533 5  -1202756.187 3
  22891344.152   -14307334.466 8 -11148566.974 7
  23300919.416    -6736828.312 7  -5249469.804 6
  22637176.809   -13385900.464 9 -10430565.110 9
  25555187.509     2793632.047 6   2176858.802 2
 92  2 26 13  5  0.0060000  0  5 11 21 17 23  3
  26474159.915    -1643384.107 5  -1280559.488 1
  22886154.143   -14334614.729 8 -11169824.299 7
  23312618.217    -6675339.422 7  -5201556.406 6
  22644612.556   -13346816.300 9 -10400109.914 9
  25580199.499     2925087.423 6   2279291.478 2
 92  2 26 13  5 30.0060000  0  5 11 21 17 23  3
  26455187.550    -1743093.284 5  -1358254.878 2
  22881029.799   -14361547.340 8 -11190810.739 7
  23324381.164    -6613524.312 7  -5153388.807 6
  22652109.467   -13307423.781 9 -10369414.439 9
  25605267.243     3056834.479 6   2381951.586 1
 92  2 26 13  6  0.0060000  0  5 11 21 17 23  3
  26436241.569    -1842642.460 5  -1435825.640 1
  22875974.087   -14388105.095 8 -11211505.070 6
  23336209.480    -6551367.091 8  -5104954.634 5
  22659666.632   -13267721.837 9 -10338477.863 9
  25630392.852     3188889.340 6   2484851.379 2
 92  2 26 13  6 30.0060000  0  5 11 21 17 23  3
  26417315.377    -1942094.697 5  -1513320.902 1
  22870975.647   -14414362.294 8 -11231965.193 6
  23348090.845    -6488935.514 7  -5056306.661 5
  22667263.079   -13227796.451 9 -10307367.189 9
  25655573.010     3321183.112 6   2587937.356 1
 92  2 26 13  7  0.0060000  0  5 11 21 17 23  3
  26398393.076    -2041499.219 5  -1590778.962 3
  22866027.271   -14440371.045 8 -11252231.739 7
  23360009.396    -6426276.075 7  -5007481.149 6
  22674893.099   -13187698.443 9 -10276121.993 9
  25680780.461     3453661.045 6   2691166.809 2
 92  2 26 13  7 30.0060000  0  5 11 21 17 23  3
  26379490.861    -2140862.060 5  -1668204.506 1
  22861122.678   -14466142.624 8 -11272313.470 7
  23371980.123    -6363391.219 7  -4958479.985 6
  22682556.100   -13147430.226 9 -10244744.174 9
  25706025.097     3586311.700 6   2794530.757 1
 92  2 26 13  8  0.0060000  0  5 11 21 17 23  3
  26360614.733    -2240082.909 5  -1745519.478 2
  22856280.120   -14491590.772 8 -11292143.188 6
  23384005.086    -6300205.876 7  -4909244.685 6
  22690268.852   -13106904.007 9 -10213165.297 9
  25731315.576     3719229.414 6   2898103.257 2
 92  2 26 13  8 30.0060000  0  5 11 21 17 23  3
  26341758.377    -2339159.305 6  -1822721.865 3
  22851494.241   -14516725.355 8 -11311728.551 6
  23396085.226    -6236716.271 7  -4859772.269 6
  22698033.780   -13066110.577 9 -10181378.218 9
  25756662.732     3852410.754 5   3001880.753 1
 92  2 26 13  9  0.0060000  0  5 11 21 17 23  3
  26322920.029    -2438143.221 5  -1899852.167 2
  22846762.021   -14541599.215 8 -11331110.754 7
  23408218.432    -6172952.522 7  -4810086.253 5
  22705835.878   -13025092.433 9 -10149416.027 9
  25782046.465     3985798.122 5   3105818.884 2
 92  2 26 13  9 30.0060000  0  5 11 21 17 23  3
  26304108.049    -2537016.826 6  -1976896.455 2
  22842079.552   -14566212.898 8 -11350290.238 7
  23420404.983    -6108905.922 7  -4760179.840 6
  22713686.835   -12983838.048 9 -10117269.755 9
  25807469.757     4119403.440 5   3209926.908 1
 92  2 26 13 10  0.0060000  0  5 11 21 17 23  3
  26285307.760    -2635791.932 6  -2053864.035 2
  22837444.460   -14590572.630 8 -11369271.838 7
  23432648.510    -6044589.422 7  -4710063.113 6
  22721580.075   -12942359.855 9 -10084949.088 9
  25832927.845     4253209.528 5   3314191.370 1
 92  2 26 13 10 30.0060000  0  5 11 21 17 23  3
  26266536.561    -2734453.271 6  -2130742.998 2
  22832861.247   -14614650.486 8 -11388033.794 7
  23444944.195    -5979962.308 7  -4659704.337 5
  22729516.783   -12900644.637 9 -10052443.737 9
  25858431.181     4387225.507 5   3418619.361 2
 92  2 26 13 11  0.0060000  0  5 11 21 17 23  3
  26247787.227    -2832982.834 6  -2207519.270 2
  22828336.476   -14638418.655 8 -11406554.431 7
  23457304.952    -5915025.199 7  -4609104.014 6
  22737503.852   -12858681.271 9 -10019745.024 9
  25883972.297     4521463.767 5   3523220.511 3
 92  2 26 13 11 30.0060000  0  5 11 21 17 23  3
  26229060.700    -2931412.602 5  -2284217.767 2
  22823868.662   -14661911.948 8 -11424860.868 7
  23469707.956    -5849833.271 7  -4558305.137 6
  22745530.202   -12816501.595 9  -9986877.747 9
  25909554.490     4655886.493 5   3627965.327 2
 92  2 26 13 12  0.0060000  0  5 11 21 17 23  3
  26210351.851    -3029711.650 5  -2360814.416 3
  22819458.416   -14685088.784 8 -11442920.722 7
  23482173.624    -5784343.684 7  -4507274.323 5
  22753603.004   -12774084.226 9  -9953825.249 9
  25935174.446     4790518.924 5   3732873.696 1
 92  2 26 13 12 30.0060000  0  5 11 21 17 23  3
  26191675.389    -3127850.266 5  -2437286.032 1
  22815110.834   -14707934.773 8 -11460722.773 7
  23494692.968    -5718532.112 7  -4455992.592 5
  22761719.292   -12731417.104 9  -9920578.153 9
  25960843.577     4925384.388 6   3837963.618 1
 92  2 26 13 13  0.0060000  0  5 11 21 17 23  3
  26173029.482    -3225820.565 5  -2513626.461 1
  22810822.896   -14730460.760 8 -11478275.480 8
  23507275.256    -5652412.668 7  -4404470.966 5
  22769890.741   -12688491.134 9  -9887129.348 9
  25986551.988     5060485.766 6   3943237.377 3
 92  2 26 13 13 30.0060000  0  5 11 21 17 23  3
  26154404.289    -3323660.402 5  -2589865.280 1
  22806586.524   -14752722.223 8 -11495622.064 6
  23519912.110    -5586009.518 7  -4352728.286 6
  22778096.653   -12645359.986 9  -9853520.678 9
  26012290.972     5195778.654 5   4048660.301 3
 92  2 26 13 14  0.0060000  0  5 11 21 17 23  3
  26135813.246    -3421398.369 5  -2666024.772 2
  22802394.528   -14774744.803 8 -11512782.490 7
  23532592.730    -5519353.088 7  -4300788.234 6
  22786336.454   -12602072.632 9  -9819790.262 9
  26038066.514     5331228.862 6   4154205.791 2
 92  2 26 13 14 30.0060000  0  5 11 21 17 23  3
  26117237.210    -3518990.723 5  -2742070.759 2
  22798257.396   -14796495.025 8 -11529730.692 7
  23545329.399    -5452426.101 7  -4248637.362 5
  22794612.220   -12558571.218 9  -9785893.075 9
  26063883.448     5466874.305 6   4259903.468 1
 92  2 26 13 15  0.0060000  0  5 11 21 17 23  3
  26098705.846    -3616417.657 5  -2817987.815 2
  22794171.532   -14817953.247 8 -11546451.358 7
  23558120.950    -5385210.419 7  -4196261.521 5
  22802934.752   -12514837.500 9  -9751814.854 9
  26089732.456     5602729.000 5   4365764.295 1
 92  2 26 13 15 30.0060000  0  5 11 21 17 23  3
  26080195.755    -3713672.959 6  -2893771.169
  22790148.611   -14839112.730 8 -11562939.265 7
  23570971.552    -5317699.123 7  -4143655.348 5
  22811300.771   -12470876.846 9  -9717559.805 9
  26115624.024     5738792.766 5   4471787.936 2
 92  2 26 13 16  0.0060000  0  5 11 21 17 23  3
  26061717.754    -3810760.728 5  -2969423.989 2
  22786179.053   -14859968.115 8 -11579190.206 7
  23583868.624    -5249907.903 7  -4090831.051 6
  22819710.537   -12426676.428 9  -9683117.915 9
  26141559.672     5875055.974 5   4577966.928 3
 92  2 26 13 16 30.0060000  0  5 11 21 17 23  3
  26043280.220    -3907667.475 6  -3044935.675 1
  22782274.864   -14880517.118 8 -11595202.401 7
  23596827.156    -5181818.173 7  -4037774.150 5
  22828171.292   -12382216.762 9  -9648474.037 9
  26167529.191     6011525.609 5   4684306.773 1
 92  2 26 13 17  0.0060000  0  5 11 21 17 23  3
  26024873.260    -4004392.025 6  -3120305.411 1
  22778415.329   -14900761.849 8 -11610977.500 7
  23609845.350    -5113416.351 7  -3984474.046 5
  22836677.593   -12337509.410 9  -9613637.146 9
  26193525.094     6148197.506 5   4790804.222 1
 92  2 26 13 17 30.0060000  0  5 11 21 17 23  3
  26006495.685    -4100963.196 6  -3195555.650 2
  22774623.554   -14920725.859 8 -11626533.861 7
  23622913.294    -5044734.681 7  -3930955.892 6
  22845231.271   -12292572.611 9  -9578621.480 9
  26219578.863     6285036.968 5   4897432.123 1
 92  2 26 13 18  0.0060000  0  5 11 21 17 23  3
  25988145.088    -4197395.193 6  -3270697.458 2
  22770874.061   -14940425.055 8 -11641883.878 8
  23636033.712    -4975787.119 7  -3877230.547 5
  22853821.821   -12247420.889 9  -9543438.320 9
  26245644.916     6422023.170 4   5004174.421 2
 92  2 26 13 18 30.0060000  0  5 11 21 17 23  3
  25969823.564    -4293638.160 5  -3345691.965 3
  22767177.005   -14959811.954 8 -11656990.553 8
  23649210.197    -4906534.411 7  -3823267.436 6
  22862463.640   -12202015.205 9  -9508057.282 9
  26271749.953     6559200.668 5   5111065.815 2
 92  2 26 13 19  0.0060000  0  5 11 21 17 23  3
  25951546.118    -4389724.315 5  -3420564.294 3
  22763539.629   -14978919.918 8 -11671879.858 7
  23662438.526    -4837018.819 7  -3769099.475 5
  22871145.333   -12156398.758 9  -9472512.002 9
  26297887.657     6696531.222 5   5218076.488 3
 92  2 26 13 19 30.0060000  0  5 11 21 17 23  3
  25933299.246    -4485600.234 6  -3495272.756 1
  22759971.793   -14997689.528 8 -11686505.516 8
  23675726.535    -4767188.743 7  -3714686.448 6
  22879873.495   -12110529.701 9  -9436769.887 9
  26324049.931     6834061.994 4   5325243.265 1
 92  2 26 13 20  0.0060000  0  5 11 21 17 23  3
  25915085.354    -4581315.960 6  -3569856.387 1
  22756451.630   -15016178.280 8 -11700912.319 7
  23689067.593    -4697101.759 7  -3660073.248 6
  22888639.123   -12064460.414 9  -9400871.734 9
  26350248.798     6971737.341 4   5432522.629 1
 92  2 26 13 20 30.0060000  0  5 11 21 17 23  3
  25896914.931    -4676821.216 6  -3644276.030 4
  22752998.023   -15034345.822 8 -11715068.835 7
  23702460.827    -4626708.999 7  -3605221.776 6
  22897453.926   -12018143.331 9  -9364780.514 9
  26376491.430     7109601.406 5   5539949.245 1
 92  2 26 13 21  0.0060000  0  5 11 21 17 23  3
  25878770.893    -4772144.040 6  -3718553.528 1
  22749591.478   -15052234.095 8 -11729007.749 8
  23715908.314    -4556023.720 7  -3550142.382 5
  22906305.898   -11971617.806 9  -9328526.861 9
  26402747.255     7247620.380 5   5647496.381 1
 92  2 26 13 21 30.0060000  0  5 11 21 17 23  3
  25860669.730    -4867293.389 6  -3792695.853 1
  22746238.000   -15069857.666 8 -11742740.399 7
  23729415.463    -4485048.266 7  -3494836.860 5
  22915197.447   -11924888.127 9  -9292114.143 9
  26429044.157     7385779.001 5   5755152.363 1
 92  2 26 13 22  0.0060000  0  5 11 21 17 23  3
  25842594.951    -4962249.852 6  -3866687.883 3
  22742935.494   -15087213.564 8 -11756264.466 6
  23742982.275    -4413769.653 7  -3439295.112 6
  22924135.746   -11877925.971 9  -9255520.244 9
  26455356.642     7524090.447 5   5862927.315 2
 92  2 26 13 22 30.0060000  0  5 11 21 17 23  3
  25824558.231    -5057035.902 6  -3940547.127 3
  22739677.050   -15104324.993 8 -11769598.029 8
  23756597.057    -4342212.529 7  -3383536.356 6
  22933104.041   -11830787.075 9  -9218788.652 9
  26481703.592     7662525.997 5   5970799.061 1
 92  2 26 13 23  0.0060000  0  5 11 21 17 23  3
  25806568.593    -5151588.418 6  -4014224.372 1
  22736483.957   -15121124.479 8 -11782688.530 7
  23770278.376    -4270322.609 7  -3327518.269 5
  22942119.992   -11783411.581 9  -9181872.682 9
  26508082.632     7801142.971 5   6078812.554 1
 92  2 26 13 23 30.0060000  0  5 11 21 17 23  3
  25788618.217    -5245922.484 6  -4087731.373 2
  22733341.836   -15137622.212 8 -11795543.900 8
  23784017.264    -4198129.986 7  -3271264.299 5
  22951179.430   -11735805.164 9  -9144776.788 9
  26534491.949     7939920.941 6   6186951.424 1
 92  2 26 13 24  0.0060000  0  5 11 21 17 23  3
  25770711.013    -5340025.400 6  -4161058.297 1
  22730262.971   -15153803.047 8 -11808152.343 7
  23797810.423    -4125645.513 7  -3214782.923 5
  22960282.929   -11687970.118 9  -9107502.732 9
  26560925.556     8078865.650 5   6295219.938 1
 92  2 26 13 24 30.0060000  0  5 11 21 17 23  3
  25752837.976    -5433942.539 6  -4234240.427 2
  22727234.469   -15169714.525 8 -11820550.888 7
  23811647.939    -4052922.373 7  -3158115.588 5
  22969417.909   -11639966.280 9  -9070097.162 9
  26587387.328     8217925.992 5   6403578.524 3
 92  2 26 13 25  0.0060000  0  5 11 21 17 23  3
  25734997.327    -5527687.336 5  -4307288.307 3
  22724256.624   -15185377.450 8 -11832755.749 7
  23825532.222    -3979963.250 7  -3101264.367 5
  22978583.758   -11591792.616 9  -9032559.255 9
  26613871.297     8357082.706 5   6512012.205 2
 92  2 26 13 25 30.0060000  0  5 11 21 17 23  3
  25717203.759    -5621210.418 6  -4380163.389 3
  22721332.142   -15200754.345 8 -11844737.734 7
  23839468.682    -3906726.950 7  -3044197.157 5
  22987792.779   -11543413.805 9  -8994861.495 9
  26640383.744     8496378.787 5   6620554.451 2
 92  2 26 13 26  0.0060000  0  5 11 21 17 23  3
  25699448.546    -5714514.763 6  -4452868.058 2
  22718455.334   -15215856.766 8 -11856505.847 8
  23853459.987    -3833211.181 7  -2986912.175 5
  22997033.577   -11494849.174 9  -8957018.928 9
  26666914.182     8635805.140 4   6729198.201 2
 92  2 26 13 26 30.0060000  0  5 11 21 17 23  3
  25681740.694    -5807582.126 6  -4525388.013 2
  22715636.688   -15230671.323 8 -11868049.661 8
  23867506.767    -3759382.378 7  -2929383.258 4
  23006315.452   -11446070.488 9  -8919009.581 9
  26693468.894     8775373.970 5   6837952.922 1
 92  2 26 13 27  0.0060000  0  5 11 21 17 23  3
  25664077.531    -5900409.065 6  -4597720.665 2
  22712871.107   -15245196.073 8 -11879367.647 8
  23881615.896    -3685242.529 7  -2871612.010 4
  23015642.611   -11397061.625 9  -8880820.870 9
  26720052.696     8915082.633 4   6946816.755 1
 92  2 26 13 27 30.0060000  0  4 11 21 17 23
  25646449.129    -5993012.159 6  -4669878.925 2
  22710157.686   -15259454.243 8 -11890477.902 7
  23895779.889    -3610828.110 7  -2813626.797 5
  23025008.125   -11347837.793 9  -8842464.667 8
 92  2 26 13 28  0.0060000  0  4 11 21 17 23
  25628882.501    -6085343.219 6  -4741825.201 2
  22707509.318   -15273388.244 8 -11901335.540 6
  23909997.558    -3536084.413 7  -2755384.999 5
  23034425.798   -11298345.414 9  -8803899.178 9
 92  2 26 13 28 30.0060000  0  4 11 21 17 23
  25611354.525    -6177436.772 6  -4813586.392 2
  22704913.721   -15287023.894 8 -11911960.737 8
  23924278.467    -3461062.276 7  -2696926.231 5
  23043888.144   -11248620.368 9  -8765152.416 9
 92  2 26 13 29  0.0060000  0  4 11 21 17 23
  25593876.334    -6269285.491 6  -4885156.791 2
  22702376.267   -15300364.090 8 -11922355.687 7
  23938607.347    -3385757.100 7  -2638246.917 4
  23053392.772   -11198673.522 9  -8726232.817 9
 92  2 26 13 29 30.0060000  0  4 11 21 17 23
  25576446.987    -6360900.678 6  -4956545.156 1
  22699888.896   -15313426.699 8 -11932534.344 8
  23952986.292    -3310182.296 7  -2579357.515 4
  23062931.863   -11148542.590 9  -8687169.774 8
 92  2 26 13 30  0.0060000  0  4 11 21 17 23
  25559060.236    -6452256.710 6  -5027731.649 2
  22697461.483   -15326184.841 8 -11942475.756 8
  23967425.789    -3234306.885 7  -2520233.864 5
  23072510.829   -11098214.390 9  -8647953.016 8
 92  2 26 13 30 30.0060000  0  4 11 21 17 23
  25541721.438    -6543366.179 6  -5098726.025 2
  22695084.118   -15338666.877 8 -11952202.002 7
  23981920.166    -3158149.119 7  -2460890.199 4
  23082120.088   -11047709.308 9  -8608598.420 9
 92  2 26 13 31  0.0060000  0  4 11 21 17 23
  25524427.609    -6634249.678 6  -5169544.300 3
  22692754.426   -15350917.053 8 -11961747.585 8
  23996464.591    -3081717.600 7  -2401333.217 5
  23091758.105   -10997058.820 9  -8569130.532 9
 92  2 26 13 31 30.0060000  0  4 11 21 17 23
  25507185.642    -6724856.099 6  -5240146.701 2
  22690481.413   -15362872.055 8 -11971063.169 8
  24011064.787    -3004971.903 7  -2341531.428 5
  23101435.402   -10946219.968 9  -8529515.860 8
 92  2 26 13 32  0.0060000  0  4 11 21 17 23
  25489991.053    -6815197.387 6  -5310542.482 2
  22688259.948   -15374534.094 8 -11980150.464 9
  24025727.943    -2927923.593 7  -2281493.831 4
  23111142.697   -10895200.567 9  -8489760.502 8
 92  2 26 13 32 30.0060000  0  4 11 21 17 23
  25472844.713    -6905264.349 6  -5380724.475 3
  22686096.034   -15385904.976 8 -11989010.896 8
  24040443.852    -2850571.912 7  -2221219.854 4
  23120885.049   -10843997.685 9  -8449862.167 9
 92  2 26 13 33  0.0060000  0  4 11 21 17 23
  25455764.335    -6995081.878 6  -5450712.102 1
  22683982.813   -15397009.993 8 -11997664.152 8
  24055220.609    -2772949.471 7  -2160734.903 5
  23130659.474   -10792637.150 9  -8409841.002 9
 92  2 26 13 33 30.0060000  0  4 11 21 17 23
  25438720.847    -7084650.166 6  -5520505.548 3
  22681925.031   -15407839.536 8 -12006102.741 7
  24070036.053    -2695078.283 7  -2100056.095 4
  23140462.692   -10741114.158 9  -8369693.245 8
 92  2 26 13 34  0.0060000  0  4 11 21 17 23
  25421719.903    -7173956.527 6  -5590094.904 4
  22679911.031   -15418397.900 8 -12014330.033 7
  24084909.065    -2616949.786 7  -2039176.806 4
  23150304.580   -10689404.390 9  -8329399.947 8
 92  2 26 13 34 30.0060000  0  4 11 21 17 23
  25404777.731    -7262989.583 6  -5659471.275 3
  22677956.380   -15428681.530 8 -12022343.255 8
  24099822.248    -2538558.978 7  -1978093.113 4
  23160180.636   -10637497.528 9  -8288953.048 8
 92  2 26 13 35  0.0060000  0  4 11 21 17 23
  25387887.124    -7351756.540 6  -5728640.336 4
  22676053.888   -15438685.701 8 -12030138.715 8
  24114787.573    -2459912.461 7  -1916810.178 4
  23170095.971   -10585397.666 9  -8248355.778 9
 92  2 26 13 35 30.0060000  0  4 11 21 17 23
  25371047.193    -7440235.040 6  -5797584.603 2
  22674205.683   -15448384.848 8 -12037696.497 8
  24129805.684    -2380987.862 7  -1855310.554 3
  23180051.181   -10533090.837 9  -8207597.233 8
 92  2 26 13 36  0.0060000  0  4 11 21 17 23
  25354273.502    -7528417.548 6  -5866298.192 1
  22672416.512   -15457780.233 8 -12045017.571 7
  24144884.347    -2301761.371 7  -1793575.684 4
  23190041.762   -10480576.971 9  -8166677.362 9
 92  2 26 13 36 30.0060000  0  4 11 21 17 23
  25337539.092    -7616327.809 6  -5934799.656 2
  22670684.909   -15466902.368 9 -12052125.713 7
  24160012.464    -2222260.512 7  -1731626.998 3
  23200068.029   -10427888.957 9  -8125621.785 8
 92  2 26 13 37  0.0060000  0  4 11 21 17 23
  25320879.021    -7703913.641 6  -6003048.337 2
  22669008.763   -15475712.052 9 -12058990.406 7
  24175205.060    -2142440.995 7  -1669430.025 4
  23210137.765   -10374977.679 9  -8084392.238 9
 92  2 26 13 37 30.0060000  0  4 11 21 17 23
  25304260.916    -7791223.304 6  -6071081.822 3
  22667382.996   -15484264.006 9 -12065654.270 8
  24190441.700    -2062358.928 7  -1607028.497 4
  23220239.556   -10321894.108 9  -8043028.446 8
 92  2 26 13 38  0.0060000  0  4 11 21 17 23
  25287701.288    -7878274.367 6  -6138913.809 3
  22665796.492   -15492589.198 8 -12072141.436 8
  24205723.624    -1982036.665 7  -1544439.775 4
  23230368.657   -10268655.213 9  -8001543.616 9
 92  2 26 13 38 30.0060000  0  4 11 21 17 23
  25271189.613    -7965027.574 6  -6206513.675 2
  22664261.257   -15500648.453 9 -12078421.388 8
  24221059.817    -1901450.560 7  -1481645.466 3
  23240537.004   -10215228.805 9  -7959912.687 8
 92  2 26 13 39  0.0060000  0  4 11 21 17 23
  25254732.819    -8051468.634 6  -6273870.317 2
  22662781.775   -15508421.620 8 -12084478.395 7
  24236452.951    -1820579.713 7  -1418629.287 3
  23250739.553   -10161614.654 9  -7918135.447 8
 92  2 26 13 39 30.0060000  0  4 11 21 17 23
  25238342.265    -8137630.859 6  -6341009.673 2
  22661351.172   -15515944.498 8 -12090340.381 7
  24251889.867    -1739452.743 7  -1355413.513 2
  23260966.968   -10107860.773 9  -7876249.338 8
 92  2 26 13 40  0.0060000  0  5 11 21 12 17 23
  25222008.059    -8223482.718 6  -6407907.213 2
  22659970.022   -15523205.234 9 -12095998.103 8
  26529620.930    -1106963.15815   -862575.457 1
  24267381.944    -1658023.815 7  -1291962.468 5
  23271225.864   -10053944.604 9  -7834236.761 7
 92  2 26 13 40 30.0060000  0  5 11 21 12 17 23
  25205728.437    -8309003.901 6  -6474547.074 4
  22658640.752   -15530185.499 9 -12101437.275 8
  26519015.473    -1162712.409 5   -906016.428 1
  24282942.373    -1576275.470 7  -1228262.528 3
  23281521.946    -9999848.582 9  -7792084.048 8
 92  2 26 13 41  0.0060000  0  5 11 21 12 17 23
  25189518.668    -8394209.121 6  -6540940.744 3
  22657364.826   -15536902.574 8 -12106671.364 9
  26508477.461    -1218107.655 5   -949181.537 1
  24298552.866    -1494217.711 7  -1164321.495 4
  23291847.083    -9945584.210 8  -7749800.148 7
 92  2 26 13 41 30.0070000  0  5 11 21 12 17 23
  25173357.745    -8479144.824 7  -6607124.409 3
  22656125.498   -15543412.872 8 -12111744.336 8
  26497986.829    -1273194.077 5   -992106.007 2
  24314218.209    -1411908.492 7  -1100184.536 3
  23302198.625    -9891189.895 8  -7707414.980 9
 92  2 26 13 42  0.0070000  0  5 11 21 12 17 23
  25157252.904    -8563772.663 6  -6673068.134 3
  22654931.118   -15549684.149 8 -12116631.042 7
  26487580.724    -1327935.322 5  -1034761.574 2
  24329928.832    -1329339.466 7  -1035845.094 3
  23312581.644    -9836632.162 8  -7664902.502 8
 92  2 26 13 42 30.0070000  0  5 11 21 12 17 23
  25141205.300    -8648072.475 6  -6738756.257 2
  22653792.212   -15555679.050 9 -12121302.395 7
  26477229.202    -1382310.117 5  -1077131.491 1
  24345692.836    -1246513.790 7   -971305.663 4
  23322998.517    -9781894.846 8  -7622250.090 8
 92  2 26 13 43  0.0070000  0  5 11 21 12 17 23
  25125241.055    -8731977.358 6  -6804136.672 3
  22652717.156   -15561326.899 8 -12125703.324 8
  26466952.612    -1436251.413 5  -1119163.658 2
  24361509.277    -1163374.507 6   -906521.892 3
  23333457.985    -9726927.872 9  -7579418.720 8
 92  2 26 13 43 30.0070000  0  5 11 21 12 17 23
  25109335.566    -8815555.620 6  -6869262.566 3
  22651689.757   -15566709.808 9 -12129897.797 8
  26456765.070    -1489827.120 5  -1160910.911 1
  24377378.191    -1080004.442 6   -841558.286 2
  23343949.213    -9671809.451 9  -7536469.330 8
 92  2 26 13 44  0.0070000  0  5 11 21 12 17 23
  25093502.931    -8898776.321 6  -6934109.854 3
  22650724.132   -15571792.609 9 -12133858.428 8
  26446645.863    -1543006.451 4  -1202349.384 2
  24393294.778     -996366.620 6   -776386.046 4
  23354470.735    -9616506.848 9  -7493376.421 7
 92  2 26 13 44 30.0070000  0  5 11 21 12 17 23
  25077727.847    -8981688.372 6  -6998716.622 3
  22649803.773   -15576632.644 9 -12137629.895 9
  26436592.636    -1595838.104 5  -1243516.868 1
  24409254.521     -912495.646 6   -711032.119 4
  23365019.234    -9561074.477 9  -7450182.405 7
 92  2 26 13 45  0.0070000  0  5 11 21 12 17 23
  25062016.334    -9064270.160 7  -7063066.052 2
  22648930.476   -15581220.724 9 -12141205.024 7
  26426603.241    -1648300.416 5  -1284396.608 1
  24425260.436     -828361.409 6   -645473.067 4
  23375598.603    -9505483.298 8  -7406864.644 7
 92  2 26 13 45 30.0070000  0  5 11 21 12 17 23
  25046348.272    -9146514.549 6  -7127152.573 2
  22648106.041   -15585553.846 9 -12144581.480 7
  26416689.703    -1700386.200 4  -1324982.948 1
  24441326.328     -743957.437 6   -579703.834 5
  23386207.673    -9449718.874 8  -7363411.888 7
 92  2 26 13 46  0.0070000  0  5 11 21 12 17 23
  25030774.947    -9228400.220 6  -7190959.553 2
  22647336.783   -15589601.657 8 -12147735.631 8
  26406852.910    -1752074.110 5  -1365259.195 2
  24457441.657     -659258.616 6   -513704.831 2
  23396854.487    -9393764.595 8  -7319811.183 7
 92  2 26 13 46 30.0070000  0  5 11 21 12 17 23
  25015257.690    -9309954.843 6  -7254508.579 4
  22646610.679   -15593398.677 9 -12150694.359 9
  26397098.867    -1803391.702 4  -1405246.934 1
  24473604.677     -574307.230 6   -447509.024 3
  23407532.502    -9337665.121 8  -7276097.346 7
 92  2 26 13 47  0.0070000  0  5 11 21 12 17 23
  24999804.004    -9391161.459 7  -7317786.438 3
  22645937.939   -15596923.674 8 -12153441.111 9
  26387405.375    -1854322.061 4  -1444932.962 2
  24489820.448     -489107.418 6   -381119.657 4
  23418237.495    -9281412.782 8  -7232264.402 8
 92  2 26 13 47 30.0070000  0  5 11 21 12 17 23
  24984414.151    -9472013.057 6  -7380787.687 3
  22645320.672   -15600181.609 9 -12155979.776 8
  26377792.539    -1904858.078 5  -1484311.634 2
  24506081.486     -403656.992 6   -314534.997 4
  23428970.356    -9225008.514 9  -7188313.083 8
 92  2 26 13 48  0.0070000  0  5 11 21 12 17 23
  24969099.247    -9552509.853 7  -7443512.469 2
  22644753.156   -15603189.130 9 -12158323.307 7
  26368248.038    -1954999.962 5  -1523383.263 2
  24522386.900     -317959.142 6   -247757.542 3
  23439730.806    -9168451.915 9  -7144243.053 8
 92  2 26 13 48 30.0070000  0  5 11 21 12 17 23
  24953852.102    -9632628.317 7  -7505942.406 3
  22644229.126   -15605924.505 8 -12160454.769 7
  26358797.680    -2004724.246 5  -1562129.505 2
  24538747.177     -231995.168 6   -180772.729 3
  23450529.036    -9111719.282 9  -7100035.840 7
 92  2 26 13 49  0.0070000  0  5 11 21 12 17 23
  24938674.216    -9712403.588 7  -7568104.946 3
  22643753.363   -15608425.250 8 -12162403.410 8
  26349378.803    -2054066.187 4  -1600577.777 2
  24555152.423     -145786.347 6   -113597.123 2
  23461350.038    -9054834.179 8  -7055709.831 7
 92  2 26 13 49 30.0070000  0  5 11 21 12 17 23
  24923564.980    -9791798.077 7  -7629970.755 2
  22643328.258   -15610655.312 8 -12164141.134 8
  26340076.546    -2102987.940 4  -1638698.583 1
  24571614.924      -59279.938 6    -46189.645 2
  23472212.729    -8997762.867 9  -7011238.725 8
 92  2 26 13 50  0.0070000  0  5 11 21 12 17 23
  24908524.690    -9870835.440 7  -7691558.286 2
  22642953.812   -15612627.252 8 -12165677.729 8
  26330851.331    -2151513.209 5  -1676510.481 1
  24588127.192       27500.306 6     21431.244 3
  23483100.879    -8940542.716 8  -6966651.657 7
 92  2 26 13 50 30.0070000  0  5 11 21 12 17 23
  24893566.538    -9949467.217 7  -7752829.779 2
  22642636.933   -15614293.174 8 -12166975.865 8
  26321700.158    -2199593.760 5  -1713975.854 2
  24604704.219      114606.707 6     89306.286 3
  23494024.733    -8883146.925 8  -6921927.717 7
 92  2 26 13 51  0.0070000  0  5 11 21 12 17 23
  24878669.863   -10027716.758 7  -7813803.455 4
  22642369.212   -15615690.091 8 -12168064.392 8
  26312635.642    -2247252.855 4  -1751112.759 2
  24621334.608      202010.481 6    157413.030 2
  23504974.343    -8825605.623 8  -6877090.395 8
 92  2 26 13 51 30.0070000  0  5 11 21 12 17 23
  24863842.116   -10105652.453 7  -7874532.565 4
  22642142.865   -15616899.639 8 -12169006.900 7
  26303625.083    -2294558.882 5  -1787974.625 2
  24638011.467      289626.391 6    225685.062 3
  23515935.052    -8767999.509 8  -6832202.557 6
 92  2 26 13 52  0.0070000  0  5 11 21 12 17 23
  24849089.335   -10183174.064 7  -7934939.003 3
  22641962.692   -15617831.367 8 -12169732.928 8
  26294707.445    -2341411.931 4  -1824483.486 3
  24654742.282      377539.079 6    294188.340 3
  23526930.853    -8710220.040 8  -6787179.652 7
 92  2 26 13 52 30.0070000  0  5 11 21 12 17 23
  24834422.585   -10260281.906 7  -7995023.025 4
  22641836.788   -15618494.607 8 -12170249.761 8
  26285884.563    -2387812.493 5  -1860639.794 1
  24671521.364      465741.568 6    362917.463 3
  23537957.506    -8652261.171 8  -6742016.960 7
 92  2 26 13 53  0.0070000  0  5 11 21 12 17 23
  24819807.102   -10337041.704 7  -8054835.829 3
  22641752.539   -15618941.629 8 -12170598.094 9
  26277118.027    -2433826.193 4  -1896494.621 2
  24688343.322      554142.695 6    431801.312 3
  23549013.562    -8594179.137 8  -6696758.281 8
 92  2 26 13 53 30.0070000  0  5 11 21 12 17 23
  24805281.262   -10413390.012 7  -8114327.998 2
  22641722.263   -15619101.760 8 -12170722.910 9
  26268455.827    -2479389.439 5  -1931998.427 1
  24705217.438      642794.809 6    500880.744 4
  23560098.988    -8535917.174 8  -6651359.424 8
 92  2 26 13 54  0.0070000  0  5 11 21 12 17 23
  24790821.069   -10489378.336 7  -8173539.676 3
  22641740.254   -15619010.106 8 -12170651.529 9
  26259864.980    -2524554.277 5  -1967191.821
  24722124.535      731646.894 6    570116.033 2
  23571207.186    -8477540.014 8  -6605870.806 8
 92  2 26 13 54 30.0070000  0  5 11 21 12 17 23
  24776430.433   -10564965.906 7  -8232439.080 4
  22641810.997   -15618627.913 8 -12170353.743 7
  26251345.469    -2569279.860 5  -2002042.911 1
  24739081.383      820733.859 6    639534.336 4
  23582345.677    -8419018.690 8  -6560269.827 7
 92  2 26 13 55  0.0070000  0  5 11 21 12 17 23
  24762130.032   -10640144.003 7  -8291019.421 4
  22641940.809   -15617952.889 8 -12169827.770 7
  26242924.308    -2613557.627 5  -2036544.990 2
  24756077.232      910055.926 6    709135.806 3
  23593509.960    -8360347.024 8  -6514551.702 7
 92  2 26 13 55 30.0070000  0  5 11 21 12 17 23
  24747898.891   -10714911.681 7  -8349279.945 3
  22642117.685   -15617005.816 8 -12169089.796 8
  26234577.485    -2657386.955 5  -2070697.685 1
  24773122.517      999639.862 6    778941.351 2
  23604699.109    -8301536.855 8  -6468725.662 7
 92  2 26 13 56  0.0070000  0  5 11 21 12 17 23
  24733764.563   -10789200.743 7  -8407167.519 3
  22642360.225   -15615739.336 8 -12168102.946 8
  26226336.777    -2700699.648 5  -2104447.842 1
  24790233.485     1089559.266 6    849008.280 2
  23615934.135    -8242517.641 8  -6422736.736 7
 92  2 26 13 56 30.0070000  0  5 11 21 12 17 23
  24719715.393   -10863058.771 7  -8464719.216 3
  22642648.921   -15614230.449 8 -12166927.218 9
  26218189.619    -2743543.352 5  -2137832.501 2
  24807398.392     1179760.098 6    919294.535 3
  23627195.825    -8183330.931 8  -6376617.280 7
 92  2 26 13 57  0.0070000  0  5 11 21 12 17 23
  24705727.682   -10936520.892 7  -8521962.436 3
  22642970.005   -15612517.229 8 -12165592.273 9
  26210128.805    -2785953.632 5  -2170879.465 2
  24824606.488     1270201.804 6    989768.484 2
  23638481.823    -8124023.938 8  -6330404.118 8
 92  2 26 13 57 30.0070000  0  5 11 21 12 17 23
  24691824.797   -11009595.772 7  -8578903.894 3
  22643335.448   -15610607.217 8 -12164103.977 8
  26202125.245    -2827939.246 5  -2203595.486 1
  24841858.942     1360871.282 6   1060419.864 2
  23649786.685    -8064615.995 8  -6284112.283 7
 92  2 26 13 58  0.0070000  0  5 11 21 12 17 23
  24678010.071   -11082211.682 7  -8635487.713 5
  22643753.957   -15608425.815 8 -12162404.195 8
  26194235.601    -2869428.688 5  -2235924.844 2
  24859168.948     1451819.393 6   1131288.383 2
  23661125.435    -8005035.427 8  -6237685.938 6
 92  2 26 13 58 30.0070000  0  5 11 21 12 17 23
  24664257.694   -11154451.535 7  -8691778.504 4
  22644206.947   -15606043.003 9 -12160547.482 8
  26186413.715    -2910505.081 5  -2267932.394 2
  24876511.358     1542958.555 6   1202305.791 3
  23672475.895    -7945373.209 8  -6191195.963 7
 92  2 26 13 59  0.0070000  0  5 11 21 12 17 23
  24650589.845   -11226286.678 7  -8747753.943 4
  22644709.687   -15603407.249 9 -12158493.683 8
  26178682.379    -2951139.535 5  -2299595.593 1
  24893902.908     1634321.465 6   1273497.522 2
  23683851.814    -7885605.634 8  -6144623.901 7
 92  2 26 13 59 30.0070000  0  5 11 21 12 17 23
  24637003.263   -11297701.113 7  -8803401.560 5
  22645258.916   -15600510.975 9 -12156236.874 8
  26171039.759    -2991316.537 5  -2330902.307 2
  24911331.348     1725936.606 6   1344885.800 2
  23695248.429    -7825715.051 8  -6097955.995 7
 92  2 26 14  0  0.0070000  0  5 11 21 12 17 23
  24623499.098   -11368661.451 7  -8858695.338 3
  22645863.601   -15597331.898 9 -12153759.706 9
  26163490.690    -3031003.167 5  -2361826.860 2
  24928823.638     1817842.949 6   1416500.973 2
  23706676.210    -7765664.621 8  -6051163.534 8
 92  2 26 14  0 30.0070000  0  5 11 21 12 17 23
  24610080.997   -11439185.048 7  -8913648.779 4
  22646519.833   -15593890.844 9 -12151078.396 7
  26156026.168    -3070216.840 5  -2392382.976 2
  24946359.694     1910016.483 6   1488324.322 3
  23718129.782    -7705474.544 8  -6004262.257 7
 92  2 26 14  1  0.0070000  0  5 11 21 12 17 23
  24596742.627   -11509278.456 7  -8968267.025 4
  22647220.756   -15590203.058 9 -12148204.818 8
  26148656.068    -3108964.838 5  -2422576.190 1
  24963949.426     2002440.231 6   1560342.693 3
  23729609.740    -7645150.848 8  -5957256.859 8
 92  2 26 14  1 30.0070000  0  5 11 21 12 17 23
  24583477.407   -11578952.252 7  -9022558.294 3
  22647961.239   -15586300.169 9 -12145163.637 9
  26141366.310    -3147258.017 5  -2452414.985 1
  24981582.016     2095083.002 6   1632531.719 2
  23741111.562    -7584708.756 8  -5910159.203 6
 92  2 26 14  2  0.0070000  0  5 11 21 12 17 23
  24570303.034   -11648156.132 7  -9076483.414 3
  22648759.586   -15582127.233 9 -12141912.041 8
  26134177.588    -3185045.907 5  -2481860.110 2
  24999256.277     2187974.249 6   1704914.320 2
  23752643.382    -7524103.119 8  -5862934.090 6
 92  2 26 14  2 30.0070000  0  5 11 21 12 17 23
  24557229.977   -11716903.110 7  -9130052.484 5
  22649601.699   -15577692.863 9 -12138456.718 8
  26127082.696    -3222342.110 5  -2510922.037 2
  25016980.899     2281095.352 6   1777476.018 4
  23764204.290    -7463354.105 8  -5815597.279 6
 92  2 26 14  3  0.0070000  0  5 11 21 12 17 23
  24544234.573   -11785181.223 7  -9183256.223 4
  22650497.488   -15572988.797 9 -12134791.258 9
  26120075.055    -3259134.756 5  -2539591.597 1
  25034743.005     2374460.074 6   1850227.561 2
  23775792.456    -7402447.330 8  -5768137.524 7
 92  2 26 14  3 30.0070000  0  5 11 21 12 17 23
  24531328.514   -11853004.039 7  -9236105.175 4
  22651438.544   -15568037.063 9 -12130932.799 8
  26113164.838    -3295437.975 5  -2567879.852 2
  25052558.473     2468058.971 6   1923161.609 2
  23787409.712    -7341402.988 8  -5720570.585 6
 92  2 26 14  4  0.0070000  0  5 11 21 12 17 23
  24518511.189   -11920375.681 7  -9288602.565 5
  22652426.645   -15562840.910 8 -12126883.877 8
  26106350.546    -3331256.290 5  -2595790.193 2
  25070417.706     2561903.859 6   1996287.301 3
  23799049.164    -7280225.428 8  -5672899.837 6
 92  2 26 14  4 30.0070000  0  5 11 21 12 17 23
  24505779.004   -11987269.110 7  -9340727.325 5
  22653466.940   -15557379.286 9 -12122628.098 8
  26099633.102    -3366562.907 5  -2623301.888 2
  25088325.207     2656020.604 6   2069624.854 2
  23810721.283    -7218892.147 8  -5625107.764 7
 92  2 26 14  5  0.0070000  0  5 11 21 12 17 23
  24493144.540   -12053652.246 7  -9392454.446 3
  22654560.580   -15551628.339 9 -12118146.891 8
  26093023.884    -3401326.115 5  -2650390.054 1
  25106289.386     2750436.409 6   2143195.400 3
  23822429.367    -7157379.288 8  -5577175.762 7
 92  2 26 14  5 30.0070000  0  5 11 21 12 17 23
  24480599.439   -12119604.657 7  -9443845.936 3
  22655692.889   -15545668.406 9 -12113502.829 9
  26086491.692    -3435626.038 5  -2677117.270 2
  25124298.517     2845068.259 6   2216934.350 3
  23834150.661    -7095782.294 8  -5529178.192 7
 92  2 26 14  6  0.0070000  0  5 11 21 12 17 23
  24468136.756   -12185109.184 7  -9494888.428 4
  22656874.671   -15539473.229 9 -12108675.468 9
  26080054.847    -3469445.883 5  -2703470.408
  25142348.708     2939922.244 6   2290846.340 3
  23845892.337    -7034081.829 8  -5481099.998 6
 92  2 26 14  6 30.0070000  0  5 11 21 12 17 23
  24455755.337   -12250137.906 7  -9545560.169 2
  22658096.029   -15533017.288 9 -12103644.917 8
  26073714.834    -3502757.706 5  -2729427.722
  25160442.088     3035009.417 6   2364940.061 3
  23857654.098    -6972260.368 8  -5432927.523 6
 92  2 26 14  7  0.0070000  0  5 11 21 12 17 23
  24443479.738   -12314675.754 7  -9595849.418 3
  22659380.644   -15526297.599 9 -12098408.822 8
  26067476.469    -3535547.059 5  -2754977.905 2
  25178582.829     3130338.910 6   2439222.573 3
  23869447.618    -6910302.431 8  -5384648.711 6
 92  2 26 14  7 30.0070000  0  5 11 21 12 17 23
  24431291.371   -12378710.620 7  -9645746.729 3
  22660714.120   -15519305.179 9 -12092960.222 8
  26061333.416    -3567802.163 5  -2780111.738 3
  25196769.131     3225913.426 6   2513696.011 3
  23881263.352    -6848197.462 8  -5336255.315 6
 92  2 26 14  8  0.0070000  0  5 11 21 12 17 23
  24419207.933   -12442220.910 7  -9695235.281 5
  22662097.660   -15512029.220 8 -12087290.685 8
  26055302.185    -3599502.043 5  -2804812.977
  25215008.815     3321754.528 6   2588377.206 2
  23893115.034    -6785934.285 8  -5287738.655 7
 92  2 26 14  8 30.0070000  0  5 11 21 12 17 23
  24407217.435   -12505223.050 7  -9744327.888 5
  22663528.857   -15504498.195 8 -12081422.401 9
  26049373.787    -3630663.620 6  -2829094.743 1
  25233295.857     3417848.669 6   2663255.546 3
  23904986.819    -6723539.710 8  -5239119.604 7
 92  2 26 14  9  0.0070000  0  5 11 21 12 17 23
  24395333.959   -12567690.395 7  -9793003.760 3
  22665019.141   -15496677.502 8 -12075328.405 9
  26043555.414    -3661260.776 5  -2852936.729 1
  25251634.466     3514218.035 6   2738348.345 2
  23916889.490    -6660981.041 8  -5190372.694 6
 92  2 26 14  9 30.0070000  0  5 11 21 12 17 23
  24383538.030   -12629652.731 7  -9841286.132 6
  22666557.063   -15488587.594 9 -12069024.627 9
  26037826.996    -3691323.314 5  -2876362.126 2
  25270018.637     3610839.114 6   2813637.271 1
  23928821.827    -6598293.456 8  -5141525.332 6
 92  2 26 14 10  0.0070000  0  5 11 21 12 17 23
  24371829.632   -12691175.812 7  -9889226.218 4
  22668137.582   -15480294.512 9 -12062562.543 8
  26032199.580    -3720917.900 5  -2899422.846 2
  25288441.180     3707645.086 6   2889070.293 3
  23940761.353    -6535543.925 8  -5092629.694 7
 92  2 26 14 10 30.0070000  0  5 11 21 12 17 23
  24360224.661   -12752145.861 7  -9936735.368 4
  22669775.337   -15471684.268 9 -12055853.302 8
  26026680.704    -3749931.119 5  -2922030.570 2
  25306917.384     3804731.368 6   2964721.779 2
  23952737.769    -6472603.089 8  -5043584.998 7
 92  2 26 14 11  0.0070000  0  5 11 21 12 17 23
  24348735.717   -12812561.246 7  -9983812.313 4
  22671471.568   -15462769.699 9 -12048906.933 8
  26021267.053    -3778361.569 5  -2944184.207 2
  25325443.355     3902094.810 6   3040589.179 3
  23964751.354    -6409477.504 8  -4994396.341 7
 92  2 26 14 11 30.0070000  0  5 11 21 12 17 23
  24337348.403   -12872408.661 7 -10030446.678 2
  22673226.554   -15453559.253 9 -12041730.002 8
  26015970.022    -3806196.748 5  -2965873.959 3
  25344029.896     3999751.504 6   3116685.119 1
  23976797.606    -6346166.553 8  -4945063.236 7
 92  2 26 14 12  0.0070000  0  5 11 21 12 17 23
  24326043.524   -12931781.293 7 -10076711.093 2
  22675013.020   -15444148.068 9 -12034396.658 9
  26010764.727    -3833530.141 5  -2987172.744 2
  25362648.511     4097594.856 6   3192926.450 3
  23988862.756    -6282763.096 8  -4895658.058 6
 92  2 26 14 12 30.0070000  0  5 11 21 12 17 23
  24314840.885   -12990675.944 7 -10122603.049 3
  22676842.955   -15434530.143 9 -12026902.221 9
  26005664.953    -3860359.028 5  -3008078.400 2
  25381306.091     4195625.475 6   3269313.773 2
  24000947.398    -6219268.569 8  -4846181.915 7
 92  2 26 14 13  0.0070000  0  5 11 21 12 17 23
  24303744.676   -13048995.775 7 -10168047.093 4
  22678733.738   -15424605.856 9 -12019169.068 9
  26000671.905    -3886587.201 5  -3028515.977
  25400015.831     4293955.737 6   3345934.532 2
  24013064.393    -6155595.390 8  -4796566.572 7
 92  2 26 14 13 30.0070000  0  5 11 21 12 17 23
  24292740.778   -13106813.802 7 -10213100.131 4
  22680667.693   -15414434.423 9 -12011243.329 9
  25995788.898    -3912288.350 6  -3048542.914 3
  25418768.760     4392508.288 6   3422728.927 2
  24025199.397    -6091815.127 8  -4746867.776 6
 92  2 26 14 14  0.0070000  0  5 11 21 12 17 23
  24281845.735   -13164071.374 7 -10257716.439 5
  22682663.126   -15403967.024 9 -12003086.964 8
  25991007.800    -3937404.146 5  -3068113.680 3
  25437577.739     4491345.168 6   3499744.485 1
  24037366.474    -6027874.182 8  -4697043.787 6
 92  2 26 14 14 30.0070000  0  5 11 21 12 17 23
  24271049.302   -13220783.118 7 -10301907.434 4
  22684700.212   -15393240.854 9 -11994728.962 8
  25986338.540    -3961949.837 5  -3087240.245 1
  25456433.781     4590452.679 6   3576970.871 2
  24049563.530    -5963791.143 8  -4647109.060 6
 92  2 26 14 15  0.0070000  0  5 11 21 12 17 23
  24260362.597   -13276942.270 7 -10345667.839 5
  22686788.270   -15382268.351 9 -11986179.001 8
  25981773.598    -3985919.198 5  -3105917.720 3
  25475345.280     4689832.375 6   3654409.384 4
  24061782.173    -5899558.709 8  -4597057.925 6
 92  2 26 14 15 30.0070000  0  5 11 21 12 17 23
  24249783.525   -13332558.573 7 -10389005.245 5
  22688920.093   -15371074.999 9 -11977456.959 9
  25977316.272    -4009322.763 5  -3124154.315 2
  25494311.660     4789453.504 6   3732036.029 2
  24074032.889    -5835190.122 8  -4546900.695 6
 92  2 26 14 16  0.0070000  0  5 11 21 12 17 23
  24239302.488   -13387624.947 7 -10431914.132 4
  22691092.087   -15359656.034 9 -11968559.116 8
  25972972.284    -4032154.193 5  -3141945.077 1
  25513304.704     4889312.527 6   3809848.029 1
  24086310.286    -5770679.258 8  -4496632.609 6
 92  2 26 14 16 30.0070000  0  5 11 21 12 17 23
  24228928.455   -13442137.197 7 -10474391.231 5
  22693314.739   -15347993.492 8 -11959471.480 9
  25968744.620    -4054409.817 5  -3159287.179 1
  25532354.112     4989398.296 6   3887836.668 1
  24098614.976    -5706020.261 8  -4446249.097 6
 92  2 26 14 17  0.0070000  0  5 11 21 12 17 23
  24218660.869   -13496090.514 7 -10516432.806 4
  22695581.173   -15336066.096 8 -11950177.473 9
  25964609.581    -4076085.375 5  -3176177.241 2
  25551443.411     5089712.067 6   3966003.507 1
  24110945.143    -5641214.665 8  -4395751.367 6
 92  2 26 14 17 30.0070000  0  5 11 21 12 17 23
  24208507.198   -13549478.986 8 -10558034.239 5
  22697906.362   -15323859.085 8 -11940665.570 9
  25960598.649    -4097175.678 5  -3192611.274 3
  25570576.161     5190254.952 6   4044348.859 4
  24123303.788    -5576268.875 8  -4345144.381 6
 92  2 26 14 18  0.0070000  0  5 11 21 12 17 23
  24198453.953   -13602307.207 8 -10599199.106 5
  22700277.725   -15311368.957 9 -11930933.066 9
  25956704.650    -4117685.844 5  -3208593.248 2
  25589752.083     5291026.879 6   4122872.217 2
  24135690.302    -5511183.749 8  -4294428.826 6
 92  2 26 14 18 30.0070000  0  5 11 21 12 17 23
  24188511.343   -13654576.565 8 -10639928.507 4
  22702713.234   -15298595.660 9 -11920979.902 8
  25952904.185    -4137617.724 5  -3224124.647 2
  25608973.882     5392024.225 6   4201571.688 4
  24148101.717    -5445961.465 8  -4243606.407 6
 92  2 26 14 19  0.0070000  0  5 11 21 12 17 23
  24178659.561   -13706289.131 7 -10680224.050 4
  22705196.121   -15285539.153 9 -11910806.057 8
  25949215.837    -4156973.901 5  -3239207.417 2
  25628235.537     5493240.670 6   4280441.897 3
  24160535.904    -5380615.047 7  -4192687.247 6
 92  2 26 14 19 30.0070000  0  5 11 21 12 17 23
  24168927.696   -13757443.433 7 -10720084.567 4
  22707735.668   -15272208.445 9 -11900418.544 8
  25945646.500    -4175753.749 5  -3253841.117 1
  25647533.785     5594665.909 6   4359474.786 2
  24172996.180    -5315153.063 8  -4141678.046 6
 92  2 26 14 20  0.0070000  0  5 11 21 12 17 23
  24159301.964   -13808035.035 8 -10759506.630 4
  22710324.077   -15258604.669 9 -11889818.261 8
  25942187.500    -4193954.044 5  -3268023.194 2
  25666876.689     5696302.379 6   4438672.254 2
  24185473.853    -5249573.682 8  -4090577.360 6
 92  2 26 14 20 30.0070000  0  5 11 21 12 17 23
  24149781.754   -13858059.260 8 -10798486.570 3
  22712962.846   -15244735.088 9 -11879010.860 8
  25938828.316    -4211570.146 5  -3281750.070 1
  25686255.574     5798158.257 6   4518040.690 3
  24197975.783    -5183887.818 8  -4039393.697 7
 92  2 26 14 21  0.0070000  0  5 11 21 12 17 23
  24140372.160   -13907513.518 8 -10837022.393 5
  22715647.492   -15230617.055 9 -11868009.868 8
  25935595.366    -4228600.472 5  -3295020.495 1
  25705682.134     5900240.340 6   4597585.389 4
  24210492.719    -5118097.683 8  -3988128.794 6
 92  2 26 14 21 30.0070000  0  5 11 21 12 17 23
  24131068.716   -13956395.076 8 -10875111.954 5
  22718380.092   -15216267.445 9 -11856828.409 9
  25932460.435    -4245042.987 6  -3307832.892 1
  25725156.647     6002561.303 6   4677316.173 2
  24223035.150    -5052191.251 7  -3936773.262 6
 92  2 26 14 22  0.0070000  0  5 11 21 12 17 23
  24121878.280   -14004704.114 8 -10912755.396 5
  22721156.474   -15201685.960 9 -11845466.273 9
  25929450.220    -4260898.297 6  -3320187.698 1
  25744671.033     6105133.962 6   4757243.149 1
  24235600.947    -4986153.875 7  -3885315.709 6
 92  2 26 14 22 30.0070000  0  5 11 21 12 17 23
  24112790.660   -14052439.774 7 -10949952.054 4
  22723970.618   -15186874.797 9 -11833925.170 8
  25926546.434    -4276166.473 6  -3332085.008 2
  25764235.188     6207949.293 5   4837359.208 3
  24248195.223    -4919984.633 8  -3833755.392 6
 92  2 26 14 23  0.0070000  0  5 11 21 12 17 23
  24103822.068   -14099598.015 8 -10986698.760 5
  22726839.643   -15171826.651 9 -11822199.400 8
  25923751.467    -4290844.164 5  -3343522.241 2
  25783839.513     6310991.967 6   4917652.396 3
  24260811.382    -4853680.601 8  -3782090.049 4
 92  2 26 14 23 30.0070000  0  5 11 21 12 17 23
  24094954.810   -14146176.368 7 -11022993.616 4
  22729749.415   -15156527.448 9 -11810277.996 8
  25921064.413    -4304929.525 6  -3354497.848 3
  25803496.310     6414249.956 5   4998113.344 2
  24273451.238    -4787248.537 8  -3730324.917 6
 92  2 26 14 24  0.0070000  0  5 11 21 12 17 23
  24086207.470   -14192171.688 8 -11058834.142 5
  22732708.378   -15140968.957 9 -11798154.562 8
  25918502.093    -4318420.272 6  -3365010.182 1
  25823183.978     6517704.041 6   5078727.139 2
  24286115.663    -4720701.586 7  -3678470.293 6
 92  2 26 14 24 30.0070000  0  5 11 21 12 17 23
  24077563.853   -14237577.599 8 -11094215.403 4
  22735716.185   -15125158.229 9 -11785834.577 9
  25916047.702    -4331310.586 6  -3375054.631 1
  25842903.422     6621348.719 5   5159489.414 1
  24298798.691    -4654047.481 7  -3626532.166 6
 92  2 26 14 25  0.0070000  0  5 11 21 12 17 23
  24069033.262   -14282394.669 8 -11129137.823 5
  22738773.777   -15109102.853 9 -11773323.953 9
  25913711.415    -4343601.887 6  -3384632.309 2
  25862666.352     6725183.254 5   5240399.566 3
  24311502.397    -4587292.905 7  -3574515.742 5
 92  2 26 14 25 30.0070000  0  5 11 21 12 17 23
  24060621.681   -14326617.928 8 -11163597.532 4
  22741874.821   -15092807.757 9 -11760626.529 8
  25911483.353    -4355289.768 6  -3393739.786 3
  25882462.542     6829209.789 5   5321459.437 1
  24324227.986    -4520424.718 7  -3522410.779 6
 92  2 26 14 26  0.0070000  0  5 11 21 12 17 23
  24052315.028   -14370242.760 8 -11197590.936 4
  22745019.943   -15076279.863 9 -11747747.712 9
  25909371.912    -4366370.533 6  -3402374.183 1
  25902299.513     6933435.604 6   5402674.592 2
  24336979.366    -4453424.038 7  -3470202.586 6
 92  2 26 14 26 30.0070000  0  5 11 21 12 17 23
  24044134.000   -14413265.794 8 -11231115.414 4
  22748207.941   -15059516.702 9 -11734685.576 8
  25907384.594    -4376841.650 6  -3410533.561 2
  25922171.856     7037872.284 5   5484053.983 4
  24349757.113    -4386275.402 7  -3417879.095 6
 92  2 26 14 27  0.0070000  0  5 11 21 12 17 23
  24036059.976   -14455687.688 8 -11264171.471 6
  22751446.893   -15042508.261 9 -11721432.309 8
  25905511.784    -4386704.599 6  -3418219.026 3
  25942081.368     7142511.905 5   5565591.525 2
  24362561.856    -4318976.132 7  -3365438.248 6
 92  2 26 14 27 30.0070000  0  5 11 21 12 17 23
  24028098.087   -14497507.442 8 -11296758.325 5
  22754731.129   -15025246.544 9 -11707981.673 9
  25903750.202    -4395959.082 6  -3425430.303 2
  25962040.962     7247369.065 5   5647298.606 2
  24375398.969    -4251528.985 7  -3312882.173 6
 92  2 26 14 28  0.0070000  0  5 11 21 12 17 23
  24020259.415   -14538722.484 8 -11328873.979 6
  22758064.522   -15007725.359 9 -11694328.868 9
  25902102.849    -4404603.463 6  -3432166.245 2
  25982038.911     7352459.275 5   5729187.238 2
  24388255.854    -4183944.122 7  -3260218.768 6
 92  2 26 14 28 30.0070000  0  5 11 21 12 17 23
  24012530.766   -14579332.808 8 -11360518.433 5
  22761447.980   -14989941.267 9 -11680471.195 9
  25900565.817    -4412638.494 6  -3438427.328 2
  26002072.232     7457775.540 6   5811252.018 2
  24401137.936    -4116248.420 7  -3207469.013 5
 92  2 26 14 29  0.0070000  0  5 11 21 12 17 23
  24004919.033   -14619334.948 8 -11391688.977 5
  22764885.690   -14971889.736 9 -11666405.141 9
  25899158.579    -4420061.500 6  -3444211.525 2
  26022161.639     7563309.313 6   5893486.335 2
  24414042.808    -4048452.523 7  -3154641.178 6
 92  2 26 14 29 30.0070000  0  5 11 21 12 17 23
  23997424.531   -14658722.745 8 -11422380.812 6
  22768370.184   -14953566.766 9 -11652127.574 9
  25897861.975    -4426867.127 6  -3449514.677 2
  26042278.913     7669055.469 5   5975886.058 2
  24426964.171    -3980556.731 7  -3101735.514 5
 92  2 26 14 30  0.0070000  0  5 11 21 12 17 23
  23990040.646   -14697495.296 8 -11452593.240 6
  22771904.447   -14934991.030 9 -11637653.036 9
  25896684.400    -4433055.164 6  -3454336.567 1
  26062440.545     7774985.651 5   6058429.208 2
  24439898.709    -3912564.072 7  -3048754.368 5
 92  2 26 14 30 30.0070000  0  5 11 21 12 17 23
  23982784.165   -14735652.311 8 -11482326.014 5
  22775489.350   -14916167.770 9 -11622985.641 9
  25895630.337    -4438626.196 6  -3458677.690 2
  26082627.673     7881083.010 5   6141102.665 2
  24452855.443    -3844475.104 7  -2995698.164 5
 92  2 26 14 31  0.0070000  0  5 11 21 12 17 23
  23975637.707   -14773195.523 8 -11511580.504 5
  22779115.051   -14897109.254 9 -11608134.915 8
  25894681.778    -4443582.946 6  -3462540.151 2
  26102852.266     7987347.963 5   6223906.613 2
  24465831.058    -3776288.854 7  -2942566.173 6
 92  2 26 14 31 30.0070000  0  5 11 21 12 17 23
  23968613.279   -14810126.639 8 -11540358.049 5
  22782781.516   -14877840.498 9 -11593120.359 8
  25893855.266    -4447927.667 6  -3465925.705 1
  26123105.651     8093793.345 5   6306851.238 2
  24478834.559    -3708008.564 7  -2889360.900 6
 92  2 26 14 32  0.0070000  0  5 11 21 12 17 23
  23961697.060   -14846443.769 8 -11568657.150 5
  22786483.039   -14858371.678 8 -11577949.912 8
  25893144.448    -4451659.495 6  -3468833.690 2
  26143405.804     8200433.187 5   6389947.301 2
  24491840.451    -3639629.648 7  -2836078.778 5
 92  2 26 14 32 30.0070000  0  5 11 21 12 17 23
  23954905.557   -14882143.374 8 -11596475.076 5
  22790233.754   -14838674.387 9 -11562601.433 8
  25892551.158    -4454775.892 6  -3471262.142 2
  26163731.730     8307278.370 5   6473203.454 2
  24504871.523    -3571143.493 7  -2782713.094 5
 92  2 26 14 33  0.0070000  0  5 11 21 12 17 23
  23948234.583   -14917220.298 8 -11623807.782 5
  22794026.123   -14818749.473 9 -11547075.588 9
  25892077.193    -4457272.388 6  -3473207.540 2
  26184104.720     8414336.985 5   6556625.888 1
  24517924.495    -3502540.137 7  -2729256.085 5
 92  2 26 14 33 30.0070000  0  5 11 21 12 17 23
  23941679.618   -14951678.809 8 -11650658.624 5
  22797858.976   -14798593.146 9 -11531369.428 9
  25891721.941    -4459154.186 6  -3474673.938 2
  26204511.301     8521588.606 5   6640198.677 2
  24531005.946    -3433816.715 7  -2675705.523 5
 92  2 26 14 34  0.0070000  0  5 11 21 12 17 23
  23935235.881   -14985520.824 8 -11677029.071 5
  22801746.082   -14778181.720 9 -11515464.479 8
  25891482.699    -4460424.077 6  -3475663.557 2
  26224955.941     8629010.229 5   6723903.931 1
  24544105.668    -3364973.459 7  -2622061.579 6
 92  2 26 14 34 30.0070000  0  5 11 21 12 17 23
  23928914.453   -15018741.505 8 -11702915.372 5
  22805679.064   -14757517.971 9 -11499362.931 8
  25891351.683    -4461077.976 6  -3476173.162 1
  26245431.468     8736607.197 5   6807745.835 3
  24557225.788    -3296014.215 7  -2568327.245 6
 92  2 26 14 35  0.0070000  0  5 11 21 12 17 23
  23922708.161   -15051339.812 8 -11728316.706 5
  22809656.405   -14736620.532 9 -11483079.286 9
  25891343.289    -4461115.789 6  -3476202.713 2
  26265940.866     8844381.327 5   6891725.782 2
  24570371.386    -3226946.212 7  -2514508.191 5
 92  2 26 14 35 30.0070000  0  5 11 21 12 17 23
  23916622.659   -15083312.605 8 -11753230.611 5
  22813674.527   -14715481.243 9 -11466607.192 9
  25891457.222    -4460535.407 6  -3475750.562 1
  26286487.137     8952336.889 5   6975847.082 2
  24583532.271    -3157781.873 7  -2460614.054 6
 92  2 26 14 36  0.0070000  0  5 11 21 12 17 23
  23910660.391   -15114657.957 8 -11777655.611 5
  22817742.714   -14694116.131 9 -11449959.120 8
  25891689.851    -4459335.751 6  -3474815.823 3
  26307071.187     9060494.917 5   7060126.205 2
  24596709.349    -3088531.490 7  -2406652.876 5
 92  2 26 14 36 30.0070000  0  5 11 21 12 17 23
  23904812.945   -15145374.303 8 -11801590.482 5
  22821850.163   -14672537.606 9 -11433144.752 8
  25892031.927    -4457516.213 6  -3473398.095 2
  26327687.921     9168860.998 5   7144567.351 3
  24609904.419    -3019202.201 7  -2352630.214 6
 92  2 26 14 37  0.0070000  0  5 11 21 12 17 23
  23899083.916   -15175460.405 8 -11825034.248 6
  22825998.394   -14650731.077 9 -11416152.714 8
  25892498.703    -4455076.399 6  -3471497.003 2
  26348340.620     9277418.419 5   7229157.663 1
  24623112.366    -2949792.090 7  -2298544.581 5
 92  2 26 14 37 30.0070000  0  5 11 21 12 17 23
  23893487.387   -15204913.984 8 -11847985.140 5
  22830193.078   -14628694.532 9 -11398981.457 9
  25893080.301    -4452014.971 6  -3469111.570 2
  26369038.899     9386159.086 5   7313890.705 2
  24636336.211    -2880292.143 7  -2244388.942 5
 92  2 26 14 38  0.0070000  0  5 11 21 12 17 23
  23888001.178   -15233733.161 8 -11870441.700 5
  22834431.247   -14606429.762 9 -11381632.375 9
  25893779.409    -4448330.782 6  -3466240.856 2
  26389767.140     9495074.266 5   7398759.775 2
  24649583.142    -2810690.277 7  -2190153.889 5
 92  2 26 14 38 30.0070000  0  5 11 21 12 17 23
  23882634.887   -15261913.360 8 -11892400.353 4
  22838712.291   -14583919.342 9 -11364091.873 9
  25894596.952    -4444020.105 6  -3462881.905 1
  26410520.283     9604141.743 6   7483747.457 3
  24662848.658    -2740967.953 7  -2135824.964 5
 92  2 26 14 39  0.0070000  0  5 11 21 12 17 23
  23877403.225   -15289450.313 8 -11913857.772 5
  22843044.290   -14561165.720 9 -11346361.853 9
  25895541.288    -4439079.933 6  -3459032.466 1
  26431308.186     9713354.099 5   7568848.088 2
  24676143.857    -2671121.946 7  -2081399.681 5
 92  2 26 14 39 30.0070000  0  5 11 21 12 17 23
  23872285.756   -15316336.163 8 -11934807.834 5
  22847419.461   -14538172.155 9 -11328444.881 9
  25896595.369    -4433503.188 6  -3454687.052 2
  26452113.784     9822724.601 5   7654071.927 2
  24689453.156    -2601154.137 7  -2026879.479 5
 92  2 26 14 40  0.0070000  0  5 11 21 12 17 23
  23867288.520   -15342566.076 8 -11955246.789 5
  22851840.491   -14514929.942 9 -11310334.155 9
  25897783.432    -4427285.981 6  -3449842.417 1
  26472959.849     9932257.264 5   7739422.087 1
  24702793.009    -2531067.489 7  -1972266.697 4
 92  2 26 14 40 30.0070000  0  5 11 21 12 17 23
  23862422.893   -15368142.254 8 -11975176.336 5
  22856309.213   -14491436.209 9 -11292027.440 8
  25899089.633    -4420431.592 6  -3444501.473 2
  26493847.585    10041947.310 5   7824894.935 1
  24716151.465    -2460872.354 7  -1917569.362 4
 92  2 26 14 41  0.0070000  0  5 11 21 12 17 23
  23857682.577   -15393064.358 8 -11994596.207 5
  22860833.374   -14467696.010 9 -11273528.673 9
  25900517.846    -4412940.554 6  -3438664.272 1
  26514734.431    10151806.701 5   7910499.653 1
  24729524.614    -2390583.315 7  -1862798.881 5
 92  2 26 14 41 30.0070000  0  5 11 21 12 17 23
  23853063.975   -15417334.523 8 -12013508.073 5
  22865394.110   -14443708.531 9 -11254837.215 9
  25902064.179    -4404815.816 6  -3432333.436 3
  26535681.237    10261845.547 5   7996244.282 2
  24742920.536    -2320201.838 7  -1807956.360 5
 92  2 26 14 42  0.0070000  0  5 11 21 12 17 23
  23848564.681   -15440951.537 8 -12031911.007 5
  22870005.226   -14419471.669 9 -11235951.428 8
  25903733.118    -4396057.054 6  -3425508.433 1
  26556646.015    10372053.663 5   8082120.741 2
  24756330.853    -2249719.702 7  -1753035.391 5
 92  2 26 14 42 30.0070000  0  5 11 21 12 17 23
  23844200.608   -15463917.316 8 -12049806.475 4
  22874663.701   -14394996.594 9 -11216880.033 8
  25905516.583    -4386667.151 6  -3418191.731 2
  26577663.267    10482428.064 5   8168126.751 1
  24769763.054    -2179146.215 7  -1698043.235 4
 92  2 26 14 43  0.0070000  0  5 11 21 12 17 23
  23839949.246   -15486231.959 8 -12067194.564 4
  22879367.739   -14370297.372 9 -11197633.968 7
  25907420.559    -4376647.150 6  -3410384.002 1
  26598703.605    10592967.064 5   8254261.089 2
  24783206.649    -2108482.706 7  -1642980.948 5
 92  2 26 14 43 30.0070000  0  5 11 21 12 17 23
  23835832.496   -15507890.825 8 -12084071.659 4
  22884110.464   -14345370.791 9 -11178210.742 8
  25909450.159    -4365993.521 6  -3402082.518 2
  26619754.728    10703662.705 5   8340517.418 2
  24796676.926    -2037718.450 7  -1587840.154 4
 92  2 26 14 44  0.0070000  0  5 11 21 12 17 23
  23831828.177   -15528894.905 8 -12100438.535 4
  22888895.156   -14320221.725 9 -11158614.139 8
  25911594.878    -4354708.155 6  -3393288.779 2
  26640847.818    10814491.748 5   8426877.789 1
  24810162.175    -1966847.152 7  -1532615.953 4
 92  2 26 14 44 30.0070000  0  5 11 21 12 17 23
  23827960.842   -15549241.926 8 -12116293.416 4
  22893723.003   -14294854.252 9 -11138847.374 9
  25913868.798    -4342789.586 6  -3384001.637 2
  26661963.698    10925459.988 5   8513346.512 2
  24823666.026    -1895875.675 7  -1477313.698 4
 92  2 26 14 45  0.0070000  0  5 11 21 12 17 23
  23824212.832   -15568927.519 8 -12131632.902 5
  22898591.038   -14269263.740 9 -11118906.806 8
  25916250.945    -4330234.825 6  -3374218.808 2
  26683104.463    11036564.215 5   8599921.211 1
  24837194.464    -1824799.347 7  -1421929.729 4
 92  2 26 14 45 30.0070000  0  5 11 21 12 17 23
  23820605.732   -15587950.266 8 -12146455.877 4
  22903504.636   -14243438.242 9 -11098783.132 8
  25918767.406    -4317042.998 6  -3363939.574 4
  26704276.114    11147796.832 5   8686595.885 1
  24850735.188    -1753616.058 7  -1366462.444 4
 92  2 26 14 46  0.0070000  0  5 11 21 12 17 23
  23817101.764   -15606309.673 8 -12160761.976 5
  22908461.998   -14217391.516 9 -11078487.072 8
  25921396.595    -4303214.606 6  -3353164.307 2
  26725456.159    11259168.578 5   8773379.141 1
  24864303.500    -1682334.933 7  -1310918.900 4
 92  2 26 14 46 30.0070000  0  5 11 21 12 17 23
  23813732.999   -15624007.669 8 -12174552.683 3
  22913461.049   -14191123.453 9 -11058018.548 8
  25924148.983    -4288752.449 6  -3341895.157 3
  26746695.848    11370692.358 5   8860280.755 2
  24877881.095    -1610975.205 7  -1255314.127 3
 92  2 26 14 47  0.0070000  0  5 11 21 12 17 23
  23810498.828   -15641042.350 8 -12187826.529 6
  22918502.347   -14164629.291 9 -11037373.838 9
  25927025.494    -4273656.036 6  -3330131.850 2
  26767952.028    11482376.430 5   8947307.243 2
  24891479.980    -1539524.084 7  -1199638.135 3
 92  2 26 14 47 30.0070000  0  5 11 21 12 17 23
  23807376.199   -15657413.294 8 -12200583.180 5
  22923586.538   -14137920.093 9 -11016561.567 8
  25930015.921    -4257925.644 6  -3317874.475 2
  26789231.295    11594234.863 5   9034469.583 1
  24905095.059    -1467978.581 7  -1143888.564 4
 92  2 26 14 48  0.0070000  0  5 11 21 12 17 23
  23804391.758   -15673120.284 8 -12212822.462 4
  22928705.490   -14111007.367 9 -10995590.708 9
  25933128.377    -4241562.045 6  -3305123.726 2
  26810538.447    11706269.742 5   9121769.430 1
  24918724.831    -1396336.815 7  -1088064.033 4
 92  2 26 14 48 30.0070000  0  5 11 21 12 17 23
  23801522.157   -15688166.346 8 -12224546.741 4
  22933870.004   -14083879.206 9 -10974451.983 9
  25936360.139    -4224569.003 6  -3291882.500 2
  26831895.664    11818464.294 5   9209193.725 2
  24932376.782    -1324605.335 7  -1032169.570 3
 92  2 26 14 49  0.0070000  0  5 11 21 12 17 23
  23798790.447   -15702548.160 8 -12235753.417 5
  22939073.816   -14056536.189 9 -10953145.817 9
  25939713.303    -4206944.262 6  -3278149.071 3
  26853285.565    11930799.860 5   9296727.884 1
  24946045.816    -1252770.556 7   -976194.623 4
 92  2 26 14 49 30.0080000  0  5 11 21 12 17 23
  23796176.251   -15716260.647 8 -12246438.549 5
  22944318.081   -14028975.107 9 -10931669.744 8
  25943192.095    -4188682.911 6  -3263919.563 3
  26874670.950    12043256.320 5   9384356.202 2
  24959740.628    -1180825.202 7   -920133.513 4
 92  2 26 14 50  0.0080000  0  5 11 21 12 17 23
  23793703.258   -15729306.220 8 -12256604.003 5
  22949605.217   -14001184.262 9 -10910014.625 8
  25946787.520    -4169790.289 6  -3249198.167 2
  26896092.331    12155799.545 5   9472052.131 2
  24973449.537    -1108784.474 7   -863998.120 4
 92  2 26 14 50 30.0080000  0  5 11 21 12 17 23
  23791339.400   -15741685.019 8 -12266249.898 5
  22954939.435   -13973159.249 9 -10888177.043 8
  25950505.533    -4150266.563 6  -3233984.982 3
  26917545.175    12268441.613 5   9559825.148 2
  24987170.434    -1036654.732 7   -807793.344 4
 92  2 26 14 51  0.0080000  0  5 11 21 12 17 23
  23789113.747   -15753392.254 8 -12275372.490 6
  22960314.399   -13944908.915 9 -10866163.880 8
  25954335.088    -4130107.746 6  -3218276.885 3
  26938993.220    12381195.825 5   9647685.491 2
  25000918.919     -964423.523 7   -751509.485 5
 92  2 26 14 51 30.0080000  0  5 11 21 12 17 23
  23787013.089   -15764429.898 8 -12283973.338 6
  22965734.349   -13916433.949 9 -10843975.686 8
  25958292.344    -4109316.586 6  -3202076.123 2
  26960449.973    12494083.465 4   9735649.743 2
  25014681.801     -892110.924 7   -695162.220 5
 92  2 26 14 52  0.0080000  0  5 11 21 12 17 23
  23785044.949   -15774798.267 8 -12292052.658 5
  22971192.672   -13887739.100 9 -10821616.162 8
  25962368.331    -4087894.816 6  -3185383.946 2
  26981984.362    12607129.207 4   9823737.250 1
  25028452.170     -819739.473 7   -638769.097 5
 92  2 26 14 52 30.0080000  0  5 11 21 12 17 23
  23783202.136   -15784493.824 8 -12299607.720 5
  22976695.058   -13858835.281 9 -10799093.815 9
  25966571.722    -4065839.882 6  -3168198.401 2
  27003517.546    12720341.399 4   9911954.427 2
  25042236.620     -747306.019 7   -582327.652 4
 92  2 26 14 53  0.0080000  0  5 11 21 12 17 23
  23781479.521   -15793516.136 8 -12306638.164 5
  22982234.926   -13829715.158 9 -10776402.909 8
  25970886.934    -4043152.255 6  -3150519.799 2
  27025101.407    12833694.544 4  10000281.369 3
  25056030.668     -674812.224 7   -525839.190 3
 92  2 26 14 53 30.0080000  0  5 11 21 12 17 23
  23779887.031   -15801869.312 8 -12313147.215 5
  22987820.357   -13800373.451 9 -10753539.344 9
  25975322.064    -4019836.844 6  -3132352.084 2
  27046699.960    12947161.308 4  10088696.898 2
  25069835.815     -602267.759 7   -469310.791 3
 92  2 26 14 54  0.0080000  0  5 11 21 12 17 23
  23778430.043   -15809551.785 8 -12319133.636 4
  22993443.864   -13770816.546 9 -10730508.083 8
  25979881.300    -3995893.031 6  -3113694.721 2
  27068301.201    13060711.567 4  10177177.502 2
  25083650.855     -529658.327 7   -412732.241 3
 92  2 26 14 54 30.0080000  0  5 11 21 12 17 23
  23777087.859   -15816559.013 8 -12324593.910 6
  22999112.044   -13741035.001 8 -10707301.789 8
  25984551.763    -3971317.507 6  -3094545.047 2
  27089916.541    13174337.914 4  10265717.377 1
  25097485.074     -456968.059 7   -356090.693 4
 92  2 26 14 55  0.0080000  0  5 11 21 12 17 23
  23775885.400   -15822886.794 8 -12329524.740 6
  23004823.395   -13711020.327 9 -10683913.830 9
  25989355.948    -3946106.866 6  -3074900.507 2
  27111553.764    13288046.373 4  10354321.248 3
  25111338.191     -384184.521 7   -299376.458 4
 92  2 26 14 55 30.0080000  0  5 11 21 12 17 23
  23774813.939   -15828533.660 8 -12333924.976 5
  23010578.808   -13680777.519 9 -10660348.106 8
  25994269.842    -3920260.662 6  -3054760.724 2
  27133212.276    13401855.184 4  10443003.287 2
  25125205.984     -311293.966 7   -242578.826 5
 92  2 26 14 56  0.0080000  0  5 11 21 12 17 23
  23773870.493   -15833496.884 8 -12337792.511 5
  23016376.486   -13650305.330 8 -10636603.646 8
  25999310.250    -3893777.062 6  -3034124.281 2
  27154906.457    13515798.067 5  10531789.797 2
  25139100.161     -238287.995 7   -185691.270 4
 92  2 26 14 56 30.0080000  0  6 11 21 12 17 23 15
  23773055.655   -15837776.784 8 -12341127.586 5
  23022219.744   -13619588.969 9 -10612668.917 8
  26004473.281    -3866657.265 6  -3012992.067 2
  27176603.325    13629900.717 4  10620700.801 2
  25153015.331     -165160.252 7   -128708.838 2
  26850844.649     -282763.483 6   -220335.093 1
 92  2 26 14 57  0.0080000  0  6 11 21 12 17 23 15
  23772373.927   -15841371.379 8 -12343928.659 5
  23028116.365   -13588622.439 8 -10588539.265 8
  26009752.914    -3838900.274 6  -2991363.341 2
  27198364.060    13744166.165 5  10709738.626 2
  25166955.682      -91903.774 7    -71626.108 2
  26832720.399     -378001.613 5   -294546.413 2
 92  2 26 14 57 30.0080000  0  6 11 21 12 17 23 15
  23771818.120   -15844278.907 8 -12346194.359 6
  23034054.656   -13557406.838 8 -10564215.522 9
  26015159.079    -3810505.308 6  -2969237.495 2
  27220138.581    13858591.174 5  10798900.836 1
  25180919.713      -18528.286 7    -14450.621 3
  26814600.041     -473214.593 5   -368738.499 2
 92  2 26 14 58  0.0080000  0  5 11 21 12 23 15
  23771393.609   -15846502.270 8 -12347926.939 6
  23040042.105   -13525948.295 8 -10539702.481 8
  26020685.161    -3781476.254 6  -2946617.574 2
  25194905.033       54951.428 7     42806.084 4
  26796487.779     -568393.754 5   -442904.248
 92  2 26 14 58 30.0080000  0  5 11 21 12 23 15
  23771100.114   -15848041.802 8 -12349126.661 5
  23046070.335   -13494258.799 8 -10515009.466 8
  26026322.454    -3751814.404 6  -2923504.523 2
  25208901.748      128519.191 7    100131.401 3
  26778390.211     -663541.902 5   -517045.502 1
 92  2 26 14 59  0.0080000  0  5 11 21 12 23 15
  23770939.729   -15848896.146 8 -12349792.477 5
  23052143.831   -13462357.759 8 -10490151.606 7
  26032090.467    -3721519.693 6  -2899898.354 3
  25222915.232      202156.361 6    157510.822 3
  26760283.935     -758660.351 5   -591163.855 2
 92  2 26 14 59 30.0080000  0  5 11 21 12 23 15
  23770910.342   -15849063.461 8 -12349923.016 5
  23058251.512   -13430252.331 8 -10465134.493 7
  26037977.175    -3690590.968 6  -2875798.125 2
  25236936.238      275852.283 6    214936.007 3
  26742189.664     -853745.591 5   -665256.378 1
 92  2 26 15  0  0.0080000  0  5 11 21 12 23 15
  23771011.065   -15848539.733 8 -12349514.977 5
  23064399.642   -13397941.609 9 -10439957.408 7
  26043986.228    -3659025.040 6  -2851201.414 2
  25250976.107      349613.193 6    272411.819 2
  26724104.992     -948781.576 5   -739310.205 2
 92  2 26 15  0 30.0080000  0  5 11 21 12 23 15
  23771236.819   -15847324.773 8 -12348568.344 5
  23070588.572   -13365425.318 9 -10414620.146 7
  26050116.385    -3626822.831 6  -2826108.899
  25265027.092      423444.811 6    329942.706 2
  26706032.604    -1043774.630 5   -813330.941 2
 92  2 26 15  1  0.0080000  0  5 11 21 12 23 15
  23771609.765   -15845416.829 8 -12347081.731 4
  23076818.247   -13332694.775 9 -10389115.932 7
  26056362.847    -3593983.436 6  -2800519.869 3
  25279090.345      497360.924 6    387539.454 3
  26687966.812    -1138728.077 4   -887320.803 2
 92  2 26 15  1 30.0080000  0  5 11 21 12 23 15
  23772099.016   -15842815.028 8 -12345054.423 4
  23083088.110   -13299741.365 9 -10363438.037 8
  26062731.653    -3560506.886 6  -2774434.345 3
  25293171.310      571375.498 6    445212.947 4
  26669901.003    -1233655.845 4   -961290.602 2
 92  2 26 15  2  0.0080000  0  5 11 21 12 23 15
  23772723.193   -15839517.437 8 -12342484.953 4
  23089404.443   -13266554.625 9 -10337578.347 8
  26069222.750    -3526392.225 6  -2747851.579 2
  25307281.032      645490.885 6    502964.972 4
  26651843.919    -1328554.962 4  -1035238.178 2
 92  2 26 15  2 30.0080000  0  5 11 21 12 23 15
  23773489.153   -15835523.143 8 -12339372.602 4
  23095761.837   -13233134.058 9 -10311536.452 8
  26075834.969    -3491639.697 6  -2720771.762 3
  25321400.666      719703.008 6    560792.394 4
  26633781.722    -1423427.734 4  -1109165.182 2
 92  2 26 15  3  0.0080000  0  5 11 21 12 23 15
  23774379.236   -15830831.981 8 -12335717.249 5
  23102166.311   -13199481.521 9 -10285313.788 8
  26082575.203    -3456250.024 6  -2693195.515 2
  25335537.664      793997.816 6    618684.234 3
  26615746.207    -1518266.770 5  -1183065.859 2
 92  2 26 15  3 30.0080000  0  5 11 21 12 23 15
  23775409.323   -15825439.455 8 -12331515.364 6
  23108619.035   -13165585.712 9 -10258901.577 7
  26089428.165    -3420219.394 6  -2665119.783 3
  25349696.578      868378.660 6    676643.119 2
  26597702.594    -1613040.446 5  -1256915.631 1
 92  2 26 15  4  0.0080000  0  5 11 21 12 23 15
  23776563.532   -15819348.607 8 -12326769.346 5
  23115112.540   -13131450.249 9 -10232302.616 8
  26096407.938    -3383551.771 6  -2636547.718 1
  25363866.853      942850.238 6    734673.164 3
  26579688.961    -1707713.809 5  -1330687.265 1
 92  2 26 15  4 30.0080000  0  5 11 21 12 23 15
  23777858.025   -15812558.535 8 -12321478.463 5
  23121652.219   -13097078.680 9 -10205519.673 8
  26103505.814    -3346247.289 6  -2607479.383 3
  25378057.231     1017431.257 6    792788.027 2
  26561684.926    -1802289.616 5  -1404382.888 3
 92  2 26 15  5  0.0080000  0  5 11 21 12 23 15
  23779279.641   -15805070.396 8 -12315643.640 6
  23128241.945   -13062462.553 9 -10178546.187 8
  26110722.422    -3308307.851 6  -2577916.316 2
  25392273.993     1092138.664 6    851001.362 4
  26543712.371    -1896769.127 5  -1478003.427 2
 92  2 26 15  5 30.0080000  0  5 11 21 12 23 15
  23780839.761   -15796885.821 8 -12309266.143 5
  23134871.858   -13027607.479 9 -10151386.493 7
  26118061.948    -3269735.940 6  -2547860.314 3
  25406517.733     1166991.771 6    909328.244 2
  26525746.115    -1991161.512 5  -1551556.080 4
 92  2 26 15  6  0.0080000  0  5 11 21 12 23 15
  23782526.394   -15788005.973 8 -12302346.857 6
  23141549.446   -12992525.641 9 -10124050.100 8
  26125523.469    -3230533.824 6  -2517313.307 2
  25420786.951     1241978.616 6    967759.343 2
  26507795.443    -2085498.323 5  -1625065.407 1
 92  2 26 15  6 30.0080000  0  5 11 21 12 23 15
  23784354.828   -15778433.789 8 -12294888.099 5
  23148268.687   -12957218.276 9 -10096537.973 8
  26133102.221    -3190705.152 6  -2486278.085 2
  25435077.161     1317065.123 6   1026268.564 2
  26489852.256    -2179803.953 6  -1698550.481 2
 92  2 26 15  7  0.0080000  0  5 11 21 12 23 15
  23786298.695   -15768173.774 8 -12286893.378 5
  23155026.615   -12921698.211 8 -10068860.114 8
  26140797.907    -3150255.408 6  -2454758.886 2
  25449379.359     1392220.293 6   1084831.262 2
  26471910.571    -2274071.084 5  -1772005.622 3
 92  2 26 15  7 30.0080000  0  5 11 21 12 23 15
  23788389.144   -15757220.765 8 -12278358.653 5
  23161827.995   -12885966.501 8 -10041017.316 7
  26148616.198    -3109180.453 6  -2422752.505 1
  25463689.951     1467428.178 6   1143434.579 3
  26453981.781    -2368292.746 5  -1845425.232 4
 92  2 26 15  8  0.0080000  0  5 11 21 12 23 15
  23790613.296   -15745546.433 8 -12269261.854 5
  23168673.453   -12849980.792 8 -10012976.597 7
  26156557.984    -3067452.884 6  -2390237.643 2
  25478016.737     1542695.414 6   1202084.138 2
  26436076.392    -2462422.885 5  -1918773.526 2
 92  2 26 15  8 30.0080000  0  5 11 21 12 23 15
  23792981.064   -15733096.745 8 -12259560.884 5
  23175585.171   -12813679.184 8  -9984689.736 7
  26164629.599    -3025019.429 6  -2357172.717 2
  25492357.012     1618090.047 6   1260832.993 4
  26418189.866    -2556386.389 5  -1991991.977 1
 92  2 26 15  9  0.0080000  0  5 11 21 12 23 15
  23795499.322   -15719846.752 8 -12249236.311 3
  23182557.457   -12777045.131 8  -9956143.815 7
  26172849.018    -2981855.877 6  -2323538.845 2
  25506743.443     1693665.553 6   1319722.803 2
  26400347.123    -2650158.026 5  -2065060.955 2
